<?xml version='1.0' encoding='UTF-8'?><gpx version="1.1" creator="JPX - https://github.com/jenetics/jpx" xmlns="http://www.topografix.com/GPX/1/1"><trk><trkseg><trkpt lat="43.02772010860717" lon="10.603133679199102"><ele>11.0</ele><time>2026-04-19T08:35:27.001Z</time></trkpt><trkpt lat="43.02762077313113" lon="10.603196709442141"><ele>11.0</ele><time>2026-04-19T08:35:33.001Z</time></trkpt><trkpt lat="43.027554142528835" lon="10.6032635910422"><ele>11.0</ele><time>2026-04-19T08:35:35.001Z</time></trkpt><trkpt lat="43.02752830681482" lon="10.603350539641113"><ele>11.0</ele><time>2026-04-19T08:35:36.001Z</time></trkpt><trkpt lat="43.02749535700077" lon="10.603424577047994"><ele>11.0</ele><time>2026-04-19T08:35:37.001Z</time></trkpt><trkpt lat="43.02745528427542" lon="10.60350394714395"><ele>11.0</ele><time>2026-04-19T08:35:38.001Z</time></trkpt><trkpt lat="43.027383870186505" lon="10.603558911063006"><ele>10.8</ele><time>2026-04-19T08:35:39.001Z</time></trkpt><trkpt lat="43.027313180934954" lon="10.603644909880483"><ele>10.600000000000001</ele><time>2026-04-19T08:35:40.001Z</time></trkpt><trkpt lat="43.02724257406901" lon="10.603744426702448"><ele>10.4</ele><time>2026-04-19T08:35:41.001Z</time></trkpt><trkpt lat="43.027172858034504" lon="10.603824588611939"><ele>10.2</ele><time>2026-04-19T08:35:42.001Z</time></trkpt><trkpt lat="43.0271093683366" lon="10.603905336324559"><ele>10.0</ele><time>2026-04-19T08:35:43.001Z</time></trkpt><trkpt lat="43.02704160691148" lon="10.603988796110592"><ele>10.0</ele><time>2026-04-19T08:35:44.001Z</time></trkpt><trkpt lat="43.02696820620349" lon="10.604073572822463"><ele>10.0</ele><time>2026-04-19T08:35:45.001Z</time></trkpt><trkpt lat="43.02689615503885" lon="10.60415870343587"><ele>10.0</ele><time>2026-04-19T08:35:46.001Z</time></trkpt><trkpt lat="43.026822830719176" lon="10.604248211171246"><ele>10.0</ele><time>2026-04-19T08:35:47.001Z</time></trkpt><trkpt lat="43.026745420240864" lon="10.60434314084087"><ele>10.0</ele><time>2026-04-19T08:35:48.001Z</time></trkpt><trkpt lat="43.026668052074925" lon="10.604440233760965"><ele>10.2</ele><time>2026-04-19T08:35:49.001Z</time></trkpt><trkpt lat="43.026589549299565" lon="10.604537300720255"><ele>10.4</ele><time>2026-04-19T08:35:50.001Z</time></trkpt><trkpt lat="43.026508928764905" lon="10.604638786167198"><ele>10.600000000000001</ele><time>2026-04-19T08:35:51.001Z</time></trkpt><trkpt lat="43.02642756779996" lon="10.60473982663855"><ele>10.8</ele><time>2026-04-19T08:35:52.001Z</time></trkpt><trkpt lat="43.02634661668048" lon="10.604839392597222"><ele>11.0</ele><time>2026-04-19T08:35:53.001Z</time></trkpt><trkpt lat="43.02626359910865" lon="10.60494418214939"><ele>11.0</ele><time>2026-04-19T08:35:54.001Z</time></trkpt><trkpt lat="43.02617891354206" lon="10.605046296959246"><ele>11.0</ele><time>2026-04-19T08:35:55.001Z</time></trkpt><trkpt lat="43.02609149764903" lon="10.60515401821959"><ele>11.0</ele><time>2026-04-19T08:35:56.001Z</time></trkpt><trkpt lat="43.02600486987598" lon="10.605260947299616"><ele>11.0</ele><time>2026-04-19T08:35:57.001Z</time></trkpt><trkpt lat="43.02591558180637" lon="10.605373333973118"><ele>10.75</ele><time>2026-04-19T08:35:58.001Z</time></trkpt><trkpt lat="43.02582713114932" lon="10.60548510505393"><ele>10.5</ele><time>2026-04-19T08:35:59.001Z</time></trkpt><trkpt lat="43.02574213519663" lon="10.60559128912834"><ele>10.25</ele><time>2026-04-19T08:36:00.001Z</time></trkpt><trkpt lat="43.02565619753345" lon="10.605695413779557"><ele>10.0</ele><time>2026-04-19T08:36:01.001Z</time></trkpt><trkpt lat="43.025570861637654" lon="10.605801110326315"><ele>9.75</ele><time>2026-04-19T08:36:02.001Z</time></trkpt><trkpt lat="43.02548375075442" lon="10.60590990607835"><ele>9.5</ele><time>2026-04-19T08:36:03.001Z</time></trkpt><trkpt lat="43.02539573176791" lon="10.606014618035886"><ele>9.25</ele><time>2026-04-19T08:36:04.001Z</time></trkpt><trkpt lat="43.02530631874057" lon="10.606120231209589"><ele>9.0</ele><time>2026-04-19T08:36:05.001Z</time></trkpt><trkpt lat="43.02522095901918" lon="10.606222675623894"><ele>9.0</ele><time>2026-04-19T08:36:06.001Z</time></trkpt><trkpt lat="43.02514307033271" lon="10.606317413406869"><ele>9.0</ele><time>2026-04-19T08:36:07.001Z</time></trkpt><trkpt lat="43.02507108958689" lon="10.606403871855594"><ele>9.0</ele><time>2026-04-19T08:36:08.001Z</time></trkpt><trkpt lat="43.02500024238653" lon="10.606488585679571"><ele>9.0</ele><time>2026-04-19T08:36:09.001Z</time></trkpt><trkpt lat="43.024924687753625" lon="10.606578764058808"><ele>9.0</ele><time>2026-04-19T08:36:10.001Z</time></trkpt><trkpt lat="43.024843161867246" lon="10.606679452814134"><ele>9.5</ele><time>2026-04-19T08:36:11.001Z</time></trkpt><trkpt lat="43.02475502288805" lon="10.606792335523204"><ele>10.0</ele><time>2026-04-19T08:36:12.001Z</time></trkpt><trkpt lat="43.02465445426831" lon="10.606924603831075"><ele>10.5</ele><time>2026-04-19T08:36:13.001Z</time></trkpt><trkpt lat="43.02453795915885" lon="10.60706595398825"><ele>11.0</ele><time>2026-04-19T08:36:14.001Z</time></trkpt><trkpt lat="43.024411420835634" lon="10.607216463768694"><ele>11.333333333333332</ele><time>2026-04-19T08:36:15.001Z</time></trkpt><trkpt lat="43.024282222410115" lon="10.607385547163949"><ele>11.666666666666666</ele><time>2026-04-19T08:36:16.001Z</time></trkpt><trkpt lat="43.02414875475257" lon="10.607552497128008"><ele>12.0</ele><time>2026-04-19T08:36:17.001Z</time></trkpt><trkpt lat="43.024000475110725" lon="10.607728761755064"><ele>11.333333333333334</ele><time>2026-04-19T08:36:18.001Z</time></trkpt><trkpt lat="43.02384640097743" lon="10.607911959034142"><ele>10.666666666666668</ele><time>2026-04-19T08:36:19.001Z</time></trkpt><trkpt lat="43.023689358805015" lon="10.608100051097964"><ele>10.0</ele><time>2026-04-19T08:36:20.001Z</time></trkpt><trkpt lat="43.02352780564742" lon="10.608294598640088"><ele>10.0</ele><time>2026-04-19T08:36:21.001Z</time></trkpt><trkpt lat="43.02337347032169" lon="10.608487159712713"><ele>10.0</ele><time>2026-04-19T08:36:22.001Z</time></trkpt><trkpt lat="43.02321544289884" lon="10.608680860578193"><ele>10.0</ele><time>2026-04-19T08:36:23.001Z</time></trkpt><trkpt lat="43.02305186345401" lon="10.60888456132533"><ele>10.333333333333334</ele><time>2026-04-19T08:36:24.001Z</time></trkpt><trkpt lat="43.02289143943676" lon="10.609084531586312"><ele>10.666666666666666</ele><time>2026-04-19T08:36:25.001Z</time></trkpt><trkpt lat="43.022725540983764" lon="10.609287711752357"><ele>11.0</ele><time>2026-04-19T08:36:26.001Z</time></trkpt><trkpt lat="43.0225601115466" lon="10.609486054458205"><ele>10.5</ele><time>2026-04-19T08:36:27.001Z</time></trkpt><trkpt lat="43.02239036895197" lon="10.609691966975504"><ele>10.0</ele><time>2026-04-19T08:36:28.001Z</time></trkpt><trkpt lat="43.02222118675351" lon="10.609899968597048"><ele>10.0</ele><time>2026-04-19T08:36:29.001Z</time></trkpt><trkpt lat="43.022049812146896" lon="10.610110668386652"><ele>10.0</ele><time>2026-04-19T08:36:30.001Z</time></trkpt><trkpt lat="43.02188130330695" lon="10.610318913307783"><ele>9.666666666666668</ele><time>2026-04-19T08:36:31.001Z</time></trkpt><trkpt lat="43.02171432013615" lon="10.610521724480341"><ele>9.333333333333334</ele><time>2026-04-19T08:36:32.001Z</time></trkpt><trkpt lat="43.02155211243495" lon="10.610726181764042"><ele>9.0</ele><time>2026-04-19T08:36:33.001Z</time></trkpt><trkpt lat="43.0213899353221" lon="10.610924849980458"><ele>9.666666666666666</ele><time>2026-04-19T08:36:34.001Z</time></trkpt><trkpt lat="43.02122792483968" lon="10.611126979973239"><ele>10.333333333333332</ele><time>2026-04-19T08:36:35.001Z</time></trkpt><trkpt lat="43.02106326345504" lon="10.611328556057103"><ele>11.0</ele><time>2026-04-19T08:36:36.001Z</time></trkpt><trkpt lat="43.02089466882371" lon="10.61153519618135"><ele>11.5</ele><time>2026-04-19T08:36:37.001Z</time></trkpt><trkpt lat="43.0207230185056" lon="10.61174337750594"><ele>12.0</ele><time>2026-04-19T08:36:38.001Z</time></trkpt><trkpt lat="43.02055412543055" lon="10.611944405887806"><ele>11.666666666666666</ele><time>2026-04-19T08:36:39.001Z</time></trkpt><trkpt lat="43.02040509067601" lon="10.612130888994457"><ele>11.333333333333332</ele><time>2026-04-19T08:36:40.001Z</time></trkpt><trkpt lat="43.02027965511478" lon="10.6122885763008"><ele>11.0</ele><time>2026-04-19T08:36:41.001Z</time></trkpt><trkpt lat="43.020162191324324" lon="10.612433207715132"><ele>11.0</ele><time>2026-04-19T08:36:42.001Z</time></trkpt><trkpt lat="43.02004757347622" lon="10.6125735005327"><ele>11.0</ele><time>2026-04-19T08:36:43.001Z</time></trkpt><trkpt lat="43.01995151585185" lon="10.61269099380364"><ele>11.0</ele><time>2026-04-19T08:36:44.001Z</time></trkpt><trkpt lat="43.019859894890956" lon="10.612801687444678"><ele>11.0</ele><time>2026-04-19T08:36:45.001Z</time></trkpt><trkpt lat="43.01978462955417" lon="10.612894247308141"><ele>11.333333333333332</ele><time>2026-04-19T08:36:46.001Z</time></trkpt><trkpt lat="43.01971939914784" lon="10.61297400685864"><ele>11.666666666666666</ele><time>2026-04-19T08:36:47.001Z</time></trkpt><trkpt lat="43.01966388288952" lon="10.613045133369203"><ele>12.0</ele><time>2026-04-19T08:36:48.001Z</time></trkpt><trkpt lat="43.01961535079944" lon="10.61310622401445"><ele>12.333333333333332</ele><time>2026-04-19T08:36:49.001Z</time></trkpt><trkpt lat="43.01956767338193" lon="10.613162735787967"><ele>12.666666666666666</ele><time>2026-04-19T08:36:50.001Z</time></trkpt><trkpt lat="43.01949402722071" lon="10.613252723074583"><ele>13.0</ele><time>2026-04-19T08:36:52.001Z</time></trkpt><trkpt lat="43.01943920171941" lon="10.613317680005773"><ele>13.0</ele><time>2026-04-19T08:37:03.001Z</time></trkpt><trkpt lat="43.019351654237575" lon="10.61342485026744"><ele>13.0</ele><time>2026-04-19T08:37:05.001Z</time></trkpt><trkpt lat="43.019301296846166" lon="10.613491286990584"><ele>13.0</ele><time>2026-04-19T08:37:06.001Z</time></trkpt><trkpt lat="43.01924424932013" lon="10.613566516895503"><ele>13.0</ele><time>2026-04-19T08:37:07.001Z</time></trkpt><trkpt lat="43.01918162034273" lon="10.61364649027162"><ele>13.0</ele><time>2026-04-19T08:37:08.001Z</time></trkpt><trkpt lat="43.01910775789519" lon="10.613740916290212"><ele>12.600000000000001</ele><time>2026-04-19T08:37:09.001Z</time></trkpt><trkpt lat="43.01902731732986" lon="10.613840307980448"><ele>12.200000000000001</ele><time>2026-04-19T08:37:10.001Z</time></trkpt><trkpt lat="43.01894609396834" lon="10.61394314159274"><ele>11.8</ele><time>2026-04-19T08:37:11.001Z</time></trkpt><trkpt lat="43.018863085981174" lon="10.61404602402199"><ele>11.4</ele><time>2026-04-19T08:37:12.001Z</time></trkpt><trkpt lat="43.018777607732815" lon="10.614149304430729"><ele>11.0</ele><time>2026-04-19T08:37:13.001Z</time></trkpt><trkpt lat="43.018689067736034" lon="10.614250549435713"><ele>11.0</ele><time>2026-04-19T08:37:14.001Z</time></trkpt><trkpt lat="43.01860538887813" lon="10.614341824399702"><ele>11.0</ele><time>2026-04-19T08:37:15.001Z</time></trkpt><trkpt lat="43.01852131537652" lon="10.61443939672013"><ele>11.0</ele><time>2026-04-19T08:37:16.001Z</time></trkpt><trkpt lat="43.018433346979926" lon="10.614545191852176"><ele>11.0</ele><time>2026-04-19T08:37:17.001Z</time></trkpt><trkpt lat="43.01834428948385" lon="10.61465801279488"><ele>10.75</ele><time>2026-04-19T08:37:18.001Z</time></trkpt><trkpt lat="43.01824494943925" lon="10.614783700866079"><ele>10.5</ele><time>2026-04-19T08:37:19.001Z</time></trkpt><trkpt lat="43.018137592566056" lon="10.614917054006389"><ele>10.25</ele><time>2026-04-19T08:37:20.001Z</time></trkpt><trkpt lat="43.01803209470445" lon="10.615046216934433"><ele>10.0</ele><time>2026-04-19T08:37:21.001Z</time></trkpt><trkpt lat="43.01791579111796" lon="10.615188737682272"><ele>10.75</ele><time>2026-04-19T08:37:22.001Z</time></trkpt><trkpt lat="43.017804566656494" lon="10.615327701984908"><ele>11.5</ele><time>2026-04-19T08:37:23.001Z</time></trkpt><trkpt lat="43.01769285260635" lon="10.615465789853577"><ele>12.25</ele><time>2026-04-19T08:37:24.001Z</time></trkpt><trkpt lat="43.01758716728162" lon="10.615598528585178"><ele>13.0</ele><time>2026-04-19T08:37:25.001Z</time></trkpt><trkpt lat="43.017491231273276" lon="10.61571546036642"><ele>12.5</ele><time>2026-04-19T08:37:26.001Z</time></trkpt><trkpt lat="43.01739813102686" lon="10.615829921958177"><ele>12.0</ele><time>2026-04-19T08:37:27.001Z</time></trkpt><trkpt lat="43.01731286789764" lon="10.615934133701005"><ele>11.5</ele><time>2026-04-19T08:37:28.001Z</time></trkpt><trkpt lat="43.01722731629535" lon="10.616039824754365"><ele>11.0</ele><time>2026-04-19T08:37:29.001Z</time></trkpt><trkpt lat="43.017139107024626" lon="10.61614663212135"><ele>11.0</ele><time>2026-04-19T08:37:30.001Z</time></trkpt><trkpt lat="43.01705326078936" lon="10.616256569430982"><ele>11.0</ele><time>2026-04-19T08:37:31.001Z</time></trkpt><trkpt lat="43.01696645766428" lon="10.616364960901569"><ele>11.0</ele><time>2026-04-19T08:37:32.001Z</time></trkpt><trkpt lat="43.016882072698785" lon="10.61646570920063"><ele>11.0</ele><time>2026-04-19T08:37:33.001Z</time></trkpt><trkpt lat="43.016707150107" lon="10.616675992495404"><ele>10.5</ele><time>2026-04-19T08:37:35.001Z</time></trkpt><trkpt lat="43.016615042949965" lon="10.61679023923844"><ele>10.0</ele><time>2026-04-19T08:37:36.001Z</time></trkpt><trkpt lat="43.016518872153945" lon="10.616910088645016"><ele>9.5</ele><time>2026-04-19T08:37:37.001Z</time></trkpt><trkpt lat="43.016421355405015" lon="10.617033031041041"><ele>9.0</ele><time>2026-04-19T08:37:38.001Z</time></trkpt><trkpt lat="43.016323058148984" lon="10.617153127989765"><ele>9.0</ele><time>2026-04-19T08:37:39.001Z</time></trkpt><trkpt lat="43.01622300476776" lon="10.617280299545156"><ele>9.0</ele><time>2026-04-19T08:37:40.001Z</time></trkpt><trkpt lat="43.01612507870249" lon="10.61740251873114"><ele>9.0</ele><time>2026-04-19T08:37:41.001Z</time></trkpt><trkpt lat="43.01602355819702" lon="10.617527664100686"><ele>9.0</ele><time>2026-04-19T08:37:42.001Z</time></trkpt><trkpt lat="43.01592155565232" lon="10.61764799039087"><ele>9.0</ele><time>2026-04-19T08:37:43.001Z</time></trkpt><trkpt lat="43.01582016531596" lon="10.617766473199996"><ele>9.0</ele><time>2026-04-19T08:37:44.001Z</time></trkpt><trkpt lat="43.015719252563805" lon="10.617887657782836"><ele>9.0</ele><time>2026-04-19T08:37:45.001Z</time></trkpt><trkpt lat="43.015617858432215" lon="10.618013759056677"><ele>9.0</ele><time>2026-04-19T08:37:46Z</time></trkpt><trkpt lat="43.01551655276266" lon="10.61814072018528"><ele>9.0</ele><time>2026-04-19T08:37:47Z</time></trkpt><trkpt lat="43.015413917501725" lon="10.618263283762753"><ele>9.0</ele><time>2026-04-19T08:37:48Z</time></trkpt><trkpt lat="43.015312797235474" lon="10.618384325120502"><ele>9.0</ele><time>2026-04-19T08:37:49Z</time></trkpt><trkpt lat="43.01520693003436" lon="10.618516172672555"><ele>9.0</ele><time>2026-04-19T08:37:50Z</time></trkpt><trkpt lat="43.01510216041695" lon="10.618642353500913"><ele>9.0</ele><time>2026-04-19T08:37:51Z</time></trkpt><trkpt lat="43.01499244572034" lon="10.618773833022374"><ele>9.0</ele><time>2026-04-19T08:37:52Z</time></trkpt><trkpt lat="43.014881945583845" lon="10.618915833076153"><ele>9.0</ele><time>2026-04-19T08:37:53Z</time></trkpt><trkpt lat="43.01476954891483" lon="10.619057922087118"><ele>8.666666666666666</ele><time>2026-04-19T08:37:54Z</time></trkpt><trkpt lat="43.01465448419622" lon="10.619200514805033"><ele>8.333333333333332</ele><time>2026-04-19T08:37:55Z</time></trkpt><trkpt lat="43.014532071659026" lon="10.619352695089399"><ele>8.0</ele><time>2026-04-19T08:37:56Z</time></trkpt><trkpt lat="43.014408649243265" lon="10.619503366104572"><ele>9.0</ele><time>2026-04-19T08:37:57Z</time></trkpt><trkpt lat="43.014280368815825" lon="10.619659126856332"><ele>10.0</ele><time>2026-04-19T08:37:58Z</time></trkpt><trkpt lat="43.014152493003586" lon="10.619816446214513"><ele>11.0</ele><time>2026-04-19T08:37:59Z</time></trkpt><trkpt lat="43.01402113794909" lon="10.619978127792931"><ele>11.0</ele><time>2026-04-19T08:38:00Z</time></trkpt><trkpt lat="43.01388847428877" lon="10.62014039298058"><ele>11.0</ele><time>2026-04-19T08:38:01Z</time></trkpt><trkpt lat="43.013753997346456" lon="10.620306422343514"><ele>11.0</ele><time>2026-04-19T08:38:02Z</time></trkpt><trkpt lat="43.013621175237994" lon="10.620470674195875"><ele>11.0</ele><time>2026-04-19T08:38:03Z</time></trkpt><trkpt lat="43.01348917198374" lon="10.620633501076641"><ele>11.0</ele><time>2026-04-19T08:38:04Z</time></trkpt><trkpt lat="43.0133526796037" lon="10.620798321439153"><ele>11.0</ele><time>2026-04-19T08:38:05Z</time></trkpt><trkpt lat="43.01321283617278" lon="10.62096656995013"><ele>10.666666666666666</ele><time>2026-04-19T08:38:06Z</time></trkpt><trkpt lat="43.01307284802973" lon="10.621137998550074"><ele>10.333333333333334</ele><time>2026-04-19T08:38:07Z</time></trkpt><trkpt lat="43.01293106635509" lon="10.621312516565164"><ele>10.0</ele><time>2026-04-19T08:38:08Z</time></trkpt><trkpt lat="43.01278477966795" lon="10.621488367129059"><ele>9.666666666666668</ele><time>2026-04-19T08:38:09Z</time></trkpt><trkpt lat="43.01263995033579" lon="10.621664515435516"><ele>9.333333333333334</ele><time>2026-04-19T08:38:10Z</time></trkpt><trkpt lat="43.01249326067129" lon="10.62184562366211"><ele>9.0</ele><time>2026-04-19T08:38:11Z</time></trkpt><trkpt lat="43.01234918576692" lon="10.622027251873389"><ele>8.666666666666666</ele><time>2026-04-19T08:38:12Z</time></trkpt><trkpt lat="43.01220103335416" lon="10.622213161551729"><ele>8.333333333333332</ele><time>2026-04-19T08:38:13Z</time></trkpt><trkpt lat="43.01204994339363" lon="10.622395952359838"><ele>8.0</ele><time>2026-04-19T08:38:14Z</time></trkpt><trkpt lat="43.01189779049185" lon="10.62258248774604"><ele>8.0</ele><time>2026-04-19T08:38:15Z</time></trkpt><trkpt lat="43.01174511423331" lon="10.622768601279011"><ele>8.0</ele><time>2026-04-19T08:38:16Z</time></trkpt><trkpt lat="43.01159092895963" lon="10.622956342270452"><ele>8.0</ele><time>2026-04-19T08:38:17Z</time></trkpt><trkpt lat="43.01143521267473" lon="10.623148568110595"><ele>8.333333333333332</ele><time>2026-04-19T08:38:18Z</time></trkpt><trkpt lat="43.011276467432516" lon="10.623343687122217"><ele>8.666666666666666</ele><time>2026-04-19T08:38:19Z</time></trkpt><trkpt lat="43.011116455267164" lon="10.623539646029537"><ele>9.0</ele><time>2026-04-19T08:38:20Z</time></trkpt><trkpt lat="43.01095467569919" lon="10.623735437692794"><ele>9.0</ele><time>2026-04-19T08:38:21Z</time></trkpt><trkpt lat="43.01079223444684" lon="10.623934018696339"><ele>9.0</ele><time>2026-04-19T08:38:22Z</time></trkpt><trkpt lat="43.010627764448046" lon="10.624136304390749"><ele>9.0</ele><time>2026-04-19T08:38:23Z</time></trkpt><trkpt lat="43.01046121774291" lon="10.6243425338943"><ele>9.666666666666666</ele><time>2026-04-19T08:38:24Z</time></trkpt><trkpt lat="43.010294763361216" lon="10.624546446173518"><ele>10.333333333333332</ele><time>2026-04-19T08:38:25Z</time></trkpt><trkpt lat="43.010131572324546" lon="10.624743417909231"><ele>11.0</ele><time>2026-04-19T08:38:26Z</time></trkpt><trkpt lat="43.00996648359295" lon="10.62494564881367"><ele>11.0</ele><time>2026-04-19T08:38:27Z</time></trkpt><trkpt lat="43.00979718701919" lon="10.625152556569898"><ele>11.0</ele><time>2026-04-19T08:38:28Z</time></trkpt><trkpt lat="43.00962960417187" lon="10.625359266559856"><ele>11.0</ele><time>2026-04-19T08:38:29Z</time></trkpt><trkpt lat="43.00945988957065" lon="10.62556957467185"><ele>11.0</ele><time>2026-04-19T08:38:30Z</time></trkpt><trkpt lat="43.0092880995161" lon="10.625779571840278"><ele>11.0</ele><time>2026-04-19T08:38:31Z</time></trkpt><trkpt lat="43.00911748946485" lon="10.62598975554532"><ele>11.0</ele><time>2026-04-19T08:38:32Z</time></trkpt><trkpt lat="43.008942289000686" lon="10.626204711304164"><ele>11.0</ele><time>2026-04-19T08:38:33Z</time></trkpt><trkpt lat="43.00876657317233" lon="10.62642024605972"><ele>11.0</ele><time>2026-04-19T08:38:34Z</time></trkpt><trkpt lat="43.008591794432995" lon="10.626635061439451"><ele>11.0</ele><time>2026-04-19T08:38:35Z</time></trkpt><trkpt lat="43.00842016538746" lon="10.626848462116978"><ele>11.0</ele><time>2026-04-19T08:38:36Z</time></trkpt><trkpt lat="43.00825820096872" lon="10.627050535012831"><ele>11.333333333333332</ele><time>2026-04-19T08:38:37Z</time></trkpt><trkpt lat="43.00809757918754" lon="10.627247856282779"><ele>11.666666666666666</ele><time>2026-04-19T08:38:38Z</time></trkpt><trkpt lat="43.00794026172243" lon="10.627443541449878"><ele>12.0</ele><time>2026-04-19T08:38:39Z</time></trkpt><trkpt lat="43.00778326515182" lon="10.627635163822385"><ele>12.0</ele><time>2026-04-19T08:38:40Z</time></trkpt><trkpt lat="43.00762806714733" lon="10.627824173874476"><ele>12.0</ele><time>2026-04-19T08:38:41Z</time></trkpt><trkpt lat="43.00746836878709" lon="10.628020184834051"><ele>12.0</ele><time>2026-04-19T08:38:42Z</time></trkpt><trkpt lat="43.0073084439082" lon="10.628216719458807"><ele>12.0</ele><time>2026-04-19T08:38:43Z</time></trkpt><trkpt lat="43.00715342184093" lon="10.628408678660564"><ele>12.0</ele><time>2026-04-19T08:38:44Z</time></trkpt><trkpt lat="43.00699082894435" lon="10.62861048237702"><ele>12.0</ele><time>2026-04-19T08:38:45Z</time></trkpt><trkpt lat="43.00683646415066" lon="10.628803093730188"><ele>11.666666666666666</ele><time>2026-04-19T08:38:46Z</time></trkpt><trkpt lat="43.0066740897136" lon="10.629003897772677"><ele>11.333333333333332</ele><time>2026-04-19T08:38:47Z</time></trkpt><trkpt lat="43.00651917264348" lon="10.629195281289837"><ele>11.0</ele><time>2026-04-19T08:38:48Z</time></trkpt><trkpt lat="43.00636354406313" lon="10.629383910982455"><ele>10.666666666666666</ele><time>2026-04-19T08:38:49Z</time></trkpt><trkpt lat="43.00621322855093" lon="10.629566667684347"><ele>10.333333333333334</ele><time>2026-04-19T08:38:50Z</time></trkpt><trkpt lat="43.00606075562179" lon="10.629755523782318"><ele>10.0</ele><time>2026-04-19T08:38:51Z</time></trkpt><trkpt lat="43.00590860069237" lon="10.629943668520566"><ele>10.0</ele><time>2026-04-19T08:38:52Z</time></trkpt><trkpt lat="43.005755313944086" lon="10.630131117831716"><ele>10.0</ele><time>2026-04-19T08:38:53Z</time></trkpt><trkpt lat="43.005596089287394" lon="10.630327629408855"><ele>10.0</ele><time>2026-04-19T08:38:54Z</time></trkpt><trkpt lat="43.00544108303032" lon="10.630517386445872"><ele>10.0</ele><time>2026-04-19T08:38:55Z</time></trkpt><trkpt lat="43.005290043584104" lon="10.630704951097927"><ele>10.0</ele><time>2026-04-19T08:38:56Z</time></trkpt><trkpt lat="43.0051488558156" lon="10.630881218495604"><ele>10.0</ele><time>2026-04-19T08:38:57Z</time></trkpt><trkpt lat="43.005018619192015" lon="10.631042837666795"><ele>10.333333333333334</ele><time>2026-04-19T08:38:58Z</time></trkpt><trkpt lat="43.00489798826805" lon="10.631190823234883"><ele>10.666666666666666</ele><time>2026-04-19T08:38:59Z</time></trkpt><trkpt lat="43.00478005967739" lon="10.63133451468568"><ele>11.0</ele><time>2026-04-19T08:39:00Z</time></trkpt><trkpt lat="43.004675146842544" lon="10.63146143332705"><ele>11.0</ele><time>2026-04-19T08:39:01Z</time></trkpt><trkpt lat="43.004582386405964" lon="10.631574016013376"><ele>11.0</ele><time>2026-04-19T08:39:02Z</time></trkpt><trkpt lat="43.004501573494515" lon="10.631677610677654"><ele>11.0</ele><time>2026-04-19T08:39:03Z</time></trkpt><trkpt lat="43.00442983652802" lon="10.631764252180346"><ele>11.0</ele><time>2026-04-19T08:39:04Z</time></trkpt><trkpt lat="43.004380042350604" lon="10.631835021712181"><ele>11.0</ele><time>2026-04-19T08:39:05Z</time></trkpt><trkpt lat="43.00436795979134" lon="10.631921062753197"><ele>11.200000000000001</ele><time>2026-04-19T08:39:06Z</time></trkpt><trkpt lat="43.0043972966004" lon="10.632027025299756"><ele>11.4</ele><time>2026-04-19T08:39:07Z</time></trkpt><trkpt lat="43.00445039390701" lon="10.63214133543827"><ele>11.6</ele><time>2026-04-19T08:39:08Z</time></trkpt><trkpt lat="43.004502386041914" lon="10.632287057067394"><ele>11.8</ele><time>2026-04-19T08:39:09Z</time></trkpt><trkpt lat="43.004556741106434" lon="10.632470317818326"><ele>12.0</ele><time>2026-04-19T08:39:10Z</time></trkpt><trkpt lat="43.00461027685198" lon="10.632657277654875"><ele>11.0</ele><time>2026-04-19T08:39:11Z</time></trkpt><trkpt lat="43.00466782584075" lon="10.632853785219103"><ele>10.0</ele><time>2026-04-19T08:39:12Z</time></trkpt><trkpt lat="43.004734561951004" lon="10.633073888393962"><ele>9.0</ele><time>2026-04-19T08:39:13Z</time></trkpt><trkpt lat="43.004807740504404" lon="10.633333745770784"><ele>9.0</ele><time>2026-04-19T08:39:14Z</time></trkpt><trkpt lat="43.00488603700804" lon="10.633609761344095"><ele>9.0</ele><time>2026-04-19T08:39:15Z</time></trkpt><trkpt lat="43.00496498994721" lon="10.633890897572366"><ele>9.0</ele><time>2026-04-19T08:39:16Z</time></trkpt><trkpt lat="43.00505071122147" lon="10.634184358221392"><ele>9.5</ele><time>2026-04-19T08:39:17Z</time></trkpt><trkpt lat="43.00514302287866" lon="10.634490895254544"><ele>10.0</ele><time>2026-04-19T08:39:18Z</time></trkpt><trkpt lat="43.005234596696425" lon="10.634798571293164"><ele>10.0</ele><time>2026-04-19T08:39:19Z</time></trkpt><trkpt lat="43.0053310058594" lon="10.635120752257247"><ele>10.0</ele><time>2026-04-19T08:39:20Z</time></trkpt><trkpt lat="43.005427933361645" lon="10.635448381820375"><ele>9.5</ele><time>2026-04-19T08:39:21Z</time></trkpt><trkpt lat="43.005525738542744" lon="10.63578848039957"><ele>9.0</ele><time>2026-04-19T08:39:22Z</time></trkpt><trkpt lat="43.0056212623149" lon="10.636120369356089"><ele>9.0</ele><time>2026-04-19T08:39:23Z</time></trkpt><trkpt lat="43.00571793252009" lon="10.636452377195955"><ele>9.0</ele><time>2026-04-19T08:39:24Z</time></trkpt><trkpt lat="43.00581336630666" lon="10.636780238262636"><ele>10.5</ele><time>2026-04-19T08:39:25Z</time></trkpt><trkpt lat="43.005909709432295" lon="10.63711127544145"><ele>12.0</ele><time>2026-04-19T08:39:26Z</time></trkpt><trkpt lat="43.00600698401548" lon="10.637445267926129"><ele>12.0</ele><time>2026-04-19T08:39:27Z</time></trkpt><trkpt lat="43.0061033858711" lon="10.63777714663404"><ele>12.0</ele><time>2026-04-19T08:39:28Z</time></trkpt><trkpt lat="43.00619918696268" lon="10.638110998510747"><ele>11.5</ele><time>2026-04-19T08:39:29Z</time></trkpt><trkpt lat="43.00629510527153" lon="10.6384493700701"><ele>11.0</ele><time>2026-04-19T08:39:30Z</time></trkpt><trkpt lat="43.00639103142093" lon="10.638785190209934"><ele>11.0</ele><time>2026-04-19T08:39:31Z</time></trkpt><trkpt lat="43.00648965941983" lon="10.63912352017706"><ele>11.0</ele><time>2026-04-19T08:39:32Z</time></trkpt><trkpt lat="43.00659040955314" lon="10.63946335421236"><ele>11.0</ele><time>2026-04-19T08:39:33Z</time></trkpt><trkpt lat="43.00668585241602" lon="10.639794154187442"><ele>11.0</ele><time>2026-04-19T08:39:34Z</time></trkpt><trkpt lat="43.00678054912047" lon="10.640124415185932"><ele>11.0</ele><time>2026-04-19T08:39:35Z</time></trkpt><trkpt lat="43.00687468050329" lon="10.640448017234009"><ele>11.0</ele><time>2026-04-19T08:39:36Z</time></trkpt><trkpt lat="43.006971546937216" lon="10.64077649302668"><ele>11.0</ele><time>2026-04-19T08:39:37Z</time></trkpt><trkpt lat="43.007068132261" lon="10.641111344218729"><ele>11.0</ele><time>2026-04-19T08:39:38Z</time></trkpt><trkpt lat="43.00716633964762" lon="10.641450997285716"><ele>11.0</ele><time>2026-04-19T08:39:39Z</time></trkpt><trkpt lat="43.0072638583126" lon="10.641789284148452"><ele>11.0</ele><time>2026-04-19T08:39:40Z</time></trkpt><trkpt lat="43.00736119464701" lon="10.642130533387435"><ele>11.0</ele><time>2026-04-19T08:39:41Z</time></trkpt><trkpt lat="43.00745524607108" lon="10.642462655264737"><ele>11.0</ele><time>2026-04-19T08:39:42Z</time></trkpt><trkpt lat="43.00755088146707" lon="10.64279527064511"><ele>11.0</ele><time>2026-04-19T08:39:43Z</time></trkpt><trkpt lat="43.00764383024707" lon="10.643115912967447"><ele>11.0</ele><time>2026-04-19T08:39:44Z</time></trkpt><trkpt lat="43.007738330265816" lon="10.643439298439807"><ele>11.0</ele><time>2026-04-19T08:39:45Z</time></trkpt><trkpt lat="43.00783290488023" lon="10.64376434816127"><ele>11.0</ele><time>2026-04-19T08:39:46Z</time></trkpt><trkpt lat="43.00792637125014" lon="10.644087792801926"><ele>11.0</ele><time>2026-04-19T08:39:47Z</time></trkpt><trkpt lat="43.008017833626845" lon="10.644409692193046"><ele>11.0</ele><time>2026-04-19T08:39:48Z</time></trkpt><trkpt lat="43.008110306870044" lon="10.64473406665155"><ele>11.5</ele><time>2026-04-19T08:39:49Z</time></trkpt><trkpt lat="43.00820719385222" lon="10.645057217364288"><ele>12.0</ele><time>2026-04-19T08:39:50Z</time></trkpt><trkpt lat="43.008317576897454" lon="10.645363028561093"><ele>11.0</ele><time>2026-04-19T08:39:51Z</time></trkpt><trkpt lat="43.008455214035614" lon="10.645670728086994"><ele>10.0</ele><time>2026-04-19T08:39:52Z</time></trkpt><trkpt lat="43.00860520326037" lon="10.645968595134423"><ele>10.5</ele><time>2026-04-19T08:39:53Z</time></trkpt><trkpt lat="43.008754330403" lon="10.646264841556565"><ele>11.0</ele><time>2026-04-19T08:39:54Z</time></trkpt><trkpt lat="43.00890213397486" lon="10.646559262786633"><ele>11.0</ele><time>2026-04-19T08:39:55Z</time></trkpt><trkpt lat="43.00905420084213" lon="10.646869227059033"><ele>11.0</ele><time>2026-04-19T08:39:56Z</time></trkpt><trkpt lat="43.009205077348675" lon="10.64716759042986"><ele>11.0</ele><time>2026-04-19T08:39:57Z</time></trkpt><trkpt lat="43.009354707191086" lon="10.647474777825648"><ele>11.0</ele><time>2026-04-19T08:39:58Z</time></trkpt><trkpt lat="43.009503363665985" lon="10.647779714655327"><ele>11.0</ele><time>2026-04-19T08:39:59Z</time></trkpt><trkpt lat="43.00965322791745" lon="10.648085603878581"><ele>11.0</ele><time>2026-04-19T08:40:00Z</time></trkpt><trkpt lat="43.00980554273935" lon="10.64839108055122"><ele>11.5</ele><time>2026-04-19T08:40:01Z</time></trkpt><trkpt lat="43.00995847266349" lon="10.648695067136345"><ele>12.0</ele><time>2026-04-19T08:40:02Z</time></trkpt><trkpt lat="43.010111168384434" lon="10.649003021166477"><ele>12.0</ele><time>2026-04-19T08:40:03Z</time></trkpt><trkpt lat="43.01026612356744" lon="10.649312566413258"><ele>12.0</ele><time>2026-04-19T08:40:04Z</time></trkpt><trkpt lat="43.01042045585177" lon="10.649617389394988"><ele>12.5</ele><time>2026-04-19T08:40:05Z</time></trkpt><trkpt lat="43.01057439779092" lon="10.64992282896227"><ele>13.0</ele><time>2026-04-19T08:40:06Z</time></trkpt><trkpt lat="43.01072649712754" lon="10.650231754495657"><ele>13.0</ele><time>2026-04-19T08:40:07Z</time></trkpt><trkpt lat="43.010876566732975" lon="10.650535133835307"><ele>13.0</ele><time>2026-04-19T08:40:08Z</time></trkpt><trkpt lat="43.01101933040734" lon="10.650823953204418"><ele>13.0</ele><time>2026-04-19T08:40:09Z</time></trkpt><trkpt lat="43.01115382305378" lon="10.651094143578195"><ele>13.0</ele><time>2026-04-19T08:40:10Z</time></trkpt><trkpt lat="43.011282129692944" lon="10.651355063009792"><ele>13.0</ele><time>2026-04-19T08:40:11Z</time></trkpt><trkpt lat="43.01140769202663" lon="10.651608744408502"><ele>13.0</ele><time>2026-04-19T08:40:12Z</time></trkpt><trkpt lat="43.011532205599345" lon="10.651856802150217"><ele>13.0</ele><time>2026-04-19T08:40:13Z</time></trkpt><trkpt lat="43.01164889712634" lon="10.652088914717686"><ele>12.666666666666666</ele><time>2026-04-19T08:40:14Z</time></trkpt><trkpt lat="43.01176064171694" lon="10.652312079116067"><ele>12.333333333333332</ele><time>2026-04-19T08:40:15Z</time></trkpt><trkpt lat="43.01186728236564" lon="10.652527146763553"><ele>12.0</ele><time>2026-04-19T08:40:16Z</time></trkpt><trkpt lat="43.0119690444132" lon="10.652737405160948"><ele>12.666666666666668</ele><time>2026-04-19T08:40:17Z</time></trkpt><trkpt lat="43.01206587091205" lon="10.652934507809041"><ele>13.333333333333334</ele><time>2026-04-19T08:40:18Z</time></trkpt><trkpt lat="43.01216142201263" lon="10.65312285530302"><ele>14.0</ele><time>2026-04-19T08:40:19Z</time></trkpt><trkpt lat="43.0122535168341" lon="10.653300099871885"><ele>14.0</ele><time>2026-04-19T08:40:20Z</time></trkpt><trkpt lat="43.01234260729701" lon="10.653477043511224"><ele>14.0</ele><time>2026-04-19T08:40:21Z</time></trkpt><trkpt lat="43.01243041427394" lon="10.653656521513508"><ele>14.0</ele><time>2026-04-19T08:40:22Z</time></trkpt><trkpt lat="43.012517109653146" lon="10.653850534231827"><ele>14.0</ele><time>2026-04-19T08:40:23Z</time></trkpt><trkpt lat="43.012595747515924" lon="10.65406609678166"><ele>14.0</ele><time>2026-04-19T08:40:24Z</time></trkpt><trkpt lat="43.01267278845485" lon="10.654297394870618"><ele>14.0</ele><time>2026-04-19T08:40:25Z</time></trkpt><trkpt lat="43.01275308092721" lon="10.654530764319714"><ele>14.0</ele><time>2026-04-19T08:40:26Z</time></trkpt><trkpt lat="43.012835070926194" lon="10.654778735545836"><ele>14.0</ele><time>2026-04-19T08:40:27Z</time></trkpt><trkpt lat="43.012911554294845" lon="10.655034605916988"><ele>14.0</ele><time>2026-04-19T08:40:28Z</time></trkpt><trkpt lat="43.0129893126132" lon="10.655305896078684"><ele>14.0</ele><time>2026-04-19T08:40:29Z</time></trkpt><trkpt lat="43.01307761582736" lon="10.6556042906863"><ele>14.0</ele><time>2026-04-19T08:40:30Z</time></trkpt><trkpt lat="43.01317200215352" lon="10.65591329817167"><ele>13.5</ele><time>2026-04-19T08:40:31Z</time></trkpt><trkpt lat="43.01326783187438" lon="10.656234395298165"><ele>13.0</ele><time>2026-04-19T08:40:32Z</time></trkpt><trkpt lat="43.01336402659902" lon="10.656542763095432"><ele>14.0</ele><time>2026-04-19T08:40:33Z</time></trkpt><trkpt lat="43.01345977273147" lon="10.656853178416336"><ele>15.0</ele><time>2026-04-19T08:40:34Z</time></trkpt><trkpt lat="43.013551805090664" lon="10.657153006311976"><ele>15.0</ele><time>2026-04-19T08:40:35Z</time></trkpt><trkpt lat="43.01364284751876" lon="10.657450645811002"><ele>15.0</ele><time>2026-04-19T08:40:36Z</time></trkpt><trkpt lat="43.01373411017409" lon="10.657752303515059"><ele>15.0</ele><time>2026-04-19T08:40:37Z</time></trkpt><trkpt lat="43.013822842481645" lon="10.658048623130387"><ele>15.0</ele><time>2026-04-19T08:40:38Z</time></trkpt><trkpt lat="43.01391410642626" lon="10.65835049822925"><ele>15.0</ele><time>2026-04-19T08:40:39Z</time></trkpt><trkpt lat="43.01400730628102" lon="10.658646716307707"><ele>15.0</ele><time>2026-04-19T08:40:40Z</time></trkpt><trkpt lat="43.01409823648565" lon="10.658945074785679"><ele>14.5</ele><time>2026-04-19T08:40:41Z</time></trkpt><trkpt lat="43.014188100855854" lon="10.659238524033693"><ele>14.0</ele><time>2026-04-19T08:40:42Z</time></trkpt><trkpt lat="43.014277567414226" lon="10.659533931781189"><ele>14.0</ele><time>2026-04-19T08:40:43Z</time></trkpt><trkpt lat="43.01436634975851" lon="10.659828586778717"><ele>14.0</ele><time>2026-04-19T08:40:44Z</time></trkpt><trkpt lat="43.01445488879043" lon="10.660115852084104"><ele>13.5</ele><time>2026-04-19T08:40:45Z</time></trkpt><trkpt lat="43.0145440644284" lon="10.660409056288646"><ele>13.0</ele><time>2026-04-19T08:40:46Z</time></trkpt><trkpt lat="43.01463261733609" lon="10.660698788229979"><ele>13.0</ele><time>2026-04-19T08:40:47Z</time></trkpt><trkpt lat="43.014723991920974" lon="10.661008018475663"><ele>13.0</ele><time>2026-04-19T08:40:48Z</time></trkpt><trkpt lat="43.01481405443999" lon="10.66130515475696"><ele>13.5</ele><time>2026-04-19T08:40:49Z</time></trkpt><trkpt lat="43.01490548152467" lon="10.661610978552414"><ele>14.0</ele><time>2026-04-19T08:40:50Z</time></trkpt><trkpt lat="43.01499726221272" lon="10.661916614358569"><ele>15.0</ele><time>2026-04-19T08:40:51Z</time></trkpt><trkpt lat="43.015089665424554" lon="10.662217686594126"><ele>16.0</ele><time>2026-04-19T08:40:52Z</time></trkpt><trkpt lat="43.01518379395286" lon="10.66252819807365"><ele>16.0</ele><time>2026-04-19T08:40:53Z</time></trkpt><trkpt lat="43.01527766915981" lon="10.662834387253898"><ele>16.0</ele><time>2026-04-19T08:40:54Z</time></trkpt><trkpt lat="43.01537061511031" lon="10.663139023190885"><ele>16.0</ele><time>2026-04-19T08:40:55Z</time></trkpt><trkpt lat="43.01546499582434" lon="10.663449802925483"><ele>16.0</ele><time>2026-04-19T08:40:56Z</time></trkpt><trkpt lat="43.015558602135314" lon="10.663755974745648"><ele>15.5</ele><time>2026-04-19T08:40:57Z</time></trkpt><trkpt lat="43.01565000748015" lon="10.664066029160658"><ele>15.0</ele><time>2026-04-19T08:40:58Z</time></trkpt><trkpt lat="43.015743296569326" lon="10.66437843688821"><ele>15.0</ele><time>2026-04-19T08:40:59Z</time></trkpt><trkpt lat="43.0158377460943" lon="10.664688555427157"><ele>15.0</ele><time>2026-04-19T08:41:00Z</time></trkpt><trkpt lat="43.01593298483006" lon="10.664997941259678"><ele>15.5</ele><time>2026-04-19T08:41:01Z</time></trkpt><trkpt lat="43.01602933126177" lon="10.66531756153442"><ele>16.0</ele><time>2026-04-19T08:41:02Z</time></trkpt><trkpt lat="43.01612532957017" lon="10.665637786599737"><ele>16.0</ele><time>2026-04-19T08:41:03Z</time></trkpt><trkpt lat="43.01622098518353" lon="10.665957642987614"><ele>16.0</ele><time>2026-04-19T08:41:04Z</time></trkpt><trkpt lat="43.0163177919971" lon="10.666280602821837"><ele>16.0</ele><time>2026-04-19T08:41:05Z</time></trkpt><trkpt lat="43.016413679642106" lon="10.666601077907467"><ele>16.0</ele><time>2026-04-19T08:41:06Z</time></trkpt><trkpt lat="43.01650931082062" lon="10.666917315259099"><ele>16.0</ele><time>2026-04-19T08:41:07Z</time></trkpt><trkpt lat="43.016604676223245" lon="10.667229934704261"><ele>16.0</ele><time>2026-04-19T08:41:08Z</time></trkpt><trkpt lat="43.01669984300007" lon="10.667543050567973"><ele>16.0</ele><time>2026-04-19T08:41:09Z</time></trkpt><trkpt lat="43.01679478233868" lon="10.667857213735346"><ele>16.0</ele><time>2026-04-19T08:41:10Z</time></trkpt><trkpt lat="43.016889984437036" lon="10.668176117637161"><ele>16.0</ele><time>2026-04-19T08:41:11Z</time></trkpt><trkpt lat="43.01698560201645" lon="10.668492029291757"><ele>16.0</ele><time>2026-04-19T08:41:12Z</time></trkpt><trkpt lat="43.017081516400715" lon="10.66880872688463"><ele>16.0</ele><time>2026-04-19T08:41:13Z</time></trkpt><trkpt lat="43.01717915269678" lon="10.669130104445232"><ele>16.0</ele><time>2026-04-19T08:41:14Z</time></trkpt><trkpt lat="43.01727589773384" lon="10.669452726149263"><ele>16.5</ele><time>2026-04-19T08:41:15Z</time></trkpt><trkpt lat="43.01737108168604" lon="10.669761955469967"><ele>17.0</ele><time>2026-04-19T08:41:16Z</time></trkpt><trkpt lat="43.017466386538" lon="10.670074943235955"><ele>16.5</ele><time>2026-04-19T08:41:17Z</time></trkpt><trkpt lat="43.01756156560478" lon="10.670387241006809"><ele>16.0</ele><time>2026-04-19T08:41:18Z</time></trkpt><trkpt lat="43.01765593560438" lon="10.670698162356805"><ele>16.0</ele><time>2026-04-19T08:41:19Z</time></trkpt><trkpt lat="43.01774868850569" lon="10.671001296113278"><ele>16.0</ele><time>2026-04-19T08:41:20Z</time></trkpt><trkpt lat="43.0178385503484" lon="10.671298952977462"><ele>16.5</ele><time>2026-04-19T08:41:21Z</time></trkpt><trkpt lat="43.01792566726383" lon="10.671591616758015"><ele>17.0</ele><time>2026-04-19T08:41:22Z</time></trkpt><trkpt lat="43.01801314895396" lon="10.671885152791235"><ele>17.0</ele><time>2026-04-19T08:41:23Z</time></trkpt><trkpt lat="43.0181039546355" lon="10.672182151431699"><ele>17.0</ele><time>2026-04-19T08:41:24Z</time></trkpt><trkpt lat="43.01819542426531" lon="10.672480208014369"><ele>17.5</ele><time>2026-04-19T08:41:25Z</time></trkpt><trkpt lat="43.0182856345841" lon="10.672778361269389"><ele>18.0</ele><time>2026-04-19T08:41:26Z</time></trkpt><trkpt lat="43.01837434972927" lon="10.673074453060597"><ele>18.0</ele><time>2026-04-19T08:41:27Z</time></trkpt><trkpt lat="43.018456990669655" lon="10.673351170057986"><ele>18.0</ele><time>2026-04-19T08:41:28Z</time></trkpt><trkpt lat="43.01853927804267" lon="10.67362328989057"><ele>18.0</ele><time>2026-04-19T08:41:29Z</time></trkpt><trkpt lat="43.01862042749477" lon="10.673895577017142"><ele>18.0</ele><time>2026-04-19T08:41:30Z</time></trkpt><trkpt lat="43.01869747130576" lon="10.674157208374451"><ele>18.0</ele><time>2026-04-19T08:41:31Z</time></trkpt><trkpt lat="43.01877180839571" lon="10.674408760063313"><ele>18.0</ele><time>2026-04-19T08:41:32Z</time></trkpt><trkpt lat="43.01883423358075" lon="10.674618442166121"><ele>18.0</ele><time>2026-04-19T08:41:33Z</time></trkpt><trkpt lat="43.0188919668608" lon="10.67479496979161"><ele>18.0</ele><time>2026-04-19T08:41:34Z</time></trkpt><trkpt lat="43.01894961222067" lon="10.674925448018115"><ele>18.0</ele><time>2026-04-19T08:41:35Z</time></trkpt><trkpt lat="43.01903190515616" lon="10.675018866506244"><ele>18.0</ele><time>2026-04-19T08:41:36Z</time></trkpt><trkpt lat="43.019143123544545" lon="10.67507748550053"><ele>18.333333333333332</ele><time>2026-04-19T08:41:37Z</time></trkpt><trkpt lat="43.01927807541539" lon="10.675101687463469"><ele>18.666666666666664</ele><time>2026-04-19T08:41:38Z</time></trkpt><trkpt lat="43.01943423087258" lon="10.675097884894889"><ele>19.0</ele><time>2026-04-19T08:41:39Z</time></trkpt><trkpt lat="43.019599929002354" lon="10.675087586193559"><ele>19.0</ele><time>2026-04-19T08:41:40Z</time></trkpt><trkpt lat="43.01978462411143" lon="10.675096207506055"><ele>19.0</ele><time>2026-04-19T08:41:41Z</time></trkpt><trkpt lat="43.019988632443955" lon="10.675109787251092"><ele>19.0</ele><time>2026-04-19T08:41:42Z</time></trkpt><trkpt lat="43.02019584302717" lon="10.675126805575088"><ele>19.0</ele><time>2026-04-19T08:41:43Z</time></trkpt><trkpt lat="43.02040908043427" lon="10.675144383324684"><ele>19.0</ele><time>2026-04-19T08:41:44Z</time></trkpt><trkpt lat="43.020639274291725" lon="10.675160615866883"><ele>19.0</ele><time>2026-04-19T08:41:45Z</time></trkpt><trkpt lat="43.02086598347497" lon="10.67517356159771"><ele>18.5</ele><time>2026-04-19T08:41:46Z</time></trkpt><trkpt lat="43.0210968626955" lon="10.67518871040258"><ele>18.0</ele><time>2026-04-19T08:41:47Z</time></trkpt><trkpt lat="43.02133030844558" lon="10.675199635082237"><ele>18.0</ele><time>2026-04-19T08:41:48Z</time></trkpt><trkpt lat="43.02157285414799" lon="10.675211937572444"><ele>18.0</ele><time>2026-04-19T08:41:49Z</time></trkpt><trkpt lat="43.0218143776383" lon="10.675224922444219"><ele>18.0</ele><time>2026-04-19T08:41:50Z</time></trkpt><trkpt lat="43.02206471553964" lon="10.67524345351897"><ele>18.0</ele><time>2026-04-19T08:41:51Z</time></trkpt><trkpt lat="43.02229844839315" lon="10.675258794622133"><ele>18.333333333333332</ele><time>2026-04-19T08:41:52Z</time></trkpt><trkpt lat="43.02251425524738" lon="10.675271189069795"><ele>18.666666666666664</ele><time>2026-04-19T08:41:53Z</time></trkpt><trkpt lat="43.022726237146074" lon="10.675281813526729"><ele>19.0</ele><time>2026-04-19T08:41:54.001Z</time></trkpt><trkpt lat="43.022939881731034" lon="10.675290788532847"><ele>19.0</ele><time>2026-04-19T08:41:55.001Z</time></trkpt><trkpt lat="43.02313670760612" lon="10.675301419434579"><ele>19.0</ele><time>2026-04-19T08:41:56.001Z</time></trkpt><trkpt lat="43.02331937762482" lon="10.675307016952695"><ele>19.0</ele><time>2026-04-19T08:41:57.001Z</time></trkpt><trkpt lat="43.023486762516995" lon="10.675312154278327"><ele>18.333333333333332</ele><time>2026-04-19T08:41:58.001Z</time></trkpt><trkpt lat="43.023644458330004" lon="10.67533889545027"><ele>17.666666666666668</ele><time>2026-04-19T08:41:59.001Z</time></trkpt><trkpt lat="43.023789248025004" lon="10.675420440917552"><ele>17.0</ele><time>2026-04-19T08:42:00.001Z</time></trkpt><trkpt lat="43.02391957984283" lon="10.67555693487207"><ele>17.0</ele><time>2026-04-19T08:42:01Z</time></trkpt><trkpt lat="43.02400991366576" lon="10.675755003572895"><ele>17.0</ele><time>2026-04-19T08:42:02Z</time></trkpt><trkpt lat="43.024059114769564" lon="10.676003758636188"><ele>17.0</ele><time>2026-04-19T08:42:03Z</time></trkpt><trkpt lat="43.02408528120873" lon="10.6762841414736"><ele>17.0</ele><time>2026-04-19T08:42:04Z</time></trkpt><trkpt lat="43.02411975725635" lon="10.676589984417259"><ele>17.0</ele><time>2026-04-19T08:42:05Z</time></trkpt><trkpt lat="43.02417568385464" lon="10.676913835960258"><ele>18.5</ele><time>2026-04-19T08:42:06Z</time></trkpt><trkpt lat="43.02423701638518" lon="10.677236166346054"><ele>20.0</ele><time>2026-04-19T08:42:07Z</time></trkpt><trkpt lat="43.02429468636917" lon="10.677572806463864"><ele>20.0</ele><time>2026-04-19T08:42:08Z</time></trkpt><trkpt lat="43.02435031194696" lon="10.677883376976975"><ele>20.0</ele><time>2026-04-19T08:42:09Z</time></trkpt><trkpt lat="43.02440685002952" lon="10.67819286162026"><ele>20.0</ele><time>2026-04-19T08:42:10Z</time></trkpt><trkpt lat="43.02446481120707" lon="10.678493502022459"><ele>20.0</ele><time>2026-04-19T08:42:11Z</time></trkpt><trkpt lat="43.02453180338867" lon="10.67879224801396"><ele>20.666666666666668</ele><time>2026-04-19T08:42:12Z</time></trkpt><trkpt lat="43.02459723513067" lon="10.67908784505182"><ele>21.333333333333332</ele><time>2026-04-19T08:42:13Z</time></trkpt><trkpt lat="43.02464685606641" lon="10.67938149803306"><ele>22.0</ele><time>2026-04-19T08:42:14Z</time></trkpt><trkpt lat="43.02469125630555" lon="10.67965143620412"><ele>23.0</ele><time>2026-04-19T08:42:15Z</time></trkpt><trkpt lat="43.02473320504198" lon="10.67989444197735"><ele>24.0</ele><time>2026-04-19T08:42:16Z</time></trkpt><trkpt lat="43.02474593560513" lon="10.680133594030226"><ele>25.0</ele><time>2026-04-19T08:42:17Z</time></trkpt><trkpt lat="43.02470383956771" lon="10.680384578732873"><ele>26.0</ele><time>2026-04-19T08:42:18Z</time></trkpt><trkpt lat="43.02460719185496" lon="10.680627312243859"><ele>27.0</ele><time>2026-04-19T08:42:19Z</time></trkpt><trkpt lat="43.02446087199336" lon="10.680853144823818"><ele>28.0</ele><time>2026-04-19T08:42:20Z</time></trkpt><trkpt lat="43.02431918468531" lon="10.68108487069483"><ele>27.333333333333336</ele><time>2026-04-19T08:42:21Z</time></trkpt><trkpt lat="43.02418948647807" lon="10.681314927918013"><ele>26.666666666666664</ele><time>2026-04-19T08:42:22Z</time></trkpt><trkpt lat="43.02406056228924" lon="10.681551145973776"><ele>26.0</ele><time>2026-04-19T08:42:23Z</time></trkpt><trkpt lat="43.02393263848751" lon="10.681784113957216"><ele>27.0</ele><time>2026-04-19T08:42:24Z</time></trkpt><trkpt lat="43.02380980568731" lon="10.68200460939538"><ele>28.0</ele><time>2026-04-19T08:42:25Z</time></trkpt><trkpt lat="43.02368933945407" lon="10.682225178244826"><ele>29.0</ele><time>2026-04-19T08:42:26Z</time></trkpt><trkpt lat="43.023571031874475" lon="10.682445781013945"><ele>29.0</ele><time>2026-04-19T08:42:27Z</time></trkpt><trkpt lat="43.02345332289204" lon="10.682665751346976"><ele>29.0</ele><time>2026-04-19T08:42:28Z</time></trkpt><trkpt lat="43.023341577350536" lon="10.682879380870652"><ele>29.0</ele><time>2026-04-19T08:42:29Z</time></trkpt><trkpt lat="43.02323555001492" lon="10.683076146423591"><ele>29.333333333333332</ele><time>2026-04-19T08:42:30Z</time></trkpt><trkpt lat="43.02315593029027" lon="10.683286715734337"><ele>29.666666666666664</ele><time>2026-04-19T08:42:31Z</time></trkpt><trkpt lat="43.02308643729193" lon="10.683495118756955"><ele>30.0</ele><time>2026-04-19T08:42:32Z</time></trkpt><trkpt lat="43.023029624348744" lon="10.68370784545665"><ele>32.666666666666664</ele><time>2026-04-19T08:42:33Z</time></trkpt><trkpt lat="43.022982169054224" lon="10.683915398374625"><ele>35.33333333333333</ele><time>2026-04-19T08:42:34Z</time></trkpt><trkpt lat="43.022943158298276" lon="10.684130528496523"><ele>38.0</ele><time>2026-04-19T08:42:35Z</time></trkpt><trkpt lat="43.02290483281558" lon="10.68434810242186"><ele>38.75</ele><time>2026-04-19T08:42:36Z</time></trkpt><trkpt lat="43.022864147687805" lon="10.684557381396377"><ele>39.5</ele><time>2026-04-19T08:42:37Z</time></trkpt><trkpt lat="43.02282820998099" lon="10.684757899910503"><ele>40.25</ele><time>2026-04-19T08:42:38Z</time></trkpt><trkpt lat="43.022797269557024" lon="10.684923314021509"><ele>41.0</ele><time>2026-04-19T08:42:39Z</time></trkpt><trkpt lat="43.022776524160356" lon="10.685054342039695"><ele>41.0</ele><time>2026-04-19T08:42:40Z</time></trkpt><trkpt lat="43.02275738112943" lon="10.685164720743677"><ele>41.0</ele><time>2026-04-19T08:42:41Z</time></trkpt><trkpt lat="43.02272225596291" lon="10.685307259261169"><ele>41.0</ele><time>2026-04-19T08:42:43Z</time></trkpt><trkpt lat="43.02286725819451" lon="10.685444939414765"><ele>41.0</ele><time>2026-04-19T08:42:46Z</time></trkpt><trkpt lat="43.022936584988614" lon="10.685500575261496"><ele>40.0</ele><time>2026-04-19T08:42:47Z</time></trkpt><trkpt lat="43.02301203604671" lon="10.685566060814669"><ele>39.0</ele><time>2026-04-19T08:42:48Z</time></trkpt><trkpt lat="43.02308218288999" lon="10.685623211512338"><ele>38.0</ele><time>2026-04-19T08:42:49Z</time></trkpt><trkpt lat="43.02315042711106" lon="10.685678035702772"><ele>37.0</ele><time>2026-04-19T08:42:50Z</time></trkpt><trkpt lat="43.0232091265704" lon="10.685724192563455"><ele>36.0</ele><time>2026-04-19T08:42:51Z</time></trkpt><trkpt lat="43.02325381937918" lon="10.685789118801175"><ele>35.0</ele><time>2026-04-19T08:42:52Z</time></trkpt><trkpt lat="43.023342278724314" lon="10.685865680388332"><ele>32.75</ele><time>2026-04-19T08:42:54Z</time></trkpt><trkpt lat="43.02347678652425" lon="10.68572172260054"><ele>30.5</ele><time>2026-04-19T08:42:55Z</time></trkpt><trkpt lat="43.023525576678786" lon="10.685647127619898"><ele>28.25</ele><time>2026-04-19T08:42:56Z</time></trkpt><trkpt lat="43.02357037698079" lon="10.68552268462165"><ele>26.0</ele><time>2026-04-19T08:42:57Z</time></trkpt><trkpt lat="43.023645505845984" lon="10.685385801198443"><ele>26.666666666666664</ele><time>2026-04-19T08:42:58Z</time></trkpt><trkpt lat="43.023733284829255" lon="10.685222493046524"><ele>27.333333333333336</ele><time>2026-04-19T08:42:59Z</time></trkpt><trkpt lat="43.023822899675935" lon="10.685030961411979"><ele>28.0</ele><time>2026-04-19T08:43:00Z</time></trkpt><trkpt lat="43.02392695327151" lon="10.684869996718517"><ele>28.0</ele><time>2026-04-19T08:43:01Z</time></trkpt><trkpt lat="43.02401298838103" lon="10.684705675546951"><ele>28.0</ele><time>2026-04-19T08:43:02Z</time></trkpt><trkpt lat="43.024084937877724" lon="10.684529628254811"><ele>28.0</ele><time>2026-04-19T08:43:03Z</time></trkpt><trkpt lat="43.02416543046883" lon="10.684379844380603"><ele>28.0</ele><time>2026-04-19T08:43:04Z</time></trkpt><trkpt lat="43.024250138035534" lon="10.68425968366539"><ele>27.4</ele><time>2026-04-19T08:43:05Z</time></trkpt><trkpt lat="43.02432145433451" lon="10.684124349952226"><ele>26.799999999999997</ele><time>2026-04-19T08:43:06Z</time></trkpt><trkpt lat="43.02438701074164" lon="10.683985428690242"><ele>26.2</ele><time>2026-04-19T08:43:07Z</time></trkpt><trkpt lat="43.024436681100205" lon="10.683847843764205"><ele>25.6</ele><time>2026-04-19T08:43:08Z</time></trkpt><trkpt lat="43.02447230492107" lon="10.68374521191512"><ele>25.0</ele><time>2026-04-19T08:43:09Z</time></trkpt><trkpt lat="43.024485997522994" lon="10.6836512633803"><ele>25.833333333333336</ele><time>2026-04-19T08:43:10Z</time></trkpt><trkpt lat="43.024528329833295" lon="10.683557714474642"><ele>26.666666666666668</ele><time>2026-04-19T08:43:11Z</time></trkpt><trkpt lat="43.02458001477982" lon="10.683469009110778"><ele>27.5</ele><time>2026-04-19T08:43:12Z</time></trkpt><trkpt lat="43.024638819418556" lon="10.683396408600535"><ele>28.333333333333336</ele><time>2026-04-19T08:43:13Z</time></trkpt><trkpt lat="43.02471552810983" lon="10.68337214086389"><ele>29.166666666666668</ele><time>2026-04-19T08:43:14Z</time></trkpt><trkpt lat="43.02477997348258" lon="10.683305312840119"><ele>30.0</ele><time>2026-04-19T08:43:15Z</time></trkpt><trkpt lat="43.02482528198458" lon="10.683196142978815"><ele>30.0</ele><time>2026-04-19T08:43:16Z</time></trkpt><trkpt lat="43.02486979761044" lon="10.683087831400028"><ele>30.0</ele><time>2026-04-19T08:43:17Z</time></trkpt><trkpt lat="43.024908375335805" lon="10.68299285276504"><ele>30.0</ele><time>2026-04-19T08:43:18Z</time></trkpt><trkpt lat="43.02496413709801" lon="10.682870092007354"><ele>30.0</ele><time>2026-04-19T08:43:20Z</time></trkpt><trkpt lat="43.02506915187653" lon="10.682892035986322"><ele>30.0</ele><time>2026-04-19T08:43:22Z</time></trkpt><trkpt lat="43.02512395956904" lon="10.682973639797034"><ele>28.25</ele><time>2026-04-19T08:43:23Z</time></trkpt><trkpt lat="43.02522820216973" lon="10.683078461116967"><ele>26.5</ele><time>2026-04-19T08:43:24Z</time></trkpt><trkpt lat="43.02535276013613" lon="10.68318401364111"><ele>24.75</ele><time>2026-04-19T08:43:25Z</time></trkpt><trkpt lat="43.02548293247215" lon="10.683314122705982"><ele>23.0</ele><time>2026-04-19T08:43:26Z</time></trkpt><trkpt lat="43.02564488387853" lon="10.683455208305663"><ele>22.666666666666668</ele><time>2026-04-19T08:43:27Z</time></trkpt><trkpt lat="43.02581410198341" lon="10.683611303599088"><ele>22.333333333333332</ele><time>2026-04-19T08:43:28Z</time></trkpt><trkpt lat="43.02596559711423" lon="10.68375177251496"><ele>22.0</ele><time>2026-04-19T08:43:29Z</time></trkpt><trkpt lat="43.02610533685497" lon="10.683881659256407"><ele>22.0</ele><time>2026-04-19T08:43:30Z</time></trkpt><trkpt lat="43.026240206618844" lon="10.684006034734832"><ele>22.0</ele><time>2026-04-19T08:43:31Z</time></trkpt><trkpt lat="43.02636873124219" lon="10.684126841430688"><ele>22.0</ele><time>2026-04-19T08:43:32Z</time></trkpt><trkpt lat="43.02649610801303" lon="10.68424592203074"><ele>22.0</ele><time>2026-04-19T08:43:33Z</time></trkpt><trkpt lat="43.02661597795737" lon="10.684357366103747"><ele>22.0</ele><time>2026-04-19T08:43:34Z</time></trkpt><trkpt lat="43.026744268787056" lon="10.68447818090993"><ele>22.0</ele><time>2026-04-19T08:43:35Z</time></trkpt><trkpt lat="43.026865005292024" lon="10.684596341071904"><ele>22.0</ele><time>2026-04-19T08:43:36Z</time></trkpt><trkpt lat="43.02699004348327" lon="10.684713791322192"><ele>22.0</ele><time>2026-04-19T08:43:37Z</time></trkpt><trkpt lat="43.02711532193256" lon="10.684829305591899"><ele>22.0</ele><time>2026-04-19T08:43:38.001Z</time></trkpt><trkpt lat="43.02723793958104" lon="10.684941713133105"><ele>22.0</ele><time>2026-04-19T08:43:39.001Z</time></trkpt><trkpt lat="43.02736625597607" lon="10.68505691844338"><ele>22.0</ele><time>2026-04-19T08:43:40.001Z</time></trkpt><trkpt lat="43.02749288487958" lon="10.685173174386785"><ele>22.0</ele><time>2026-04-19T08:43:41.001Z</time></trkpt><trkpt lat="43.02761821077405" lon="10.685291142578157"><ele>22.0</ele><time>2026-04-19T08:43:42.001Z</time></trkpt><trkpt lat="43.02774506518156" lon="10.685411314022806"><ele>22.333333333333332</ele><time>2026-04-19T08:43:43.001Z</time></trkpt><trkpt lat="43.02787470409597" lon="10.685533065104003"><ele>22.666666666666668</ele><time>2026-04-19T08:43:44.001Z</time></trkpt><trkpt lat="43.02800423802162" lon="10.685651601653873"><ele>23.0</ele><time>2026-04-19T08:43:45.001Z</time></trkpt><trkpt lat="43.02812921013801" lon="10.685767645194952"><ele>23.0</ele><time>2026-04-19T08:43:46.001Z</time></trkpt><trkpt lat="43.028257445889494" lon="10.68588588166687"><ele>23.0</ele><time>2026-04-19T08:43:47.001Z</time></trkpt><trkpt lat="43.028379979521866" lon="10.686002167934666"><ele>23.0</ele><time>2026-04-19T08:43:48.001Z</time></trkpt><trkpt lat="43.02850988974153" lon="10.68612180954066"><ele>23.0</ele><time>2026-04-19T08:43:49.001Z</time></trkpt><trkpt lat="43.02863274326778" lon="10.686235320204448"><ele>23.0</ele><time>2026-04-19T08:43:50.001Z</time></trkpt><trkpt lat="43.02875498400067" lon="10.686349841423993"><ele>23.0</ele><time>2026-04-19T08:43:51.001Z</time></trkpt><trkpt lat="43.028880654074214" lon="10.686464503000916"><ele>23.0</ele><time>2026-04-19T08:43:52.001Z</time></trkpt><trkpt lat="43.02900342458918" lon="10.686582310959404"><ele>23.0</ele><time>2026-04-19T08:43:53.001Z</time></trkpt><trkpt lat="43.02913066716574" lon="10.686698542697702"><ele>23.0</ele><time>2026-04-19T08:43:54.001Z</time></trkpt><trkpt lat="43.029251524319825" lon="10.686815616032634"><ele>23.0</ele><time>2026-04-19T08:43:55.001Z</time></trkpt><trkpt lat="43.02937984049465" lon="10.686935711309856"><ele>23.0</ele><time>2026-04-19T08:43:56.001Z</time></trkpt><trkpt lat="43.02950704523975" lon="10.687055157149251"><ele>23.0</ele><time>2026-04-19T08:43:57.001Z</time></trkpt><trkpt lat="43.02963588999952" lon="10.687173280612427"><ele>23.0</ele><time>2026-04-19T08:43:58.001Z</time></trkpt><trkpt lat="43.02976640070829" lon="10.687291454246568"><ele>23.0</ele><time>2026-04-19T08:43:59.001Z</time></trkpt><trkpt lat="43.0298960672788" lon="10.687410096601202"><ele>23.0</ele><time>2026-04-19T08:44:00.001Z</time></trkpt><trkpt lat="43.03002513322717" lon="10.687528882726706"><ele>23.0</ele><time>2026-04-19T08:44:01.001Z</time></trkpt><trkpt lat="43.030152624002234" lon="10.68765036009626"><ele>22.666666666666668</ele><time>2026-04-19T08:44:02.001Z</time></trkpt><trkpt lat="43.03028202395092" lon="10.687767979682318"><ele>22.333333333333332</ele><time>2026-04-19T08:44:03.001Z</time></trkpt><trkpt lat="43.030411994722186" lon="10.687888446272398"><ele>22.0</ele><time>2026-04-19T08:44:04.001Z</time></trkpt><trkpt lat="43.0305429018197" lon="10.688009944180026"><ele>22.0</ele><time>2026-04-19T08:44:05.001Z</time></trkpt><trkpt lat="43.03067592513729" lon="10.68813231675673"><ele>22.0</ele><time>2026-04-19T08:44:06.001Z</time></trkpt><trkpt lat="43.030806874253855" lon="10.688256387594395"><ele>22.0</ele><time>2026-04-19T08:44:07.001Z</time></trkpt><trkpt lat="43.03093905113865" lon="10.688377105456116"><ele>22.333333333333332</ele><time>2026-04-19T08:44:08.001Z</time></trkpt><trkpt lat="43.031072632218105" lon="10.688502767517955"><ele>22.666666666666668</ele><time>2026-04-19T08:44:09.001Z</time></trkpt><trkpt lat="43.03120423242716" lon="10.688627403525775"><ele>23.0</ele><time>2026-04-19T08:44:10.001Z</time></trkpt><trkpt lat="43.03133463245402" lon="10.68874703225526"><ele>23.0</ele><time>2026-04-19T08:44:11.001Z</time></trkpt><trkpt lat="43.03146293379289" lon="10.688869097201398"><ele>23.0</ele><time>2026-04-19T08:44:12.001Z</time></trkpt><trkpt lat="43.0315914646622" lon="10.688991595662547"><ele>23.0</ele><time>2026-04-19T08:44:13.001Z</time></trkpt><trkpt lat="43.03172242027399" lon="10.689109521710503"><ele>23.333333333333336</ele><time>2026-04-19T08:44:14.001Z</time></trkpt><trkpt lat="43.031849337606495" lon="10.68922368457277"><ele>23.666666666666668</ele><time>2026-04-19T08:44:15.001Z</time></trkpt><trkpt lat="43.031974807664874" lon="10.689339139586965"><ele>24.0</ele><time>2026-04-19T08:44:16.001Z</time></trkpt><trkpt lat="43.03210321860329" lon="10.689462136567165"><ele>24.0</ele><time>2026-04-19T08:44:17Z</time></trkpt><trkpt lat="43.03223404856945" lon="10.689582738494455"><ele>24.0</ele><time>2026-04-19T08:44:18Z</time></trkpt><trkpt lat="43.03236107929254" lon="10.689702902662699"><ele>24.0</ele><time>2026-04-19T08:44:19Z</time></trkpt><trkpt lat="43.032495130221264" lon="10.689834797271068"><ele>24.0</ele><time>2026-04-19T08:44:20Z</time></trkpt><trkpt lat="43.03263074775819" lon="10.689958620520136"><ele>24.0</ele><time>2026-04-19T08:44:21Z</time></trkpt><trkpt lat="43.03276542172731" lon="10.690081556455157"><ele>24.0</ele><time>2026-04-19T08:44:22Z</time></trkpt><trkpt lat="43.03290056588681" lon="10.690206057667456"><ele>24.0</ele><time>2026-04-19T08:44:23Z</time></trkpt><trkpt lat="43.033038353913284" lon="10.690340846447054"><ele>24.0</ele><time>2026-04-19T08:44:24Z</time></trkpt><trkpt lat="43.033171401942624" lon="10.690463777730107"><ele>24.0</ele><time>2026-04-19T08:44:25Z</time></trkpt><trkpt lat="43.0333023522872" lon="10.690585181570784"><ele>24.0</ele><time>2026-04-19T08:44:26Z</time></trkpt><trkpt lat="43.03343266988638" lon="10.690704568467199"><ele>24.0</ele><time>2026-04-19T08:44:27Z</time></trkpt><trkpt lat="43.03355637223594" lon="10.690819840490471"><ele>24.0</ele><time>2026-04-19T08:44:28Z</time></trkpt><trkpt lat="43.03367854062972" lon="10.690935145945682"><ele>24.0</ele><time>2026-04-19T08:44:29Z</time></trkpt><trkpt lat="43.033799153232835" lon="10.691048401102593"><ele>24.0</ele><time>2026-04-19T08:44:30Z</time></trkpt><trkpt lat="43.033913682560446" lon="10.691153986563211"><ele>24.0</ele><time>2026-04-19T08:44:31Z</time></trkpt><trkpt lat="43.03402279439134" lon="10.69125225382344"><ele>24.0</ele><time>2026-04-19T08:44:32Z</time></trkpt><trkpt lat="43.034132537088674" lon="10.691358236816047"><ele>24.0</ele><time>2026-04-19T08:44:33Z</time></trkpt><trkpt lat="43.03425155969951" lon="10.691457232095486"><ele>24.0</ele><time>2026-04-19T08:44:34Z</time></trkpt><trkpt lat="43.034367382490935" lon="10.691564087402925"><ele>24.0</ele><time>2026-04-19T08:44:35Z</time></trkpt><trkpt lat="43.03447072702655" lon="10.691686827883137"><ele>24.0</ele><time>2026-04-19T08:44:36Z</time></trkpt><trkpt lat="43.03458402257361" lon="10.691797602850956"><ele>24.0</ele><time>2026-04-19T08:44:37Z</time></trkpt><trkpt lat="43.03469859833404" lon="10.691905675568416"><ele>24.0</ele><time>2026-04-19T08:44:38Z</time></trkpt><trkpt lat="43.03481510992508" lon="10.69201226261796"><ele>24.0</ele><time>2026-04-19T08:44:39Z</time></trkpt><trkpt lat="43.03494193983332" lon="10.69210353621829"><ele>24.0</ele><time>2026-04-19T08:44:40Z</time></trkpt><trkpt lat="43.03506009470804" lon="10.692210675549212"><ele>24.25</ele><time>2026-04-19T08:44:41Z</time></trkpt><trkpt lat="43.03518010804432" lon="10.69232129929917"><ele>24.5</ele><time>2026-04-19T08:44:42Z</time></trkpt><trkpt lat="43.035301157294704" lon="10.692434825538214"><ele>24.75</ele><time>2026-04-19T08:44:43Z</time></trkpt><trkpt lat="43.03542060202883" lon="10.692545836188005"><ele>25.0</ele><time>2026-04-19T08:44:44Z</time></trkpt><trkpt lat="43.03553740749658" lon="10.692651015772697"><ele>25.25</ele><time>2026-04-19T08:44:45Z</time></trkpt><trkpt lat="43.035655034248904" lon="10.69276162164714"><ele>25.5</ele><time>2026-04-19T08:44:46Z</time></trkpt><trkpt lat="43.03576985471882" lon="10.692873239304328"><ele>25.75</ele><time>2026-04-19T08:44:47Z</time></trkpt><trkpt lat="43.03588583325512" lon="10.69298491978759"><ele>26.0</ele><time>2026-04-19T08:44:48Z</time></trkpt><trkpt lat="43.035997479043544" lon="10.69308902957902"><ele>26.0</ele><time>2026-04-19T08:44:49Z</time></trkpt><trkpt lat="43.036108913015475" lon="10.693192767127917"><ele>26.0</ele><time>2026-04-19T08:44:50Z</time></trkpt><trkpt lat="43.03621999467137" lon="10.693294216174328"><ele>26.0</ele><time>2026-04-19T08:44:51Z</time></trkpt><trkpt lat="43.036333988240145" lon="10.693395649298015"><ele>26.0</ele><time>2026-04-19T08:44:52Z</time></trkpt><trkpt lat="43.0364487654197" lon="10.693502214595327"><ele>26.0</ele><time>2026-04-19T08:44:53Z</time></trkpt><trkpt lat="43.0365615302432" lon="10.693609623016721"><ele>26.0</ele><time>2026-04-19T08:44:54Z</time></trkpt><trkpt lat="43.03666955445114" lon="10.693713969514903"><ele>26.0</ele><time>2026-04-19T08:44:55Z</time></trkpt><trkpt lat="43.03678167831497" lon="10.693823865050955"><ele>26.0</ele><time>2026-04-19T08:44:56Z</time></trkpt><trkpt lat="43.03690193756399" lon="10.693916960925387"><ele>25.75</ele><time>2026-04-19T08:44:57Z</time></trkpt><trkpt lat="43.03701287050509" lon="10.694023215388352"><ele>25.5</ele><time>2026-04-19T08:44:58Z</time></trkpt><trkpt lat="43.037127349411676" lon="10.694129826457967"><ele>25.25</ele><time>2026-04-19T08:44:59Z</time></trkpt><trkpt lat="43.03724206526991" lon="10.694238206048084"><ele>25.0</ele><time>2026-04-19T08:45:00Z</time></trkpt><trkpt lat="43.03735734752891" lon="10.694346878825348"><ele>25.0</ele><time>2026-04-19T08:45:01Z</time></trkpt><trkpt lat="43.0374744019081" lon="10.694456153645849"><ele>25.0</ele><time>2026-04-19T08:45:02Z</time></trkpt><trkpt lat="43.03759016332079" lon="10.69456026116017"><ele>25.0</ele><time>2026-04-19T08:45:03Z</time></trkpt><trkpt lat="43.03770233379468" lon="10.69466046657934"><ele>25.0</ele><time>2026-04-19T08:45:04Z</time></trkpt><trkpt lat="43.03781103437764" lon="10.694777903013648"><ele>25.0</ele><time>2026-04-19T08:45:05Z</time></trkpt><trkpt lat="43.03793009001816" lon="10.694869741167794"><ele>25.0</ele><time>2026-04-19T08:45:06Z</time></trkpt><trkpt lat="43.03803969816799" lon="10.694977735203222"><ele>25.0</ele><time>2026-04-19T08:45:07Z</time></trkpt><trkpt lat="43.038140574331436" lon="10.695068907982558"><ele>25.0</ele><time>2026-04-19T08:45:08Z</time></trkpt><trkpt lat="43.038245067252724" lon="10.695163152139607"><ele>25.4</ele><time>2026-04-19T08:45:09Z</time></trkpt><trkpt lat="43.03833946658909" lon="10.695249949496722"><ele>25.8</ele><time>2026-04-19T08:45:10Z</time></trkpt><trkpt lat="43.038425423456715" lon="10.695330826706678"><ele>26.200000000000003</ele><time>2026-04-19T08:45:11Z</time></trkpt><trkpt lat="43.03850397597954" lon="10.695403575612238"><ele>26.6</ele><time>2026-04-19T08:45:12Z</time></trkpt><trkpt lat="43.03857636309903" lon="10.69547356435853"><ele>27.0</ele><time>2026-04-19T08:45:13Z</time></trkpt><trkpt lat="43.03864575105746" lon="10.69554262229469"><ele>27.0</ele><time>2026-04-19T08:45:14Z</time></trkpt><trkpt lat="43.03871978728438" lon="10.69561364730976"><ele>27.000000000000004</ele><time>2026-04-19T08:45:15Z</time></trkpt><trkpt lat="43.03879392757659" lon="10.695686533873271"><ele>27.000000000000004</ele><time>2026-04-19T08:45:16Z</time></trkpt><trkpt lat="43.03887015876419" lon="10.695747236679184"><ele>27.0</ele><time>2026-04-19T08:45:17Z</time></trkpt><trkpt lat="43.03894518150885" lon="10.695821082248301"><ele>27.0</ele><time>2026-04-19T08:45:18Z</time></trkpt><trkpt lat="43.03902806307646" lon="10.69589503097822"><ele>27.0</ele><time>2026-04-19T08:45:19Z</time></trkpt><trkpt lat="43.03911244958025" lon="10.695972405365044"><ele>27.000000000000004</ele><time>2026-04-19T08:45:20Z</time></trkpt><trkpt lat="43.039198289602396" lon="10.696051505879783"><ele>27.000000000000004</ele><time>2026-04-19T08:45:21Z</time></trkpt><trkpt lat="43.03928762331188" lon="10.696133066495632"><ele>27.0</ele><time>2026-04-19T08:45:22Z</time></trkpt><trkpt lat="43.03937845194173" lon="10.69621553671122"><ele>27.0</ele><time>2026-04-19T08:45:23Z</time></trkpt><trkpt lat="43.03947228652158" lon="10.696299196961398"><ele>27.25</ele><time>2026-04-19T08:45:24Z</time></trkpt><trkpt lat="43.03956802527842" lon="10.696390013809504"><ele>27.5</ele><time>2026-04-19T08:45:25Z</time></trkpt><trkpt lat="43.03966654134932" lon="10.696480050832442"><ele>27.75</ele><time>2026-04-19T08:45:26Z</time></trkpt><trkpt lat="43.03976960569639" lon="10.69657295947374"><ele>28.0</ele><time>2026-04-19T08:45:27Z</time></trkpt><trkpt lat="43.03986824267794" lon="10.696668860280097"><ele>28.0</ele><time>2026-04-19T08:45:28Z</time></trkpt><trkpt lat="43.03997027843791" lon="10.696759428949486"><ele>28.0</ele><time>2026-04-19T08:45:29Z</time></trkpt><trkpt lat="43.04007044451591" lon="10.696847261777927"><ele>28.0</ele><time>2026-04-19T08:45:30Z</time></trkpt><trkpt lat="43.04016917645709" lon="10.696939129645838"><ele>28.0</ele><time>2026-04-19T08:45:31Z</time></trkpt><trkpt lat="43.04026361871186" lon="10.697034285664552"><ele>28.0</ele><time>2026-04-19T08:45:32Z</time></trkpt><trkpt lat="43.040359196517485" lon="10.697125295823573"><ele>28.0</ele><time>2026-04-19T08:45:33Z</time></trkpt><trkpt lat="43.04045810266416" lon="10.69721859960431"><ele>28.0</ele><time>2026-04-19T08:45:34Z</time></trkpt><trkpt lat="43.040558474360516" lon="10.697314413101608"><ele>28.0</ele><time>2026-04-19T08:45:35Z</time></trkpt><trkpt lat="43.040648782392175" lon="10.697420894749447"><ele>28.000000000000004</ele><time>2026-04-19T08:45:36Z</time></trkpt><trkpt lat="43.040744119257404" lon="10.697484598616517"><ele>28.0</ele><time>2026-04-19T08:45:37Z</time></trkpt><trkpt lat="43.04081426001257" lon="10.697573522896755"><ele>28.0</ele><time>2026-04-19T08:45:38Z</time></trkpt><trkpt lat="43.04088351409169" lon="10.69760986742614"><ele>28.0</ele><time>2026-04-19T08:45:39Z</time></trkpt><trkpt lat="43.040929102295514" lon="10.697676198689903"><ele>28.000000000000004</ele><time>2026-04-19T08:45:40Z</time></trkpt><trkpt lat="43.04098899254447" lon="10.697706930767662"><ele>28.0</ele><time>2026-04-19T08:45:41Z</time></trkpt><trkpt lat="43.04105534559564" lon="10.697825157597956"><ele>28.166666666666668</ele><time>2026-04-19T08:45:43Z</time></trkpt><trkpt lat="43.041034155175616" lon="10.697914007470315"><ele>28.333333333333336</ele><time>2026-04-19T08:45:44Z</time></trkpt><trkpt lat="43.04103605053684" lon="10.698043004605536"><ele>28.5</ele><time>2026-04-19T08:45:45Z</time></trkpt><trkpt lat="43.04100954608953" lon="10.69817618366248"><ele>28.666666666666664</ele><time>2026-04-19T08:45:46Z</time></trkpt><trkpt lat="43.04099854928948" lon="10.698265777432788"><ele>28.833333333333332</ele><time>2026-04-19T08:45:47Z</time></trkpt><trkpt lat="43.04098904207999" lon="10.698353542218745"><ele>29.0</ele><time>2026-04-19T08:45:49Z</time></trkpt><trkpt lat="43.04108610619392" lon="10.69840934036466"><ele>29.0</ele><time>2026-04-19T08:45:51Z</time></trkpt><trkpt lat="43.04119933856093" lon="10.698457566496254"><ele>29.0</ele><time>2026-04-19T08:45:53Z</time></trkpt><trkpt lat="43.04133657904104" lon="10.698484190501315"><ele>29.0</ele><time>2026-04-19T08:45:55Z</time></trkpt><trkpt lat="43.04140662811088" lon="10.698474670816452"><ele>29.0</ele><time>2026-04-19T08:45:56Z</time></trkpt><trkpt lat="43.04147116585216" lon="10.698485959314926"><ele>29.0</ele><time>2026-04-19T08:45:57Z</time></trkpt><trkpt lat="43.0415433732504" lon="10.698499010436837"><ele>28.999999999999996</ele><time>2026-04-19T08:45:58.001Z</time></trkpt><trkpt lat="43.04161657406616" lon="10.698515426207711"><ele>29.0</ele><time>2026-04-19T08:45:59.001Z</time></trkpt><trkpt lat="43.04169856141161" lon="10.698531091208752"><ele>29.0</ele><time>2026-04-19T08:46:00.001Z</time></trkpt><trkpt lat="43.04178032587951" lon="10.698544069757464"><ele>29.0</ele><time>2026-04-19T08:46:01.001Z</time></trkpt><trkpt lat="43.04186117704098" lon="10.698560017761357"><ele>28.999999999999996</ele><time>2026-04-19T08:46:02.001Z</time></trkpt><trkpt lat="43.04193180461232" lon="10.698568919530924"><ele>29.0</ele><time>2026-04-19T08:46:03.001Z</time></trkpt><trkpt lat="43.04205292763569" lon="10.698588738667398"><ele>29.0</ele><time>2026-04-19T08:46:05.001Z</time></trkpt><trkpt lat="43.04214371684328" lon="10.698661632709886"><ele>29.0</ele><time>2026-04-19T08:46:07.001Z</time></trkpt><trkpt lat="43.042171370467926" lon="10.698860683865155"><ele>29.0</ele><time>2026-04-19T08:46:09.001Z</time></trkpt><trkpt lat="43.042200268953486" lon="10.698984181232644"><ele>29.0</ele><time>2026-04-19T08:46:10.001Z</time></trkpt><trkpt lat="43.04221695833813" lon="10.699121496369596"><ele>29.0</ele><time>2026-04-19T08:46:11.001Z</time></trkpt><trkpt lat="43.042239139044675" lon="10.6992520981174"><ele>29.0</ele><time>2026-04-19T08:46:12.001Z</time></trkpt><trkpt lat="43.042260399171326" lon="10.699397930406683"><ele>29.0</ele><time>2026-04-19T08:46:13.001Z</time></trkpt><trkpt lat="43.042289276122986" lon="10.699551005972133"><ele>29.0</ele><time>2026-04-19T08:46:14.001Z</time></trkpt><trkpt lat="43.04231595312686" lon="10.699693547564536"><ele>29.0</ele><time>2026-04-19T08:46:15.001Z</time></trkpt><trkpt lat="43.04233815299381" lon="10.699839176809018"><ele>29.0</ele><time>2026-04-19T08:46:16.001Z</time></trkpt><trkpt lat="43.042356846658436" lon="10.69998268031276"><ele>29.0</ele><time>2026-04-19T08:46:17.001Z</time></trkpt><trkpt lat="43.04237970938245" lon="10.70011800975076"><ele>29.0</ele><time>2026-04-19T08:46:18.001Z</time></trkpt><trkpt lat="43.042397953109216" lon="10.700228886351082"><ele>29.0</ele><time>2026-04-19T08:46:19.001Z</time></trkpt><trkpt lat="43.04240123455656" lon="10.700333222554066"><ele>29.0</ele><time>2026-04-19T08:46:20.001Z</time></trkpt><trkpt lat="43.042412970675116" lon="10.70046118206895"><ele>29.0</ele><time>2026-04-19T08:46:22.001Z</time></trkpt><trkpt lat="43.04232739040061" lon="10.700544683784791"><ele>29.0</ele><time>2026-04-19T08:46:24.001Z</time></trkpt><trkpt lat="43.04225848473417" lon="10.700515302935944"><ele>29.0</ele><time>2026-04-19T08:46:25.001Z</time></trkpt><trkpt lat="43.0421647368426" lon="10.700524469232242"><ele>29.0</ele><time>2026-04-19T08:46:26.001Z</time></trkpt><trkpt lat="43.042061063042006" lon="10.700553055417535"><ele>29.0</ele><time>2026-04-19T08:46:27Z</time></trkpt><trkpt lat="43.04193568335738" lon="10.700551264232692"><ele>29.0</ele><time>2026-04-19T08:46:28Z</time></trkpt><trkpt lat="43.04179469673691" lon="10.700571673719265"><ele>29.0</ele><time>2026-04-19T08:46:29Z</time></trkpt><trkpt lat="43.04166585468586" lon="10.700590325138473"><ele>29.0</ele><time>2026-04-19T08:46:30Z</time></trkpt><trkpt lat="43.041551501278825" lon="10.70062665069818"><ele>29.0</ele><time>2026-04-19T08:46:31Z</time></trkpt><trkpt lat="43.041434640541425" lon="10.700622091329441"><ele>29.2</ele><time>2026-04-19T08:46:32Z</time></trkpt><trkpt lat="43.04133161652167" lon="10.700634409136853"><ele>29.4</ele><time>2026-04-19T08:46:33Z</time></trkpt><trkpt lat="43.04123341781733" lon="10.700646150011648"><ele>29.6</ele><time>2026-04-19T08:46:34Z</time></trkpt><trkpt lat="43.04112899630606" lon="10.700658634904393"><ele>29.8</ele><time>2026-04-19T08:46:35Z</time></trkpt><trkpt lat="43.04104146837266" lon="10.700668374595395"><ele>30.0</ele><time>2026-04-19T08:46:36Z</time></trkpt><trkpt lat="43.04097205492368" lon="10.700693834461813"><ele>30.0</ele><time>2026-04-19T08:46:37Z</time></trkpt><trkpt lat="43.04087321292289" lon="10.700690653304527"><ele>30.0</ele><time>2026-04-19T08:46:39Z</time></trkpt><trkpt lat="43.040854695646914" lon="10.700912830075213"><ele>30.0</ele><time>2026-04-19T08:46:42Z</time></trkpt><trkpt lat="43.04087787100812" lon="10.701050210853674"><ele>30.0</ele><time>2026-04-19T08:46:43Z</time></trkpt><trkpt lat="43.04089465166934" lon="10.701216477219225"><ele>29.5</ele><time>2026-04-19T08:46:44Z</time></trkpt><trkpt lat="43.040909500692436" lon="10.701401697207366"><ele>29.0</ele><time>2026-04-19T08:46:45Z</time></trkpt><trkpt lat="43.040923746641894" lon="10.701590997192103"><ele>28.5</ele><time>2026-04-19T08:46:46Z</time></trkpt><trkpt lat="43.04093745132466" lon="10.701758756650765"><ele>28.0</ele><time>2026-04-19T08:46:47Z</time></trkpt><trkpt lat="43.04094442896915" lon="10.701903051077583"><ele>28.0</ele><time>2026-04-19T08:46:48Z</time></trkpt><trkpt lat="43.040956795700325" lon="10.702047496150547"><ele>27.999999999999996</ele><time>2026-04-19T08:46:49Z</time></trkpt><trkpt lat="43.04096802220495" lon="10.70218886847591"><ele>27.999999999999996</ele><time>2026-04-19T08:46:50Z</time></trkpt><trkpt lat="43.04098169553496" lon="10.702329658893484"><ele>28.0</ele><time>2026-04-19T08:46:51Z</time></trkpt><trkpt lat="43.04098757659148" lon="10.702467649092812"><ele>28.0</ele><time>2026-04-19T08:46:52Z</time></trkpt><trkpt lat="43.040999105263296" lon="10.702617270948778"><ele>27.599999999999998</ele><time>2026-04-19T08:46:53Z</time></trkpt><trkpt lat="43.04100966336507" lon="10.702761575115947"><ele>27.199999999999996</ele><time>2026-04-19T08:46:54Z</time></trkpt><trkpt lat="43.041015344184046" lon="10.7028893079139"><ele>26.8</ele><time>2026-04-19T08:46:55Z</time></trkpt><trkpt lat="43.04102705305522" lon="10.70302424275038"><ele>26.4</ele><time>2026-04-19T08:46:56Z</time></trkpt><trkpt lat="43.04103790307175" lon="10.70316790693569"><ele>26.0</ele><time>2026-04-19T08:46:57Z</time></trkpt><trkpt lat="43.04104861514538" lon="10.703305918532612"><ele>26.0</ele><time>2026-04-19T08:46:58Z</time></trkpt><trkpt lat="43.04105893553316" lon="10.703433195930455"><ele>26.0</ele><time>2026-04-19T08:46:59Z</time></trkpt><trkpt lat="43.04106799084776" lon="10.703558317120626"><ele>26.0</ele><time>2026-04-19T08:47:00Z</time></trkpt><trkpt lat="43.04107818642788" lon="10.703694856599721"><ele>26.0</ele><time>2026-04-19T08:47:01Z</time></trkpt><trkpt lat="43.04106764732844" lon="10.703818407839304"><ele>26.0</ele><time>2026-04-19T08:47:02Z</time></trkpt><trkpt lat="43.041030703230696" lon="10.703944028582173"><ele>26.4</ele><time>2026-04-19T08:47:03Z</time></trkpt><trkpt lat="43.04101552842201" lon="10.704077186093869"><ele>26.8</ele><time>2026-04-19T08:47:04Z</time></trkpt><trkpt lat="43.04097971400219" lon="10.704221655605686"><ele>27.199999999999996</ele><time>2026-04-19T08:47:05Z</time></trkpt><trkpt lat="43.04094416649121" lon="10.70436601451469"><ele>27.599999999999998</ele><time>2026-04-19T08:47:06Z</time></trkpt><trkpt lat="43.040912264307146" lon="10.704516195817783"><ele>28.0</ele><time>2026-04-19T08:47:07Z</time></trkpt><trkpt lat="43.04087342433189" lon="10.704666256337505"><ele>28.5</ele><time>2026-04-19T08:47:08Z</time></trkpt><trkpt lat="43.04083198383873" lon="10.704832672196815"><ele>29.0</ele><time>2026-04-19T08:47:09Z</time></trkpt><trkpt lat="43.040792744052006" lon="10.70499557988565"><ele>29.5</ele><time>2026-04-19T08:47:10Z</time></trkpt><trkpt lat="43.040751350743676" lon="10.70517086997828"><ele>30.0</ele><time>2026-04-19T08:47:11Z</time></trkpt><trkpt lat="43.04069667945909" lon="10.705331657926177"><ele>30.0</ele><time>2026-04-19T08:47:12Z</time></trkpt><trkpt lat="43.04065547320806" lon="10.705502993489745"><ele>30.0</ele><time>2026-04-19T08:47:13Z</time></trkpt><trkpt lat="43.04062770413566" lon="10.705688805179612"><ele>30.0</ele><time>2026-04-19T08:47:14Z</time></trkpt><trkpt lat="43.04056880427355" lon="10.705861670790835"><ele>30.0</ele><time>2026-04-19T08:47:15Z</time></trkpt><trkpt lat="43.04052498305928" lon="10.706042327439745"><ele>30.5</ele><time>2026-04-19T08:47:16Z</time></trkpt><trkpt lat="43.04048003625906" lon="10.706227624466615"><ele>31.0</ele><time>2026-04-19T08:47:17Z</time></trkpt><trkpt lat="43.04045159788984" lon="10.706417241967968"><ele>31.5</ele><time>2026-04-19T08:47:18Z</time></trkpt><trkpt lat="43.040410353142974" lon="10.706581541839103"><ele>32.0</ele><time>2026-04-19T08:47:19Z</time></trkpt><trkpt lat="43.04037268376356" lon="10.706719787389451"><ele>32.0</ele><time>2026-04-19T08:47:20Z</time></trkpt><trkpt lat="43.040334468588526" lon="10.706843975529235"><ele>32.0</ele><time>2026-04-19T08:47:21Z</time></trkpt><trkpt lat="43.0403189091498" lon="10.706976206086466"><ele>32.0</ele><time>2026-04-19T08:47:22Z</time></trkpt><trkpt lat="43.040283403175096" lon="10.707107846918019"><ele>32.0</ele><time>2026-04-19T08:47:23Z</time></trkpt><trkpt lat="43.040254896406545" lon="10.707236959292844"><ele>32.0</ele><time>2026-04-19T08:47:24Z</time></trkpt><trkpt lat="43.04022871512417" lon="10.707349472913606"><ele>31.999999999999996</ele><time>2026-04-19T08:47:25Z</time></trkpt><trkpt lat="43.04020326775631" lon="10.707442504766899"><ele>32.0</ele><time>2026-04-19T08:47:26Z</time></trkpt><trkpt lat="43.040153355712924" lon="10.707545645519932"><ele>32.0</ele><time>2026-04-19T08:47:28Z</time></trkpt><trkpt lat="43.04018464894182" lon="10.707637613297468"><ele>32.0</ele><time>2026-04-19T08:47:32Z</time></trkpt><trkpt lat="43.040257664733936" lon="10.70768764982203"><ele>31.999999999999996</ele><time>2026-04-19T08:47:33Z</time></trkpt><trkpt lat="43.0403612181075" lon="10.707705523399591"><ele>32.0</ele><time>2026-04-19T08:47:34Z</time></trkpt><trkpt lat="43.040462716262965" lon="10.707745720759577"><ele>32.0</ele><time>2026-04-19T08:47:35Z</time></trkpt><trkpt lat="43.040577904416196" lon="10.707797925243261"><ele>32.0</ele><time>2026-04-19T08:47:36Z</time></trkpt><trkpt lat="43.04069470296325" lon="10.707851500942786"><ele>32.0</ele><time>2026-04-19T08:47:37Z</time></trkpt><trkpt lat="43.04081427854628" lon="10.707902214546744"><ele>32.0</ele><time>2026-04-19T08:47:38Z</time></trkpt><trkpt lat="43.040938730985246" lon="10.707959837490478"><ele>31.75</ele><time>2026-04-19T08:47:39Z</time></trkpt><trkpt lat="43.04107243422569" lon="10.708018357587298"><ele>31.5</ele><time>2026-04-19T08:47:40Z</time></trkpt><trkpt lat="43.041214206830105" lon="10.708076382386288"><ele>31.25</ele><time>2026-04-19T08:47:41Z</time></trkpt><trkpt lat="43.04134684841575" lon="10.70813452878392"><ele>31.0</ele><time>2026-04-19T08:47:42Z</time></trkpt><trkpt lat="43.04147269617529" lon="10.708189884396015"><ele>31.0</ele><time>2026-04-19T08:47:43Z</time></trkpt><trkpt lat="43.04160034260982" lon="10.708246326860694"><ele>31.0</ele><time>2026-04-19T08:47:44Z</time></trkpt><trkpt lat="43.04173519196288" lon="10.708304284230817"><ele>31.0</ele><time>2026-04-19T08:47:45Z</time></trkpt><trkpt lat="43.04186716115576" lon="10.70836094473141"><ele>31.0</ele><time>2026-04-19T08:47:46Z</time></trkpt><trkpt lat="43.04200421159794" lon="10.70841776184926"><ele>31.25</ele><time>2026-04-19T08:47:47Z</time></trkpt><trkpt lat="43.04213185321452" lon="10.7084733491398"><ele>31.5</ele><time>2026-04-19T08:47:48Z</time></trkpt><trkpt lat="43.04224893618015" lon="10.708523778563437"><ele>31.75</ele><time>2026-04-19T08:47:49Z</time></trkpt><trkpt lat="43.04235548915231" lon="10.708571307312903"><ele>32.0</ele><time>2026-04-19T08:47:50Z</time></trkpt><trkpt lat="43.04245277808704" lon="10.708612439648679"><ele>33.0</ele><time>2026-04-19T08:47:51Z</time></trkpt><trkpt lat="43.04254837808262" lon="10.708651756657096"><ele>34.0</ele><time>2026-04-19T08:47:52Z</time></trkpt><trkpt lat="43.04265134534711" lon="10.708693969480063"><ele>35.0</ele><time>2026-04-19T08:47:53Z</time></trkpt><trkpt lat="43.042747750561354" lon="10.708742026817733"><ele>36.0</ele><time>2026-04-19T08:47:54Z</time></trkpt><trkpt lat="43.04285408289979" lon="10.708787042024161"><ele>37.0</ele><time>2026-04-19T08:47:55Z</time></trkpt><trkpt lat="43.04295410520101" lon="10.708826427543237"><ele>37.0</ele><time>2026-04-19T08:47:56Z</time></trkpt><trkpt lat="43.04306097761925" lon="10.708869755747049"><ele>37.0</ele><time>2026-04-19T08:47:57Z</time></trkpt><trkpt lat="43.04317442931051" lon="10.708917204979478"><ele>37.0</ele><time>2026-04-19T08:47:58Z</time></trkpt><trkpt lat="43.04329508728538" lon="10.708968364061946"><ele>37.0</ele><time>2026-04-19T08:47:59Z</time></trkpt><trkpt lat="43.043408814806774" lon="10.709017147422458"><ele>36.4</ele><time>2026-04-19T08:48:00Z</time></trkpt><trkpt lat="43.0435154174474" lon="10.709058544330027"><ele>35.800000000000004</ele><time>2026-04-19T08:48:01Z</time></trkpt><trkpt lat="43.04360739614122" lon="10.709093514781438"><ele>35.2</ele><time>2026-04-19T08:48:02Z</time></trkpt><trkpt lat="43.04370060170518" lon="10.709142126076042"><ele>34.6</ele><time>2026-04-19T08:48:03Z</time></trkpt><trkpt lat="43.04379672266832" lon="10.709185319728162"><ele>34.0</ele><time>2026-04-19T08:48:04Z</time></trkpt><trkpt lat="43.04390187472179" lon="10.709225765369977"><ele>34.0</ele><time>2026-04-19T08:48:05Z</time></trkpt><trkpt lat="43.04401276009323" lon="10.709273228399756"><ele>34.0</ele><time>2026-04-19T08:48:06Z</time></trkpt><trkpt lat="43.04413140651738" lon="10.709330805924113"><ele>34.0</ele><time>2026-04-19T08:48:07Z</time></trkpt><trkpt lat="43.04425509580881" lon="10.709391104238152"><ele>34.0</ele><time>2026-04-19T08:48:08Z</time></trkpt><trkpt lat="43.044377825178536" lon="10.709447639062232"><ele>34.5</ele><time>2026-04-19T08:48:09Z</time></trkpt><trkpt lat="43.04451107346857" lon="10.709507376282692"><ele>35.0</ele><time>2026-04-19T08:48:10.001Z</time></trkpt><trkpt lat="43.044643697756186" lon="10.7095721038073"><ele>35.5</ele><time>2026-04-19T08:48:11.001Z</time></trkpt><trkpt lat="43.0447762284708" lon="10.709639865985332"><ele>36.0</ele><time>2026-04-19T08:48:12.001Z</time></trkpt><trkpt lat="43.04491026876967" lon="10.70971192879218"><ele>35.25</ele><time>2026-04-19T08:48:13.001Z</time></trkpt><trkpt lat="43.04504745474684" lon="10.709788585848038"><ele>34.5</ele><time>2026-04-19T08:48:14.001Z</time></trkpt><trkpt lat="43.04518675519343" lon="10.709869895797572"><ele>33.75</ele><time>2026-04-19T08:48:15.001Z</time></trkpt><trkpt lat="43.04532071905256" lon="10.70994822074736"><ele>33.0</ele><time>2026-04-19T08:48:16.001Z</time></trkpt><trkpt lat="43.04545477064169" lon="10.710030967474014"><ele>33.0</ele><time>2026-04-19T08:48:17.001Z</time></trkpt><trkpt lat="43.04558249320865" lon="10.710119988464866"><ele>33.0</ele><time>2026-04-19T08:48:18.001Z</time></trkpt><trkpt lat="43.04570969330884" lon="10.7102004369269"><ele>33.0</ele><time>2026-04-19T08:48:19.001Z</time></trkpt><trkpt lat="43.045831540441384" lon="10.7102800926676"><ele>33.0</ele><time>2026-04-19T08:48:20.001Z</time></trkpt><trkpt lat="43.04595154061407" lon="10.710360636826357"><ele>35.0</ele><time>2026-04-19T08:48:21.001Z</time></trkpt><trkpt lat="43.04607599542546" lon="10.710448086557392"><ele>37.0</ele><time>2026-04-19T08:48:22.001Z</time></trkpt><trkpt lat="43.04619170357792" lon="10.710538663034647"><ele>39.0</ele><time>2026-04-19T08:48:23.001Z</time></trkpt><trkpt lat="43.04631638745589" lon="10.710638172255553"><ele>41.0</ele><time>2026-04-19T08:48:24.001Z</time></trkpt><trkpt lat="43.04644903153516" lon="10.710742840609486"><ele>41.0</ele><time>2026-04-19T08:48:25.001Z</time></trkpt><trkpt lat="43.04658812087593" lon="10.710850798566645"><ele>41.0</ele><time>2026-04-19T08:48:26Z</time></trkpt><trkpt lat="43.046735874078124" lon="10.710969107270433"><ele>41.0</ele><time>2026-04-19T08:48:27Z</time></trkpt><trkpt lat="43.04688915697193" lon="10.711105291847662"><ele>44.33333333333333</ele><time>2026-04-19T08:48:28Z</time></trkpt><trkpt lat="43.047046158278384" lon="10.711253217253706"><ele>47.666666666666664</ele><time>2026-04-19T08:48:29Z</time></trkpt><trkpt lat="43.04720801802987" lon="10.711406104512184"><ele>51.0</ele><time>2026-04-19T08:48:30Z</time></trkpt><trkpt lat="43.04737975650009" lon="10.711571651042828"><ele>51.66666666666667</ele><time>2026-04-19T08:48:31Z</time></trkpt><trkpt lat="43.047541885725025" lon="10.711764736039994"><ele>52.333333333333336</ele><time>2026-04-19T08:48:32Z</time></trkpt><trkpt lat="43.04771900208636" lon="10.711933759595318"><ele>53.0</ele><time>2026-04-19T08:48:33Z</time></trkpt><trkpt lat="43.04789181491545" lon="10.712140244130612"><ele>53.0</ele><time>2026-04-19T08:48:34Z</time></trkpt><trkpt lat="43.04806041336376" lon="10.712364014478363"><ele>53.0</ele><time>2026-04-19T08:48:35Z</time></trkpt><trkpt lat="43.04824648392808" lon="10.712563330894396"><ele>46.0</ele><time>2026-04-19T08:48:36Z</time></trkpt><trkpt lat="43.04842111598793" lon="10.712793699563408"><ele>39.0</ele><time>2026-04-19T08:48:37Z</time></trkpt><trkpt lat="43.04858396292701" lon="10.7130294711068"><ele>39.0</ele><time>2026-04-19T08:48:38Z</time></trkpt><trkpt lat="43.048755607450055" lon="10.71324610253184"><ele>39.0</ele><time>2026-04-19T08:48:39Z</time></trkpt><trkpt lat="43.04891628920136" lon="10.713450371230147"><ele>37.5</ele><time>2026-04-19T08:48:40Z</time></trkpt><trkpt lat="43.04908273720478" lon="10.713668130730502"><ele>36.0</ele><time>2026-04-19T08:48:41Z</time></trkpt><trkpt lat="43.04924625514899" lon="10.71388205537176"><ele>35.666666666666664</ele><time>2026-04-19T08:48:42Z</time></trkpt><trkpt lat="43.049409296829666" lon="10.714090351989514"><ele>35.33333333333333</ele><time>2026-04-19T08:48:43Z</time></trkpt><trkpt lat="43.049573197170226" lon="10.714301973985691"><ele>35.0</ele><time>2026-04-19T08:48:44Z</time></trkpt><trkpt lat="43.04972095838421" lon="10.714489126906802"><ele>34.666666666666664</ele><time>2026-04-19T08:48:45Z</time></trkpt><trkpt lat="43.049863962879854" lon="10.714669853218536"><ele>34.333333333333336</ele><time>2026-04-19T08:48:46Z</time></trkpt><trkpt lat="43.050019494021015" lon="10.71483746075834"><ele>34.0</ele><time>2026-04-19T08:48:47Z</time></trkpt><trkpt lat="43.05015928465876" lon="10.715048822334412"><ele>34.333333333333336</ele><time>2026-04-19T08:48:48Z</time></trkpt><trkpt lat="43.0503257371641" lon="10.715232520049614"><ele>34.666666666666664</ele><time>2026-04-19T08:48:49Z</time></trkpt><trkpt lat="43.05048354838779" lon="10.715436806600225"><ele>35.0</ele><time>2026-04-19T08:48:50Z</time></trkpt><trkpt lat="43.05064066263596" lon="10.715636191224247"><ele>35.0</ele><time>2026-04-19T08:48:51Z</time></trkpt><trkpt lat="43.05078648445578" lon="10.715825485637536"><ele>35.0</ele><time>2026-04-19T08:48:52Z</time></trkpt><trkpt lat="43.05092672570747" lon="10.716007692836586"><ele>35.0</ele><time>2026-04-19T08:48:53Z</time></trkpt><trkpt lat="43.05107261642582" lon="10.716199907238167"><ele>35.0</ele><time>2026-04-19T08:48:54Z</time></trkpt><trkpt lat="43.05121191900672" lon="10.716381138144648"><ele>35.0</ele><time>2026-04-19T08:48:55Z</time></trkpt><trkpt lat="43.05134093887218" lon="10.716548671683398"><ele>35.0</ele><time>2026-04-19T08:48:56Z</time></trkpt><trkpt lat="43.05146746918029" lon="10.716709813768095"><ele>35.0</ele><time>2026-04-19T08:48:57Z</time></trkpt><trkpt lat="43.0515956376429" lon="10.716874803468142"><ele>35.0</ele><time>2026-04-19T08:48:58Z</time></trkpt><trkpt lat="43.05171679528017" lon="10.71702860109458"><ele>35.0</ele><time>2026-04-19T08:48:59Z</time></trkpt><trkpt lat="43.05182185692764" lon="10.717163152712793"><ele>35.75</ele><time>2026-04-19T08:49:00Z</time></trkpt><trkpt lat="43.05192676801991" lon="10.71729708953744"><ele>36.5</ele><time>2026-04-19T08:49:01Z</time></trkpt><trkpt lat="43.052027712519994" lon="10.717425146729562"><ele>37.25</ele><time>2026-04-19T08:49:02Z</time></trkpt><trkpt lat="43.05212007289675" lon="10.717537902042672"><ele>38.0</ele><time>2026-04-19T08:49:03Z</time></trkpt><trkpt lat="43.05219184383212" lon="10.717638271731579"><ele>38.0</ele><time>2026-04-19T08:49:04Z</time></trkpt><trkpt lat="43.05224852559808" lon="10.71771386733681"><ele>38.0</ele><time>2026-04-19T08:49:05Z</time></trkpt><trkpt lat="43.052294991142105" lon="10.717782351563828"><ele>38.0</ele><time>2026-04-19T08:49:06Z</time></trkpt><trkpt lat="43.05235126488386" lon="10.717855611685845"><ele>38.0</ele><time>2026-04-19T08:49:07Z</time></trkpt><trkpt lat="43.0524198648269" lon="10.717941072806983"><ele>38.0</ele><time>2026-04-19T08:49:08Z</time></trkpt><trkpt lat="43.052505028390726" lon="10.718041754799469"><ele>38.0</ele><time>2026-04-19T08:49:09Z</time></trkpt><trkpt lat="43.052629633585376" lon="10.718223532223023"><ele>38.5</ele><time>2026-04-19T08:49:10Z</time></trkpt><trkpt lat="43.0528047722898" lon="10.718447936754762"><ele>39.0</ele><time>2026-04-19T08:49:11Z</time></trkpt><trkpt lat="43.05300901536433" lon="10.718683036762426"><ele>39.0</ele><time>2026-04-19T08:49:12Z</time></trkpt><trkpt lat="43.05322259343125" lon="10.718967865551319"><ele>39.0</ele><time>2026-04-19T08:49:13Z</time></trkpt><trkpt lat="43.05343641443374" lon="10.719252001192007"><ele>42.0</ele><time>2026-04-19T08:49:14Z</time></trkpt><trkpt lat="43.05365974819723" lon="10.719543492158307"><ele>45.0</ele><time>2026-04-19T08:49:15Z</time></trkpt><trkpt lat="43.05386956421669" lon="10.719815046735784"><ele>45.0</ele><time>2026-04-19T08:49:16Z</time></trkpt><trkpt lat="43.05406076773067" lon="10.720057913767409"><ele>45.0</ele><time>2026-04-19T08:49:17Z</time></trkpt><trkpt lat="43.05422836923782" lon="10.720276660339758"><ele>45.0</ele><time>2026-04-19T08:49:18Z</time></trkpt><trkpt lat="43.054386540454935" lon="10.720483288573414"><ele>45.0</ele><time>2026-04-19T08:49:19Z</time></trkpt><trkpt lat="43.05453093682395" lon="10.72067173553552"><ele>45.0</ele><time>2026-04-19T08:49:20Z</time></trkpt><trkpt lat="43.0546656710391" lon="10.720851392378107"><ele>45.0</ele><time>2026-04-19T08:49:21Z</time></trkpt><trkpt lat="43.05478564097623" lon="10.721013122931762"><ele>45.0</ele><time>2026-04-19T08:49:22Z</time></trkpt><trkpt lat="43.05490386363278" lon="10.72116872149137"><ele>45.0</ele><time>2026-04-19T08:49:23Z</time></trkpt><trkpt lat="43.05501686480054" lon="10.721318259632653"><ele>45.5</ele><time>2026-04-19T08:49:24Z</time></trkpt><trkpt lat="43.05512166034753" lon="10.72144942903278"><ele>46.0</ele><time>2026-04-19T08:49:25Z</time></trkpt><trkpt lat="43.055216753317666" lon="10.721564654144796"><ele>46.5</ele><time>2026-04-19T08:49:26Z</time></trkpt><trkpt lat="43.05529970197008" lon="10.721674285142447"><ele>47.0</ele><time>2026-04-19T08:49:27Z</time></trkpt><trkpt lat="43.055361973384336" lon="10.721773111168439"><ele>47.0</ele><time>2026-04-19T08:49:28Z</time></trkpt><trkpt lat="43.05538981803785" lon="10.7218567532492"><ele>47.0</ele><time>2026-04-19T08:49:29Z</time></trkpt><trkpt lat="43.0553913864069" lon="10.721948233860441"><ele>47.0</ele><time>2026-04-19T08:49:38Z</time></trkpt><trkpt lat="43.05549796127314" lon="10.722042197474348"><ele>47.0</ele><time>2026-04-19T08:49:40Z</time></trkpt><trkpt lat="43.05560216751398" lon="10.722066022344283"><ele>47.0</ele><time>2026-04-19T08:49:41Z</time></trkpt><trkpt lat="43.055723851920234" lon="10.722096330349691"><ele>49.33333333333333</ele><time>2026-04-19T08:49:42Z</time></trkpt><trkpt lat="43.055857803863454" lon="10.722144825612517"><ele>51.666666666666664</ele><time>2026-04-19T08:49:43Z</time></trkpt><trkpt lat="43.05601201715779" lon="10.722196894812674"><ele>54.0</ele><time>2026-04-19T08:49:44Z</time></trkpt><trkpt lat="43.05617485825505" lon="10.722250578563626"><ele>54.0</ele><time>2026-04-19T08:49:45Z</time></trkpt><trkpt lat="43.05634890443629" lon="10.722305994208483"><ele>54.0</ele><time>2026-04-19T08:49:46Z</time></trkpt><trkpt lat="43.05654392552551" lon="10.72236857603001"><ele>54.0</ele><time>2026-04-19T08:49:47Z</time></trkpt><trkpt lat="43.05675134593747" lon="10.722436405507496"><ele>54.33333333333333</ele><time>2026-04-19T08:49:48Z</time></trkpt><trkpt lat="43.05696183666155" lon="10.722505280235374"><ele>54.666666666666664</ele><time>2026-04-19T08:49:49Z</time></trkpt><trkpt lat="43.05718069102131" lon="10.722576790685002"><ele>55.0</ele><time>2026-04-19T08:49:50Z</time></trkpt><trkpt lat="43.0574128329498" lon="10.722650662869357"><ele>53.0</ele><time>2026-04-19T08:49:51Z</time></trkpt><trkpt lat="43.05764245193922" lon="10.722726289212975"><ele>51.0</ele><time>2026-04-19T08:49:52Z</time></trkpt><trkpt lat="43.057882774804334" lon="10.722802448237525"><ele>51.0</ele><time>2026-04-19T08:49:53Z</time></trkpt><trkpt lat="43.05812472063962" lon="10.722879399639284"><ele>51.0</ele><time>2026-04-19T08:49:54Z</time></trkpt><trkpt lat="43.05835752392135" lon="10.722954280173065"><ele>48.5</ele><time>2026-04-19T08:49:55Z</time></trkpt><trkpt lat="43.05859030150675" lon="10.723032154889989"><ele>46.0</ele><time>2026-04-19T08:49:56Z</time></trkpt><trkpt lat="43.05882806006072" lon="10.723109762941743"><ele>46.0</ele><time>2026-04-19T08:49:57Z</time></trkpt><trkpt lat="43.05905982389413" lon="10.723185964608103"><ele>46.0</ele><time>2026-04-19T08:49:58Z</time></trkpt><trkpt lat="43.059295154850886" lon="10.723262040308661"><ele>45.0</ele><time>2026-04-19T08:49:59Z</time></trkpt><trkpt lat="43.059533119072654" lon="10.723339888302053"><ele>44.0</ele><time>2026-04-19T08:50:00Z</time></trkpt><trkpt lat="43.05977385216802" lon="10.723414437989529"><ele>44.5</ele><time>2026-04-19T08:50:01Z</time></trkpt><trkpt lat="43.06001087632856" lon="10.723491682935919"><ele>45.0</ele><time>2026-04-19T08:50:02Z</time></trkpt><trkpt lat="43.060243326337" lon="10.723573161179667"><ele>45.0</ele><time>2026-04-19T08:50:03Z</time></trkpt><trkpt lat="43.060480833477754" lon="10.723648660059991"><ele>45.0</ele><time>2026-04-19T08:50:04Z</time></trkpt><trkpt lat="43.0607103510355" lon="10.7237228875217"><ele>45.0</ele><time>2026-04-19T08:50:05Z</time></trkpt><trkpt lat="43.06093776596372" lon="10.72379742128045"><ele>45.0</ele><time>2026-04-19T08:50:06Z</time></trkpt><trkpt lat="43.06116804095685" lon="10.72387217137254"><ele>45.0</ele><time>2026-04-19T08:50:07Z</time></trkpt><trkpt lat="43.06139227772525" lon="10.72393871263871"><ele>45.0</ele><time>2026-04-19T08:50:08Z</time></trkpt><trkpt lat="43.06162118913352" lon="10.723992981595265"><ele>44.5</ele><time>2026-04-19T08:50:09Z</time></trkpt><trkpt lat="43.061853114561515" lon="10.724021485959408"><ele>44.0</ele><time>2026-04-19T08:50:10Z</time></trkpt><trkpt lat="43.062083001646464" lon="10.724028424166924"><ele>44.0</ele><time>2026-04-19T08:50:11Z</time></trkpt><trkpt lat="43.06231003008586" lon="10.724012140086499"><ele>44.0</ele><time>2026-04-19T08:50:12Z</time></trkpt><trkpt lat="43.06253869758185" lon="10.723979629548328"><ele>44.5</ele><time>2026-04-19T08:50:13Z</time></trkpt><trkpt lat="43.0627673635382" lon="10.72393573226058"><ele>45.0</ele><time>2026-04-19T08:50:14Z</time></trkpt><trkpt lat="43.06300002397158" lon="10.723892405404664"><ele>45.0</ele><time>2026-04-19T08:50:15Z</time></trkpt><trkpt lat="43.063235333405316" lon="10.723850098103982"><ele>45.0</ele><time>2026-04-19T08:50:16Z</time></trkpt><trkpt lat="43.06346830442317" lon="10.723812349954063"><ele>45.5</ele><time>2026-04-19T08:50:17Z</time></trkpt><trkpt lat="43.063704471886744" lon="10.723778753563904"><ele>46.0</ele><time>2026-04-19T08:50:18Z</time></trkpt><trkpt lat="43.06394278522338" lon="10.723740570702402"><ele>45.0</ele><time>2026-04-19T08:50:19Z</time></trkpt><trkpt lat="43.06417687434434" lon="10.723704252564184"><ele>44.0</ele><time>2026-04-19T08:50:20Z</time></trkpt><trkpt lat="43.06442111550808" lon="10.723665325963768"><ele>44.0</ele><time>2026-04-19T08:50:21Z</time></trkpt><trkpt lat="43.06466254701545" lon="10.723628878233741"><ele>44.0</ele><time>2026-04-19T08:50:22Z</time></trkpt><trkpt lat="43.06490908911598" lon="10.72359126255659"><ele>44.5</ele><time>2026-04-19T08:50:23Z</time></trkpt><trkpt lat="43.0651622877356" lon="10.723548996311239"><ele>45.0</ele><time>2026-04-19T08:50:24Z</time></trkpt><trkpt lat="43.065419974184834" lon="10.723507529661928"><ele>45.0</ele><time>2026-04-19T08:50:25Z</time></trkpt><trkpt lat="43.06565650840645" lon="10.723466959416069"><ele>45.0</ele><time>2026-04-19T08:50:26Z</time></trkpt><trkpt lat="43.0658692997693" lon="10.72343515397564"><ele>45.0</ele><time>2026-04-19T08:50:27Z</time></trkpt><trkpt lat="43.0660847557246" lon="10.72340023641528"><ele>45.0</ele><time>2026-04-19T08:50:28Z</time></trkpt><trkpt lat="43.06629143754255" lon="10.723345992386045"><ele>45.0</ele><time>2026-04-19T08:50:29Z</time></trkpt><trkpt lat="43.06649193023449" lon="10.7232557686329"><ele>45.0</ele><time>2026-04-19T08:50:30Z</time></trkpt><trkpt lat="43.06667789897697" lon="10.723138119145352"><ele>45.0</ele><time>2026-04-19T08:50:31Z</time></trkpt><trkpt lat="43.066864364947286" lon="10.722999711860377"><ele>45.0</ele><time>2026-04-19T08:50:32Z</time></trkpt><trkpt lat="43.06703648496097" lon="10.722856470575948"><ele>45.333333333333336</ele><time>2026-04-19T08:50:33Z</time></trkpt><trkpt lat="43.0671929836844" lon="10.722727795965564"><ele>45.66666666666667</ele><time>2026-04-19T08:50:34Z</time></trkpt><trkpt lat="43.067341349325716" lon="10.722616423956351"><ele>46.0</ele><time>2026-04-19T08:50:35Z</time></trkpt><trkpt lat="43.06748520368432" lon="10.72251151765012"><ele>46.0</ele><time>2026-04-19T08:50:36Z</time></trkpt><trkpt lat="43.067631700632774" lon="10.72240004756109"><ele>46.0</ele><time>2026-04-19T08:50:37Z</time></trkpt><trkpt lat="43.06778210921212" lon="10.722266606648024"><ele>46.0</ele><time>2026-04-19T08:50:38Z</time></trkpt><trkpt lat="43.06792251026329" lon="10.72209638552177"><ele>45.66666666666667</ele><time>2026-04-19T08:50:39Z</time></trkpt><trkpt lat="43.06804699123539" lon="10.721886088225247"><ele>45.333333333333336</ele><time>2026-04-19T08:50:40Z</time></trkpt><trkpt lat="43.068161825181136" lon="10.721640419784157"><ele>45.0</ele><time>2026-04-19T08:50:41Z</time></trkpt><trkpt lat="43.0682750753809" lon="10.72138235548342"><ele>45.0</ele><time>2026-04-19T08:50:42Z</time></trkpt><trkpt lat="43.06838977821012" lon="10.721129070049042"><ele>45.0</ele><time>2026-04-19T08:50:43Z</time></trkpt><trkpt lat="43.06850955964503" lon="10.720869291864975"><ele>45.0</ele><time>2026-04-19T08:50:44Z</time></trkpt><trkpt lat="43.068638110565686" lon="10.720591500261769"><ele>44.5</ele><time>2026-04-19T08:50:45Z</time></trkpt><trkpt lat="43.06876458288291" lon="10.720319746748423"><ele>44.0</ele><time>2026-04-19T08:50:46Z</time></trkpt><trkpt lat="43.06889180967036" lon="10.720049409563352"><ele>44.0</ele><time>2026-04-19T08:50:47Z</time></trkpt><trkpt lat="43.069023847395" lon="10.719769870793911"><ele>44.0</ele><time>2026-04-19T08:50:48Z</time></trkpt><trkpt lat="43.069153714510726" lon="10.719496190302245"><ele>44.0</ele><time>2026-04-19T08:50:49Z</time></trkpt><trkpt lat="43.06927456136035" lon="10.719225237574515"><ele>44.0</ele><time>2026-04-19T08:50:50Z</time></trkpt><trkpt lat="43.06940653755658" lon="10.718958065896938"><ele>44.0</ele><time>2026-04-19T08:50:51Z</time></trkpt><trkpt lat="43.06953365164802" lon="10.718692385123584"><ele>44.0</ele><time>2026-04-19T08:50:52Z</time></trkpt><trkpt lat="43.069650779898815" lon="10.718429809920691"><ele>44.0</ele><time>2026-04-19T08:50:53Z</time></trkpt><trkpt lat="43.0697683134873" lon="10.718174840759545"><ele>44.0</ele><time>2026-04-19T08:50:54Z</time></trkpt><trkpt lat="43.0698869035433" lon="10.717926920972076"><ele>44.0</ele><time>2026-04-19T08:50:55Z</time></trkpt><trkpt lat="43.070004773464234" lon="10.71767473148949"><ele>44.0</ele><time>2026-04-19T08:50:56Z</time></trkpt><trkpt lat="43.07012401523377" lon="10.717418430760294"><ele>44.0</ele><time>2026-04-19T08:50:57Z</time></trkpt><trkpt lat="43.07024289925755" lon="10.717156774013139"><ele>44.0</ele><time>2026-04-19T08:50:58Z</time></trkpt><trkpt lat="43.07036254828537" lon="10.716896938683224"><ele>44.0</ele><time>2026-04-19T08:50:59Z</time></trkpt><trkpt lat="43.070485464753" lon="10.716632854863079"><ele>44.0</ele><time>2026-04-19T08:51:00Z</time></trkpt><trkpt lat="43.07060898669031" lon="10.716365690539243"><ele>44.0</ele><time>2026-04-19T08:51:01Z</time></trkpt><trkpt lat="43.070733595212666" lon="10.716094224934608"><ele>44.0</ele><time>2026-04-19T08:51:02Z</time></trkpt><trkpt lat="43.07085847198028" lon="10.715825057498032"><ele>44.0</ele><time>2026-04-19T08:51:03Z</time></trkpt><trkpt lat="43.07097530030398" lon="10.71557939525962"><ele>44.0</ele><time>2026-04-19T08:51:04Z</time></trkpt><trkpt lat="43.07108496768323" lon="10.715347211063612"><ele>44.0</ele><time>2026-04-19T08:51:05Z</time></trkpt><trkpt lat="43.07119019093644" lon="10.715124715590216"><ele>44.0</ele><time>2026-04-19T08:51:06Z</time></trkpt><trkpt lat="43.071282878645235" lon="10.714920435795044"><ele>44.0</ele><time>2026-04-19T08:51:07Z</time></trkpt><trkpt lat="43.07137058626543" lon="10.714727898064968"><ele>44.0</ele><time>2026-04-19T08:51:08Z</time></trkpt><trkpt lat="43.07144876635874" lon="10.71455526715472"><ele>44.0</ele><time>2026-04-19T08:51:09Z</time></trkpt><trkpt lat="43.07151603600575" lon="10.714422109796296"><ele>44.0</ele><time>2026-04-19T08:51:10Z</time></trkpt><trkpt lat="43.071582070507695" lon="10.714331937668987"><ele>44.0</ele><time>2026-04-19T08:51:11Z</time></trkpt><trkpt lat="43.071659751887175" lon="10.714290664548363"><ele>44.0</ele><time>2026-04-19T08:51:12Z</time></trkpt><trkpt lat="43.071715018932565" lon="10.714209302046784"><ele>44.0</ele><time>2026-04-19T08:51:14Z</time></trkpt><trkpt lat="43.07190174826781" lon="10.714435790612177"><ele>44.0</ele><time>2026-04-19T08:51:15Z</time></trkpt><trkpt lat="43.071982525548776" lon="10.714558103874946"><ele>44.0</ele><time>2026-04-19T08:51:16Z</time></trkpt><trkpt lat="43.07208755714048" lon="10.714707157259898"><ele>44.0</ele><time>2026-04-19T08:51:17Z</time></trkpt><trkpt lat="43.07222945427022" lon="10.714885469419649"><ele>44.0</ele><time>2026-04-19T08:51:18Z</time></trkpt><trkpt lat="43.07240358122918" lon="10.715099370104635"><ele>44.0</ele><time>2026-04-19T08:51:19Z</time></trkpt><trkpt lat="43.07260193623558" lon="10.715346661449685"><ele>44.5</ele><time>2026-04-19T08:51:20Z</time></trkpt><trkpt lat="43.07282524965959" lon="10.71562377151768"><ele>45.0</ele><time>2026-04-19T08:51:21Z</time></trkpt><trkpt lat="43.07309011731156" lon="10.715953010065546"><ele>45.0</ele><time>2026-04-19T08:51:22Z</time></trkpt><trkpt lat="43.07336084778513" lon="10.716290325521323"><ele>45.0</ele><time>2026-04-19T08:51:23Z</time></trkpt><trkpt lat="43.07362547195316" lon="10.716621578997056"><ele>45.0</ele><time>2026-04-19T08:51:24Z</time></trkpt><trkpt lat="43.07388603075358" lon="10.716947696177165"><ele>45.0</ele><time>2026-04-19T08:51:25Z</time></trkpt><trkpt lat="43.074140650471634" lon="10.717263598936047"><ele>45.0</ele><time>2026-04-19T08:51:26Z</time></trkpt><trkpt lat="43.074392083581984" lon="10.717574863159742"><ele>45.0</ele><time>2026-04-19T08:51:27Z</time></trkpt><trkpt lat="43.07463419700951" lon="10.717875206642267"><ele>45.0</ele><time>2026-04-19T08:51:28Z</time></trkpt><trkpt lat="43.07487090264547" lon="10.718170001646447"><ele>45.0</ele><time>2026-04-19T08:51:29Z</time></trkpt><trkpt lat="43.075105680187214" lon="10.718463794742446"><ele>45.5</ele><time>2026-04-19T08:51:30Z</time></trkpt><trkpt lat="43.07533342549519" lon="10.718747946442692"><ele>46.0</ele><time>2026-04-19T08:51:31Z</time></trkpt><trkpt lat="43.07555611626153" lon="10.71902532040373"><ele>46.5</ele><time>2026-04-19T08:51:32Z</time></trkpt><trkpt lat="43.075772555407" lon="10.719296199319851"><ele>47.0</ele><time>2026-04-19T08:51:33Z</time></trkpt><trkpt lat="43.075984312915566" lon="10.719558586825249"><ele>47.0</ele><time>2026-04-19T08:51:34Z</time></trkpt><trkpt lat="43.07619521437654" lon="10.719820909260353"><ele>47.0</ele><time>2026-04-19T08:51:35Z</time></trkpt><trkpt lat="43.076404728603414" lon="10.720082185212377"><ele>46.0</ele><time>2026-04-19T08:51:36Z</time></trkpt><trkpt lat="43.07661529520862" lon="10.72034617826418"><ele>45.0</ele><time>2026-04-19T08:51:37Z</time></trkpt><trkpt lat="43.076823264934056" lon="10.720606599180027"><ele>45.0</ele><time>2026-04-19T08:51:38Z</time></trkpt><trkpt lat="43.07703149987183" lon="10.720865094023216"><ele>45.0</ele><time>2026-04-19T08:51:39Z</time></trkpt><trkpt lat="43.077238809479496" lon="10.7211217623584"><ele>45.5</ele><time>2026-04-19T08:51:40Z</time></trkpt><trkpt lat="43.07744846920911" lon="10.721381965199273"><ele>46.0</ele><time>2026-04-19T08:51:41Z</time></trkpt><trkpt lat="43.077654647236095" lon="10.721639694100082"><ele>46.0</ele><time>2026-04-19T08:51:42Z</time></trkpt><trkpt lat="43.077859579122325" lon="10.72189487319119"><ele>46.0</ele><time>2026-04-19T08:51:43Z</time></trkpt><trkpt lat="43.07806637202775" lon="10.722156551797559"><ele>46.5</ele><time>2026-04-19T08:51:44Z</time></trkpt><trkpt lat="43.0782700322095" lon="10.722414521033706"><ele>47.0</ele><time>2026-04-19T08:51:45Z</time></trkpt><trkpt lat="43.078476753255906" lon="10.722670877615228"><ele>47.0</ele><time>2026-04-19T08:51:46Z</time></trkpt><trkpt lat="43.078686431215395" lon="10.722932457667884"><ele>47.0</ele><time>2026-04-19T08:51:47Z</time></trkpt><trkpt lat="43.07889510771425" lon="10.723192644616457"><ele>47.0</ele><time>2026-04-19T08:51:48Z</time></trkpt><trkpt lat="43.079106539745375" lon="10.723455181401786"><ele>47.0</ele><time>2026-04-19T08:51:49Z</time></trkpt><trkpt lat="43.079318468156714" lon="10.723718526516526"><ele>47.5</ele><time>2026-04-19T08:51:50Z</time></trkpt><trkpt lat="43.079527224077005" lon="10.723986689471952"><ele>48.0</ele><time>2026-04-19T08:51:51Z</time></trkpt><trkpt lat="43.07973919865682" lon="10.724248236021818"><ele>48.0</ele><time>2026-04-19T08:51:52Z</time></trkpt><trkpt lat="43.07995372480434" lon="10.724516328299599"><ele>48.0</ele><time>2026-04-19T08:51:53Z</time></trkpt><trkpt lat="43.08016399407016" lon="10.724780449503502"><ele>48.0</ele><time>2026-04-19T08:51:54Z</time></trkpt><trkpt lat="43.080377452533305" lon="10.725042107217744"><ele>48.0</ele><time>2026-04-19T08:51:55Z</time></trkpt><trkpt lat="43.0805911541901" lon="10.725306228061097"><ele>48.5</ele><time>2026-04-19T08:51:56Z</time></trkpt><trkpt lat="43.0808044826927" lon="10.725571090899775"><ele>49.0</ele><time>2026-04-19T08:51:57Z</time></trkpt><trkpt lat="43.08101580096229" lon="10.725833828268343"><ele>49.0</ele><time>2026-04-19T08:51:58Z</time></trkpt><trkpt lat="43.08123061128569" lon="10.726103605951394"><ele>49.0</ele><time>2026-04-19T08:51:59Z</time></trkpt><trkpt lat="43.08144301642635" lon="10.726367336361886"><ele>49.0</ele><time>2026-04-19T08:52:00Z</time></trkpt><trkpt lat="43.08165883989768" lon="10.726635794811804"><ele>49.0</ele><time>2026-04-19T08:52:01Z</time></trkpt><trkpt lat="43.081877783512134" lon="10.72690845562768"><ele>48.5</ele><time>2026-04-19T08:52:02Z</time></trkpt><trkpt lat="43.08209818051992" lon="10.727180727857808"><ele>48.0</ele><time>2026-04-19T08:52:03Z</time></trkpt><trkpt lat="43.08231417783107" lon="10.727448550161894"><ele>48.5</ele><time>2026-04-19T08:52:04Z</time></trkpt><trkpt lat="43.08252622534009" lon="10.72771367216832"><ele>49.0</ele><time>2026-04-19T08:52:05Z</time></trkpt><trkpt lat="43.08273140354372" lon="10.727970134726993"><ele>49.5</ele><time>2026-04-19T08:52:06Z</time></trkpt><trkpt lat="43.08292528194576" lon="10.72821363456375"><ele>50.0</ele><time>2026-04-19T08:52:07Z</time></trkpt><trkpt lat="43.08310387678197" lon="10.728436742886005"><ele>51.0</ele><time>2026-04-19T08:52:08Z</time></trkpt><trkpt lat="43.08327582100881" lon="10.728654172597905"><ele>52.0</ele><time>2026-04-19T08:52:09Z</time></trkpt><trkpt lat="43.08345468337924" lon="10.72887052507228"><ele>52.0</ele><time>2026-04-19T08:52:10Z</time></trkpt><trkpt lat="43.08365732957778" lon="10.729051761463568"><ele>52.0</ele><time>2026-04-19T08:52:11Z</time></trkpt><trkpt lat="43.08389562912724" lon="10.729158768520238"><ele>52.5</ele><time>2026-04-19T08:52:12Z</time></trkpt><trkpt lat="43.08415849767212" lon="10.729205598377389"><ele>53.0</ele><time>2026-04-19T08:52:13Z</time></trkpt><trkpt lat="43.08443156645978" lon="10.729244937699196"><ele>53.0</ele><time>2026-04-19T08:52:14Z</time></trkpt><trkpt lat="43.08470792565374" lon="10.729300164041744"><ele>53.0</ele><time>2026-04-19T08:52:15Z</time></trkpt><trkpt lat="43.084986194647946" lon="10.729359471592474"><ele>54.0</ele><time>2026-04-19T08:52:16Z</time></trkpt><trkpt lat="43.08526219510726" lon="10.72941867863293"><ele>55.0</ele><time>2026-04-19T08:52:17Z</time></trkpt><trkpt lat="43.08553493243323" lon="10.729478900776547"><ele>56.0</ele><time>2026-04-19T08:52:18Z</time></trkpt><trkpt lat="43.08580745017559" lon="10.729540050433908"><ele>57.0</ele><time>2026-04-19T08:52:19Z</time></trkpt><trkpt lat="43.08607956259683" lon="10.729597687278572"><ele>57.0</ele><time>2026-04-19T08:52:20Z</time></trkpt><trkpt lat="43.086349531534545" lon="10.729654687928543"><ele>57.0</ele><time>2026-04-19T08:52:21Z</time></trkpt><trkpt lat="43.08661814423142" lon="10.729709140304664"><ele>56.5</ele><time>2026-04-19T08:52:22Z</time></trkpt><trkpt lat="43.086880509890634" lon="10.729769135715374"><ele>56.0</ele><time>2026-04-19T08:52:23Z</time></trkpt><trkpt lat="43.087136391152015" lon="10.729828831441544"><ele>56.0</ele><time>2026-04-19T08:52:24Z</time></trkpt><trkpt lat="43.087391514153396" lon="10.729887635297267"><ele>56.0</ele><time>2026-04-19T08:52:25Z</time></trkpt><trkpt lat="43.087647406582825" lon="10.729929453538984"><ele>56.0</ele><time>2026-04-19T08:52:26Z</time></trkpt><trkpt lat="43.08790279010703" lon="10.72991750576101"><ele>56.0</ele><time>2026-04-19T08:52:27Z</time></trkpt><trkpt lat="43.0881575012084" lon="10.729849973312408"><ele>56.0</ele><time>2026-04-19T08:52:28Z</time></trkpt><trkpt lat="43.088409266958976" lon="10.729760298687886"><ele>56.0</ele><time>2026-04-19T08:52:29Z</time></trkpt><trkpt lat="43.08865829079332" lon="10.72967408704978"><ele>56.0</ele><time>2026-04-19T08:52:30Z</time></trkpt><trkpt lat="43.088926566192875" lon="10.729615293083649"><ele>56.0</ele><time>2026-04-19T08:52:31Z</time></trkpt><trkpt lat="43.08918458775933" lon="10.729546227306212"><ele>56.5</ele><time>2026-04-19T08:52:32Z</time></trkpt><trkpt lat="43.08944371431152" lon="10.729473020833524"><ele>57.0</ele><time>2026-04-19T08:52:33Z</time></trkpt><trkpt lat="43.089706503244386" lon="10.729404456823644"><ele>57.5</ele><time>2026-04-19T08:52:34Z</time></trkpt><trkpt lat="43.08996726609683" lon="10.729340015687338"><ele>58.0</ele><time>2026-04-19T08:52:35Z</time></trkpt><trkpt lat="43.09023214546697" lon="10.729268767997144"><ele>58.0</ele><time>2026-04-19T08:52:36Z</time></trkpt><trkpt lat="43.09049823297011" lon="10.729192082447714"><ele>58.0</ele><time>2026-04-19T08:52:37Z</time></trkpt><trkpt lat="43.09076003282127" lon="10.729119844855434"><ele>59.0</ele><time>2026-04-19T08:52:38Z</time></trkpt><trkpt lat="43.09102796000423" lon="10.729050829673733"><ele>60.0</ele><time>2026-04-19T08:52:39Z</time></trkpt><trkpt lat="43.09129196151232" lon="10.72898143016179"><ele>60.0</ele><time>2026-04-19T08:52:40Z</time></trkpt><trkpt lat="43.09155737461158" lon="10.728914703519102"><ele>60.0</ele><time>2026-04-19T08:52:41Z</time></trkpt><trkpt lat="43.091808348287174" lon="10.728851929144037"><ele>60.0</ele><time>2026-04-19T08:52:42Z</time></trkpt><trkpt lat="43.09202276829969" lon="10.728795299975642"><ele>60.0</ele><time>2026-04-19T08:52:43Z</time></trkpt><trkpt lat="43.092226914152434" lon="10.728738082029945"><ele>60.0</ele><time>2026-04-19T08:52:44Z</time></trkpt><trkpt lat="43.092429842561245" lon="10.728686038020271"><ele>60.0</ele><time>2026-04-19T08:52:45Z</time></trkpt><trkpt lat="43.09263731959943" lon="10.728632253284337"><ele>60.0</ele><time>2026-04-19T08:52:46Z</time></trkpt><trkpt lat="43.092845802585806" lon="10.728574990607562"><ele>60.0</ele><time>2026-04-19T08:52:47Z</time></trkpt><trkpt lat="43.09306002658063" lon="10.728520047881394"><ele>61.0</ele><time>2026-04-19T08:52:48Z</time></trkpt><trkpt lat="43.093275144344645" lon="10.728465564865694"><ele>62.0</ele><time>2026-04-19T08:52:49Z</time></trkpt><trkpt lat="43.09349418592617" lon="10.728408032400699"><ele>63.0</ele><time>2026-04-19T08:52:50Z</time></trkpt><trkpt lat="43.09370756348653" lon="10.72834482497649"><ele>63.0</ele><time>2026-04-19T08:52:51Z</time></trkpt><trkpt lat="43.09392292238725" lon="10.728271715142238"><ele>63.0</ele><time>2026-04-19T08:52:52Z</time></trkpt><trkpt lat="43.094136835412485" lon="10.728182944643716"><ele>63.0</ele><time>2026-04-19T08:52:53Z</time></trkpt><trkpt lat="43.0943493110681" lon="10.72808819651722"><ele>62.0</ele><time>2026-04-19T08:52:54Z</time></trkpt><trkpt lat="43.09456138417692" lon="10.727991970801988"><ele>61.0</ele><time>2026-04-19T08:52:55Z</time></trkpt><trkpt lat="43.09499144449536" lon="10.72780146295185"><ele>59.5</ele><time>2026-04-19T08:52:57Z</time></trkpt><trkpt lat="43.09520736047692" lon="10.727703564190037"><ele>58.0</ele><time>2026-04-19T08:52:58Z</time></trkpt><trkpt lat="43.09541988688761" lon="10.727604035293039"><ele>58.0</ele><time>2026-04-19T08:52:59Z</time></trkpt><trkpt lat="43.09563066304975" lon="10.727506445117214"><ele>58.0</ele><time>2026-04-19T08:53:00Z</time></trkpt><trkpt lat="43.09584140170738" lon="10.727409776950228"><ele>58.0</ele><time>2026-04-19T08:53:01Z</time></trkpt><trkpt lat="43.09605473977994" lon="10.727309412935723"><ele>59.33333333333333</ele><time>2026-04-19T08:53:02Z</time></trkpt><trkpt lat="43.09626551524017" lon="10.727213809677897"><ele>60.66666666666667</ele><time>2026-04-19T08:53:03Z</time></trkpt><trkpt lat="43.096479373093615" lon="10.727114622060396"><ele>62.0</ele><time>2026-04-19T08:53:04Z</time></trkpt><trkpt lat="43.09669003214442" lon="10.72702275135393"><ele>62.0</ele><time>2026-04-19T08:53:05Z</time></trkpt><trkpt lat="43.096904235982954" lon="10.726923596268914"><ele>62.0</ele><time>2026-04-19T08:53:06Z</time></trkpt><trkpt lat="43.09712118407165" lon="10.726822863062262"><ele>61.5</ele><time>2026-04-19T08:53:07Z</time></trkpt><trkpt lat="43.09734378638343" lon="10.726721247842946"><ele>61.0</ele><time>2026-04-19T08:53:08Z</time></trkpt><trkpt lat="43.097569848309654" lon="10.7266236261333"><ele>61.0</ele><time>2026-04-19T08:53:09Z</time></trkpt><trkpt lat="43.09779338685308" lon="10.726523937140191"><ele>61.0</ele><time>2026-04-19T08:53:10Z</time></trkpt><trkpt lat="43.09802106930505" lon="10.726418676442648"><ele>61.0</ele><time>2026-04-19T08:53:11Z</time></trkpt><trkpt lat="43.09825027499598" lon="10.726311681032556"><ele>61.0</ele><time>2026-04-19T08:53:12Z</time></trkpt><trkpt lat="43.0984796471448" lon="10.726205929501113"><ele>61.5</ele><time>2026-04-19T08:53:13Z</time></trkpt><trkpt lat="43.098709272223225" lon="10.726105371489304"><ele>62.0</ele><time>2026-04-19T08:53:14Z</time></trkpt><trkpt lat="43.09894367122319" lon="10.726023726640463"><ele>65.0</ele><time>2026-04-19T08:53:15Z</time></trkpt><trkpt lat="43.099181056987156" lon="10.725979092748881"><ele>68.0</ele><time>2026-04-19T08:53:16Z</time></trkpt><trkpt lat="43.099427742951356" lon="10.725975003429497"><ele>68.0</ele><time>2026-04-19T08:53:17Z</time></trkpt><trkpt lat="43.09967225077557" lon="10.725995475035115"><ele>68.0</ele><time>2026-04-19T08:53:18Z</time></trkpt><trkpt lat="43.09992165292753" lon="10.726019617295785"><ele>71.0</ele><time>2026-04-19T08:53:19Z</time></trkpt><trkpt lat="43.10017971657388" lon="10.726028115882366"><ele>74.0</ele><time>2026-04-19T08:53:20Z</time></trkpt><trkpt lat="43.10043571307288" lon="10.726025038014358"><ele>74.0</ele><time>2026-04-19T08:53:21Z</time></trkpt><trkpt lat="43.10070273971533" lon="10.726019193707161"><ele>74.0</ele><time>2026-04-19T08:53:22Z</time></trkpt><trkpt lat="43.10096838074569" lon="10.726014102806278"><ele>70.5</ele><time>2026-04-19T08:53:23Z</time></trkpt><trkpt lat="43.10124197478436" lon="10.726005831394023"><ele>67.0</ele><time>2026-04-19T08:53:24Z</time></trkpt><trkpt lat="43.101517526599515" lon="10.725996437446629"><ele>66.5</ele><time>2026-04-19T08:53:25Z</time></trkpt><trkpt lat="43.101792088042565" lon="10.72598849272817"><ele>66.0</ele><time>2026-04-19T08:53:26Z</time></trkpt><trkpt lat="43.10206465991923" lon="10.725979829895357"><ele>66.0</ele><time>2026-04-19T08:53:27Z</time></trkpt><trkpt lat="43.10232816492989" lon="10.725966873835546"><ele>66.0</ele><time>2026-04-19T08:53:28Z</time></trkpt><trkpt lat="43.102580734452324" lon="10.725955821735257"><ele>66.5</ele><time>2026-04-19T08:53:29Z</time></trkpt><trkpt lat="43.10282297040551" lon="10.725945975928576"><ele>67.0</ele><time>2026-04-19T08:53:30Z</time></trkpt><trkpt lat="43.103063607885765" lon="10.725933840250141"><ele>67.5</ele><time>2026-04-19T08:53:31Z</time></trkpt><trkpt lat="43.10330346490998" lon="10.725922307213462"><ele>68.0</ele><time>2026-04-19T08:53:32Z</time></trkpt><trkpt lat="43.103541180022866" lon="10.725921386441227"><ele>68.0</ele><time>2026-04-19T08:53:33Z</time></trkpt><trkpt lat="43.10377365737697" lon="10.725936642343186"><ele>68.0</ele><time>2026-04-19T08:53:34Z</time></trkpt><trkpt lat="43.104009921197154" lon="10.72597783237971"><ele>66.5</ele><time>2026-04-19T08:53:35Z</time></trkpt><trkpt lat="43.104249696628635" lon="10.726034658568478"><ele>65.0</ele><time>2026-04-19T08:53:36Z</time></trkpt><trkpt lat="43.104492743201085" lon="10.726093822968139"><ele>68.0</ele><time>2026-04-19T08:53:37Z</time></trkpt><trkpt lat="43.10474056287693" lon="10.726147627583297"><ele>71.0</ele><time>2026-04-19T08:53:38Z</time></trkpt><trkpt lat="43.1049927839707" lon="10.726201530313713"><ele>71.0</ele><time>2026-04-19T08:53:39Z</time></trkpt><trkpt lat="43.10525046533719" lon="10.726259312715344"><ele>71.0</ele><time>2026-04-19T08:53:40Z</time></trkpt><trkpt lat="43.10550730124696" lon="10.72631757939074"><ele>71.0</ele><time>2026-04-19T08:53:41Z</time></trkpt><trkpt lat="43.105763555405254" lon="10.726375846641131"><ele>71.0</ele><time>2026-04-19T08:53:42Z</time></trkpt><trkpt lat="43.10601242227398" lon="10.72643084112601"><ele>71.0</ele><time>2026-04-19T08:53:43Z</time></trkpt><trkpt lat="43.10625853989465" lon="10.726484182081544"><ele>71.0</ele><time>2026-04-19T08:53:44Z</time></trkpt><trkpt lat="43.10649804980194" lon="10.726543507847396"><ele>71.5</ele><time>2026-04-19T08:53:45Z</time></trkpt><trkpt lat="43.106726143767645" lon="10.726603018386347"><ele>72.0</ele><time>2026-04-19T08:53:46Z</time></trkpt><trkpt lat="43.10693927091093" lon="10.726662973283453"><ele>72.0</ele><time>2026-04-19T08:53:47Z</time></trkpt><trkpt lat="43.10713712458811" lon="10.72672164357335"><ele>72.0</ele><time>2026-04-19T08:53:48Z</time></trkpt><trkpt lat="43.10732553914768" lon="10.726778395525"><ele>72.0</ele><time>2026-04-19T08:53:49Z</time></trkpt><trkpt lat="43.10751842457398" lon="10.726835554316523"><ele>71.66666666666667</ele><time>2026-04-19T08:53:50Z</time></trkpt><trkpt lat="43.10771156287409" lon="10.726891165723927"><ele>71.33333333333334</ele><time>2026-04-19T08:53:51Z</time></trkpt><trkpt lat="43.10790489616939" lon="10.726950838869179"><ele>71.0</ele><time>2026-04-19T08:53:52Z</time></trkpt><trkpt lat="43.10807232207212" lon="10.727008371551433"><ele>72.0</ele><time>2026-04-19T08:53:53Z</time></trkpt><trkpt lat="43.10822487795106" lon="10.727067596368805"><ele>73.0</ele><time>2026-04-19T08:53:54Z</time></trkpt><trkpt lat="43.108368698683684" lon="10.72713371408703"><ele>74.0</ele><time>2026-04-19T08:53:55Z</time></trkpt><trkpt lat="43.10848787387272" lon="10.72719263764798"><ele>75.0</ele><time>2026-04-19T08:53:56Z</time></trkpt><trkpt lat="43.10858989820846" lon="10.727249092926392"><ele>75.2</ele><time>2026-04-19T08:53:57Z</time></trkpt><trkpt lat="43.108668939693885" lon="10.727301750205779"><ele>75.4</ele><time>2026-04-19T08:53:58Z</time></trkpt><trkpt lat="43.108730809818596" lon="10.727335515237938"><ele>75.6</ele><time>2026-04-19T08:53:59Z</time></trkpt><trkpt lat="43.10882109860192" lon="10.727216815347926"><ele>75.8</ele><time>2026-04-19T08:54:01Z</time></trkpt><trkpt lat="43.10886624152792" lon="10.727093376370531"><ele>76.0</ele><time>2026-04-19T08:54:02Z</time></trkpt><trkpt lat="43.10892811941772" lon="10.726970720361944"><ele>74.33333333333333</ele><time>2026-04-19T08:54:03Z</time></trkpt><trkpt lat="43.108999084124626" lon="10.726818975481828"><ele>72.66666666666667</ele><time>2026-04-19T08:54:04Z</time></trkpt><trkpt lat="43.10909934942356" lon="10.72661696962523"><ele>71.0</ele><time>2026-04-19T08:54:05Z</time></trkpt><trkpt lat="43.10923210750297" lon="10.72640302923467"><ele>70.33333333333334</ele><time>2026-04-19T08:54:06Z</time></trkpt><trkpt lat="43.10937341189959" lon="10.726186065888806"><ele>69.66666666666667</ele><time>2026-04-19T08:54:07Z</time></trkpt><trkpt lat="43.109508130812195" lon="10.725957670273024"><ele>69.0</ele><time>2026-04-19T08:54:08Z</time></trkpt><trkpt lat="43.10964329197618" lon="10.72573067935637"><ele>69.0</ele><time>2026-04-19T08:54:09Z</time></trkpt><trkpt lat="43.109780594597304" lon="10.72551354434408"><ele>69.0</ele><time>2026-04-19T08:54:10Z</time></trkpt><trkpt lat="43.10992911770669" lon="10.725302032783889"><ele>69.0</ele><time>2026-04-19T08:54:11Z</time></trkpt><trkpt lat="43.11008177677745" lon="10.725116385717932"><ele>69.33333333333333</ele><time>2026-04-19T08:54:12Z</time></trkpt><trkpt lat="43.110233876297244" lon="10.724958417651276"><ele>69.66666666666666</ele><time>2026-04-19T08:54:13Z</time></trkpt><trkpt lat="43.11037835722216" lon="10.724825343998559"><ele>70.0</ele><time>2026-04-19T08:54:14Z</time></trkpt><trkpt lat="43.11051383137802" lon="10.724717559787052"><ele>70.0</ele><time>2026-04-19T08:54:15Z</time></trkpt><trkpt lat="43.11064069106232" lon="10.7246271422265"><ele>70.0</ele><time>2026-04-19T08:54:16Z</time></trkpt><trkpt lat="43.11075555006183" lon="10.724555359265079"><ele>70.0</ele><time>2026-04-19T08:54:17Z</time></trkpt><trkpt lat="43.110861923215495" lon="10.724487978747998"><ele>70.0</ele><time>2026-04-19T08:54:18Z</time></trkpt><trkpt lat="43.1109615290977" lon="10.724426408074583"><ele>70.0</ele><time>2026-04-19T08:54:19Z</time></trkpt><trkpt lat="43.11106142865036" lon="10.724368405461387"><ele>70.0</ele><time>2026-04-19T08:54:20Z</time></trkpt><trkpt lat="43.11116938991069" lon="10.724308862989428"><ele>70.0</ele><time>2026-04-19T08:54:21Z</time></trkpt><trkpt lat="43.11128162886992" lon="10.724247661574633"><ele>70.0</ele><time>2026-04-19T08:54:22Z</time></trkpt><trkpt lat="43.111390760211975" lon="10.72418388027187"><ele>70.0</ele><time>2026-04-19T08:54:23Z</time></trkpt><trkpt lat="43.11149567933739" lon="10.724124389868491"><ele>70.0</ele><time>2026-04-19T08:54:24Z</time></trkpt><trkpt lat="43.111600601577756" lon="10.724070044064145"><ele>70.0</ele><time>2026-04-19T08:54:25Z</time></trkpt><trkpt lat="43.11170855769633" lon="10.724015030743361"><ele>70.0</ele><time>2026-04-19T08:54:26Z</time></trkpt><trkpt lat="43.11181457817105" lon="10.7239573135189"><ele>69.4</ele><time>2026-04-19T08:54:27Z</time></trkpt><trkpt lat="43.11192207378732" lon="10.723895910141014"><ele>68.8</ele><time>2026-04-19T08:54:28Z</time></trkpt><trkpt lat="43.1120294453119" lon="10.723833946908123"><ele>68.2</ele><time>2026-04-19T08:54:29Z</time></trkpt><trkpt lat="43.112129479327635" lon="10.723777974086778"><ele>67.6</ele><time>2026-04-19T08:54:30Z</time></trkpt><trkpt lat="43.11221753300024" lon="10.723724714631341"><ele>67.0</ele><time>2026-04-19T08:54:31Z</time></trkpt><trkpt lat="43.11229637434955" lon="10.723662732514361"><ele>67.0</ele><time>2026-04-19T08:54:32Z</time></trkpt><trkpt lat="43.11237305534145" lon="10.723582453762578"><ele>67.0</ele><time>2026-04-19T08:54:33Z</time></trkpt><trkpt lat="43.11244018652965" lon="10.723478327578531"><ele>67.0</ele><time>2026-04-19T08:54:34Z</time></trkpt><trkpt lat="43.112494147543664" lon="10.723355016197049"><ele>67.0</ele><time>2026-04-19T08:54:35Z</time></trkpt><trkpt lat="43.11254392015477" lon="10.723226545822591"><ele>67.0</ele><time>2026-04-19T08:54:36Z</time></trkpt><trkpt lat="43.112578127549504" lon="10.723092387725865"><ele>67.75</ele><time>2026-04-19T08:54:37Z</time></trkpt><trkpt lat="43.11260004057375" lon="10.722944848093482"><ele>68.5</ele><time>2026-04-19T08:54:38Z</time></trkpt><trkpt lat="43.11260751934255" lon="10.72278954643398"><ele>69.25</ele><time>2026-04-19T08:54:39Z</time></trkpt><trkpt lat="43.11261486335495" lon="10.722624700544326"><ele>70.0</ele><time>2026-04-19T08:54:40Z</time></trkpt><trkpt lat="43.112620468884444" lon="10.722464157586558"><ele>70.5</ele><time>2026-04-19T08:54:41Z</time></trkpt><trkpt lat="43.112632951789124" lon="10.722302620683287"><ele>71.0</ele><time>2026-04-19T08:54:42Z</time></trkpt><trkpt lat="43.112640804967015" lon="10.722136637916988"><ele>71.5</ele><time>2026-04-19T08:54:43Z</time></trkpt><trkpt lat="43.11264907201946" lon="10.721977610053546"><ele>72.0</ele><time>2026-04-19T08:54:44Z</time></trkpt><trkpt lat="43.11266039743753" lon="10.721820920150508"><ele>72.5</ele><time>2026-04-19T08:54:45Z</time></trkpt><trkpt lat="43.11268531932236" lon="10.721668298901765"><ele>73.0</ele><time>2026-04-19T08:54:46Z</time></trkpt><trkpt lat="43.11272425031672" lon="10.721521960490739"><ele>73.5</ele><time>2026-04-19T08:54:47Z</time></trkpt><trkpt lat="43.11277933598098" lon="10.721381992214997"><ele>74.0</ele><time>2026-04-19T08:54:48Z</time></trkpt><trkpt lat="43.11284099573581" lon="10.721247621505691"><ele>74.0</ele><time>2026-04-19T08:54:49Z</time></trkpt><trkpt lat="43.11290853765028" lon="10.721114459395075"><ele>74.0</ele><time>2026-04-19T08:54:50Z</time></trkpt><trkpt lat="43.11298440937005" lon="10.720985707598873"><ele>74.0</ele><time>2026-04-19T08:54:51Z</time></trkpt><trkpt lat="43.11306958532203" lon="10.720866234745538"><ele>74.0</ele><time>2026-04-19T08:54:52Z</time></trkpt><trkpt lat="43.11316683501857" lon="10.720759799307777"><ele>75.0</ele><time>2026-04-19T08:54:53Z</time></trkpt><trkpt lat="43.11327009252256" lon="10.72067181277137"><ele>76.0</ele><time>2026-04-19T08:54:54Z</time></trkpt><trkpt lat="43.11338021567977" lon="10.72059336182132"><ele>77.0</ele><time>2026-04-19T08:54:55Z</time></trkpt><trkpt lat="43.113491001089116" lon="10.720528726027831"><ele>78.0</ele><time>2026-04-19T08:54:56Z</time></trkpt><trkpt lat="43.113598597243524" lon="10.720481174328869"><ele>78.0</ele><time>2026-04-19T08:54:57Z</time></trkpt><trkpt lat="43.11370788498361" lon="10.720442888122859"><ele>78.0</ele><time>2026-04-19T08:54:58Z</time></trkpt><trkpt lat="43.113820326580154" lon="10.720406361012378"><ele>78.0</ele><time>2026-04-19T08:54:59Z</time></trkpt><trkpt lat="43.11394153408261" lon="10.720376363686507"><ele>78.0</ele><time>2026-04-19T08:55:00Z</time></trkpt><trkpt lat="43.1140640035988" lon="10.720353449699902"><ele>80.5</ele><time>2026-04-19T08:55:01Z</time></trkpt><trkpt lat="43.11418811547642" lon="10.720337190203844"><ele>83.0</ele><time>2026-04-19T08:55:02Z</time></trkpt><trkpt lat="43.114318355714595" lon="10.72031946408342"><ele>85.5</ele><time>2026-04-19T08:55:03Z</time></trkpt><trkpt lat="43.114448505791" lon="10.720306274022159"><ele>88.0</ele><time>2026-04-19T08:55:04Z</time></trkpt><trkpt lat="43.11457833636821" lon="10.720297250657271"><ele>88.0</ele><time>2026-04-19T08:55:05Z</time></trkpt><trkpt lat="43.11470851193756" lon="10.720289079805273"><ele>88.0</ele><time>2026-04-19T08:55:06Z</time></trkpt><trkpt lat="43.11483528259671" lon="10.720272391177977"><ele>88.0</ele><time>2026-04-19T08:55:07Z</time></trkpt><trkpt lat="43.11496486872298" lon="10.72024681273513"><ele>88.0</ele><time>2026-04-19T08:55:08Z</time></trkpt><trkpt lat="43.11509276917092" lon="10.720214207306062"><ele>84.75</ele><time>2026-04-19T08:55:09Z</time></trkpt><trkpt lat="43.11522137690143" lon="10.720182622820966"><ele>81.5</ele><time>2026-04-19T08:55:10Z</time></trkpt><trkpt lat="43.11535537078699" lon="10.72014682307606"><ele>78.25</ele><time>2026-04-19T08:55:11Z</time></trkpt><trkpt lat="43.115487487739124" lon="10.72009782057543"><ele>75.0</ele><time>2026-04-19T08:55:12Z</time></trkpt><trkpt lat="43.11561911810221" lon="10.720051995543475"><ele>76.0</ele><time>2026-04-19T08:55:13Z</time></trkpt><trkpt lat="43.11575733100972" lon="10.720002444200077"><ele>77.0</ele><time>2026-04-19T08:55:14Z</time></trkpt><trkpt lat="43.11589392990021" lon="10.719952806091637"><ele>78.0</ele><time>2026-04-19T08:55:15Z</time></trkpt><trkpt lat="43.11602623517558" lon="10.719903643102633"><ele>79.0</ele><time>2026-04-19T08:55:16Z</time></trkpt><trkpt lat="43.11616112566428" lon="10.71986032037839"><ele>79.0</ele><time>2026-04-19T08:55:17Z</time></trkpt><trkpt lat="43.11628795214738" lon="10.719818375099461"><ele>79.0</ele><time>2026-04-19T08:55:18Z</time></trkpt><trkpt lat="43.11641699247255" lon="10.719773760630272"><ele>79.0</ele><time>2026-04-19T08:55:19Z</time></trkpt><trkpt lat="43.11654407433656" lon="10.719716142906904"><ele>79.0</ele><time>2026-04-19T08:55:20Z</time></trkpt><trkpt lat="43.116669180300065" lon="10.719652757667172"><ele>79.25</ele><time>2026-04-19T08:55:21Z</time></trkpt><trkpt lat="43.11679605869114" lon="10.719593700124019"><ele>79.5</ele><time>2026-04-19T08:55:22Z</time></trkpt><trkpt lat="43.11692001241086" lon="10.719531375124072"><ele>79.75</ele><time>2026-04-19T08:55:23Z</time></trkpt><trkpt lat="43.117044161491435" lon="10.719466567490121"><ele>80.0</ele><time>2026-04-19T08:55:24Z</time></trkpt><trkpt lat="43.11716753203629" lon="10.719406919695274"><ele>80.25</ele><time>2026-04-19T08:55:25Z</time></trkpt><trkpt lat="43.1172937610024" lon="10.719340448060475"><ele>80.5</ele><time>2026-04-19T08:55:26Z</time></trkpt><trkpt lat="43.11741613395222" lon="10.71927830529339"><ele>80.75</ele><time>2026-04-19T08:55:27Z</time></trkpt><trkpt lat="43.11753657530706" lon="10.71922590374289"><ele>81.0</ele><time>2026-04-19T08:55:28Z</time></trkpt><trkpt lat="43.11764985575782" lon="10.719185020580628"><ele>81.0</ele><time>2026-04-19T08:55:29Z</time></trkpt><trkpt lat="43.117759268855046" lon="10.719156319357797"><ele>81.0</ele><time>2026-04-19T08:55:30Z</time></trkpt><trkpt lat="43.11786735114692" lon="10.719151470348772"><ele>81.0</ele><time>2026-04-19T08:55:31Z</time></trkpt><trkpt lat="43.117976761770116" lon="10.719175329065308"><ele>81.0</ele><time>2026-04-19T08:55:32Z</time></trkpt><trkpt lat="43.118087941011005" lon="10.719228327835499"><ele>81.0</ele><time>2026-04-19T08:55:33Z</time></trkpt><trkpt lat="43.1181897240042" lon="10.719328738665107"><ele>84.33333333333333</ele><time>2026-04-19T08:55:34Z</time></trkpt><trkpt lat="43.11832845304094" lon="10.71945006916872"><ele>87.66666666666666</ele><time>2026-04-19T08:55:35Z</time></trkpt><trkpt lat="43.11850574831835" lon="10.719612087465618"><ele>91.0</ele><time>2026-04-19T08:55:36Z</time></trkpt><trkpt lat="43.11870564366712" lon="10.719794758458317"><ele>91.0</ele><time>2026-04-19T08:55:37Z</time></trkpt><trkpt lat="43.11890741789127" lon="10.719979146428276"><ele>91.0</ele><time>2026-04-19T08:55:38Z</time></trkpt><trkpt lat="43.11912421545482" lon="10.720162807424234"><ele>91.5</ele><time>2026-04-19T08:55:39Z</time></trkpt><trkpt lat="43.11933912118577" lon="10.72036201246703"><ele>92.0</ele><time>2026-04-19T08:55:40Z</time></trkpt><trkpt lat="43.11955306278026" lon="10.720556552973964"><ele>92.0</ele><time>2026-04-19T08:55:41Z</time></trkpt><trkpt lat="43.119753063157674" lon="10.720739967701027"><ele>92.0</ele><time>2026-04-19T08:55:42Z</time></trkpt><trkpt lat="43.11993723183264" lon="10.720911014733787"><ele>93.0</ele><time>2026-04-19T08:55:43Z</time></trkpt><trkpt lat="43.120108755584816" lon="10.721061094095543"><ele>94.0</ele><time>2026-04-19T08:55:44Z</time></trkpt><trkpt lat="43.120290777712505" lon="10.721188910197007"><ele>95.0</ele><time>2026-04-19T08:55:45Z</time></trkpt><trkpt lat="43.12048817452296" lon="10.721291462089665"><ele>95.0</ele><time>2026-04-19T08:55:46Z</time></trkpt><trkpt lat="43.120694912733796" lon="10.721363210223977"><ele>95.0</ele><time>2026-04-19T08:55:47Z</time></trkpt><trkpt lat="43.120919886788535" lon="10.721403022094547"><ele>95.0</ele><time>2026-04-19T08:55:48Z</time></trkpt><trkpt lat="43.12115155890944" lon="10.721430529813752"><ele>93.0</ele><time>2026-04-19T08:55:49Z</time></trkpt><trkpt lat="43.12138526127449" lon="10.72147054523446"><ele>91.0</ele><time>2026-04-19T08:55:50Z</time></trkpt><trkpt lat="43.121608661204284" lon="10.721513582121185"><ele>88.33333333333333</ele><time>2026-04-19T08:55:51Z</time></trkpt><trkpt lat="43.12181643262464" lon="10.721557515373725"><ele>85.66666666666667</ele><time>2026-04-19T08:55:52Z</time></trkpt><trkpt lat="43.12201478279232" lon="10.721595764421203"><ele>83.0</ele><time>2026-04-19T08:55:53Z</time></trkpt><trkpt lat="43.1222218279126" lon="10.72161413483878"><ele>81.33333333333334</ele><time>2026-04-19T08:55:54Z</time></trkpt><trkpt lat="43.1224294338527" lon="10.721576654770363"><ele>79.66666666666667</ele><time>2026-04-19T08:55:55Z</time></trkpt><trkpt lat="43.122630490120166" lon="10.721491420654244"><ele>78.0</ele><time>2026-04-19T08:55:56Z</time></trkpt><trkpt lat="43.12283373429373" lon="10.721367378097305"><ele>78.0</ele><time>2026-04-19T08:55:57Z</time></trkpt><trkpt lat="43.123042760747396" lon="10.721223964800638"><ele>78.0</ele><time>2026-04-19T08:55:58Z</time></trkpt><trkpt lat="43.12324630600035" lon="10.72107261543745"><ele>77.5</ele><time>2026-04-19T08:55:59Z</time></trkpt><trkpt lat="43.12345452314509" lon="10.720925176416864"><ele>77.0</ele><time>2026-04-19T08:56:00Z</time></trkpt><trkpt lat="43.12366540589749" lon="10.72078887479419"><ele>77.0</ele><time>2026-04-19T08:56:01Z</time></trkpt><trkpt lat="43.12386455388135" lon="10.720665268645265"><ele>77.0</ele><time>2026-04-19T08:56:02Z</time></trkpt><trkpt lat="43.12405756613052" lon="10.72054308263439"><ele>77.0</ele><time>2026-04-19T08:56:03Z</time></trkpt><trkpt lat="43.124237894115964" lon="10.720428540513335"><ele>76.66666666666667</ele><time>2026-04-19T08:56:04Z</time></trkpt><trkpt lat="43.12440643609439" lon="10.720316307010908"><ele>76.33333333333333</ele><time>2026-04-19T08:56:05Z</time></trkpt><trkpt lat="43.12456353800778" lon="10.720199674631766"><ele>76.0</ele><time>2026-04-19T08:56:06Z</time></trkpt><trkpt lat="43.124720546737564" lon="10.720055005892112"><ele>76.0</ele><time>2026-04-19T08:56:07Z</time></trkpt><trkpt lat="43.124847942534494" lon="10.719863847447344"><ele>76.0</ele><time>2026-04-19T08:56:08Z</time></trkpt><trkpt lat="43.124951112106906" lon="10.719657031238471"><ele>76.0</ele><time>2026-04-19T08:56:09Z</time></trkpt><trkpt lat="43.12502332312843" lon="10.719425688040559"><ele>76.0</ele><time>2026-04-19T08:56:10Z</time></trkpt><trkpt lat="43.125074709670216" lon="10.719173617717662"><ele>76.0</ele><time>2026-04-19T08:56:11Z</time></trkpt><trkpt lat="43.1251111178611" lon="10.718895234920279"><ele>76.0</ele><time>2026-04-19T08:56:12Z</time></trkpt><trkpt lat="43.12514712037929" lon="10.718628226267429"><ele>76.0</ele><time>2026-04-19T08:56:13Z</time></trkpt><trkpt lat="43.12519374041364" lon="10.718366113676872"><ele>76.0</ele><time>2026-04-19T08:56:14Z</time></trkpt><trkpt lat="43.12523831989656" lon="10.718110952470592"><ele>76.0</ele><time>2026-04-19T08:56:15Z</time></trkpt><trkpt lat="43.12527723387638" lon="10.717882790730764"><ele>76.0</ele><time>2026-04-19T08:56:16Z</time></trkpt><trkpt lat="43.12531259945552" lon="10.717666095164136"><ele>76.0</ele><time>2026-04-19T08:56:17Z</time></trkpt><trkpt lat="43.12534306093592" lon="10.717479666763312"><ele>76.0</ele><time>2026-04-19T08:56:18Z</time></trkpt><trkpt lat="43.12536963209496" lon="10.717324305954834"><ele>76.0</ele><time>2026-04-19T08:56:19Z</time></trkpt><trkpt lat="43.12540458474074" lon="10.717185965950753"><ele>76.0</ele><time>2026-04-19T08:56:20Z</time></trkpt><trkpt lat="43.12543494191236" lon="10.71707034795315"><ele>76.0</ele><time>2026-04-19T08:56:21Z</time></trkpt><trkpt lat="43.12564494236232" lon="10.717054890992292"><ele>76.0</ele><time>2026-04-19T08:56:23Z</time></trkpt><trkpt lat="43.12576054527766" lon="10.717070913044122"><ele>76.0</ele><time>2026-04-19T08:56:24Z</time></trkpt><trkpt lat="43.12590014661437" lon="10.717086739834077"><ele>76.33333333333333</ele><time>2026-04-19T08:56:25Z</time></trkpt><trkpt lat="43.12605548766094" lon="10.717120044012031"><ele>76.66666666666667</ele><time>2026-04-19T08:56:26Z</time></trkpt><trkpt lat="43.12622938017077" lon="10.71716144977469"><ele>77.0</ele><time>2026-04-19T08:56:27Z</time></trkpt><trkpt lat="43.12641351759833" lon="10.717209790167644"><ele>77.33333333333334</ele><time>2026-04-19T08:56:28Z</time></trkpt><trkpt lat="43.12659893379958" lon="10.717271720002916"><ele>77.66666666666667</ele><time>2026-04-19T08:56:29Z</time></trkpt><trkpt lat="43.12679015778181" lon="10.717350792672821"><ele>78.0</ele><time>2026-04-19T08:56:30Z</time></trkpt><trkpt lat="43.126994580648635" lon="10.717450378926866"><ele>78.0</ele><time>2026-04-19T08:56:31Z</time></trkpt><trkpt lat="43.12720286157525" lon="10.717556025455444"><ele>78.0</ele><time>2026-04-19T08:56:32Z</time></trkpt><trkpt lat="43.12741450780982" lon="10.717658406865223"><ele>78.0</ele><time>2026-04-19T08:56:33Z</time></trkpt><trkpt lat="43.12764699389519" lon="10.717774182594482"><ele>78.5</ele><time>2026-04-19T08:56:34Z</time></trkpt><trkpt lat="43.127880178903574" lon="10.717891585170797"><ele>79.0</ele><time>2026-04-19T08:56:35Z</time></trkpt><trkpt lat="43.128118694322275" lon="10.718013258288675"><ele>79.5</ele><time>2026-04-19T08:56:36Z</time></trkpt><trkpt lat="43.12835656074713" lon="10.718135640453712"><ele>80.0</ele><time>2026-04-19T08:56:37Z</time></trkpt><trkpt lat="43.12859487602846" lon="10.718256016006263"><ele>80.0</ele><time>2026-04-19T08:56:38Z</time></trkpt><trkpt lat="43.12884069458" lon="10.718380071174913"><ele>80.0</ele><time>2026-04-19T08:56:39Z</time></trkpt><trkpt lat="43.129087960770974" lon="10.718504090075632"><ele>80.5</ele><time>2026-04-19T08:56:40Z</time></trkpt><trkpt lat="43.12932953307646" lon="10.718627390218483"><ele>81.0</ele><time>2026-04-19T08:56:41Z</time></trkpt><trkpt lat="43.129563587684025" lon="10.718750985227958"><ele>81.0</ele><time>2026-04-19T08:56:42Z</time></trkpt><trkpt lat="43.129784231010795" lon="10.718874598491672"><ele>81.0</ele><time>2026-04-19T08:56:43Z</time></trkpt><trkpt lat="43.13000541645487" lon="10.719015242698251"><ele>82.5</ele><time>2026-04-19T08:56:44Z</time></trkpt><trkpt lat="43.13020456214288" lon="10.71917282187728"><ele>84.0</ele><time>2026-04-19T08:56:45Z</time></trkpt><trkpt lat="43.130395003554995" lon="10.719357969648305"><ele>84.5</ele><time>2026-04-19T08:56:46Z</time></trkpt><trkpt lat="43.130573051886024" lon="10.719561490929804"><ele>85.0</ele><time>2026-04-19T08:56:47Z</time></trkpt><trkpt lat="43.13074536065668" lon="10.71977701403944"><ele>85.0</ele><time>2026-04-19T08:56:48Z</time></trkpt><trkpt lat="43.13091769184102" lon="10.720006459793963"><ele>85.0</ele><time>2026-04-19T08:56:49Z</time></trkpt><trkpt lat="43.131085789694176" lon="10.720237256016985"><ele>85.0</ele><time>2026-04-19T08:56:50Z</time></trkpt><trkpt lat="43.131251565716866" lon="10.720466866328092"><ele>85.0</ele><time>2026-04-19T08:56:51Z</time></trkpt><trkpt lat="43.131408008591066" lon="10.720686646265467"><ele>85.0</ele><time>2026-04-19T08:56:52Z</time></trkpt><trkpt lat="43.131555050767936" lon="10.720896998229211"><ele>85.0</ele><time>2026-04-19T08:56:53Z</time></trkpt><trkpt lat="43.13169552023539" lon="10.721106507730942"><ele>85.0</ele><time>2026-04-19T08:56:54Z</time></trkpt><trkpt lat="43.13183091918127" lon="10.721311131781448"><ele>85.33333333333333</ele><time>2026-04-19T08:56:55Z</time></trkpt><trkpt lat="43.131963933297264" lon="10.721504552983465"><ele>85.66666666666667</ele><time>2026-04-19T08:56:56Z</time></trkpt><trkpt lat="43.1320935938469" lon="10.721684731997508"><ele>86.0</ele><time>2026-04-19T08:56:57Z</time></trkpt><trkpt lat="43.132230557412015" lon="10.721859809579591"><ele>86.66666666666667</ele><time>2026-04-19T08:56:58Z</time></trkpt><trkpt lat="43.13238129173609" lon="10.72203113576188"><ele>87.33333333333333</ele><time>2026-04-19T08:56:59Z</time></trkpt><trkpt lat="43.13254244124309" lon="10.7221813432652"><ele>88.0</ele><time>2026-04-19T08:57:00Z</time></trkpt><trkpt lat="43.13271813230893" lon="10.722321053206302"><ele>88.0</ele><time>2026-04-19T08:57:01Z</time></trkpt><trkpt lat="43.13289058716525" lon="10.722445664015051"><ele>88.0</ele><time>2026-04-19T08:57:02Z</time></trkpt><trkpt lat="43.13305427068052" lon="10.722572062456107"><ele>88.0</ele><time>2026-04-19T08:57:03Z</time></trkpt><trkpt lat="43.13320775539497" lon="10.722700921833866"><ele>87.66666666666666</ele><time>2026-04-19T08:57:04Z</time></trkpt><trkpt lat="43.13336246700443" lon="10.722844744320422"><ele>87.33333333333333</ele><time>2026-04-19T08:57:05Z</time></trkpt><trkpt lat="43.13350794263676" lon="10.72300792072341"><ele>87.0</ele><time>2026-04-19T08:57:06Z</time></trkpt><trkpt lat="43.133643734875356" lon="10.723193372304346"><ele>87.0</ele><time>2026-04-19T08:57:07Z</time></trkpt><trkpt lat="43.13377748494808" lon="10.723396431959598"><ele>87.0</ele><time>2026-04-19T08:57:08Z</time></trkpt><trkpt lat="43.13391165135663" lon="10.723604218821544"><ele>87.0</ele><time>2026-04-19T08:57:09Z</time></trkpt><trkpt lat="43.13404162698943" lon="10.723802731461708"><ele>87.33333333333333</ele><time>2026-04-19T08:57:10Z</time></trkpt><trkpt lat="43.134152005339246" lon="10.723993007857903"><ele>87.66666666666666</ele><time>2026-04-19T08:57:11Z</time></trkpt><trkpt lat="43.13427510662503" lon="10.724170171515846"><ele>88.0</ele><time>2026-04-19T08:57:12Z</time></trkpt><trkpt lat="43.13440181184953" lon="10.724360830592044"><ele>87.0</ele><time>2026-04-19T08:57:13Z</time></trkpt><trkpt lat="43.13454146317853" lon="10.724531600154455"><ele>86.0</ele><time>2026-04-19T08:57:14Z</time></trkpt><trkpt lat="43.13467692688754" lon="10.724730242059646"><ele>85.0</ele><time>2026-04-19T08:57:15Z</time></trkpt><trkpt lat="43.13482144247852" lon="10.724926381718749"><ele>85.33333333333333</ele><time>2026-04-19T08:57:16Z</time></trkpt><trkpt lat="43.13497087404456" lon="10.725121834999978"><ele>85.66666666666667</ele><time>2026-04-19T08:57:17Z</time></trkpt><trkpt lat="43.135128242139544" lon="10.725325527853098"><ele>86.0</ele><time>2026-04-19T08:57:18Z</time></trkpt><trkpt lat="43.135286333404764" lon="10.725523860733633"><ele>86.0</ele><time>2026-04-19T08:57:19Z</time></trkpt><trkpt lat="43.135448654384795" lon="10.72573254284734"><ele>86.0</ele><time>2026-04-19T08:57:20Z</time></trkpt><trkpt lat="43.13560608263747" lon="10.725939618722808"><ele>86.0</ele><time>2026-04-19T08:57:21Z</time></trkpt><trkpt lat="43.135764869030204" lon="10.726151190173944"><ele>88.0</ele><time>2026-04-19T08:57:22Z</time></trkpt><trkpt lat="43.135925098696376" lon="10.726363024183739"><ele>90.0</ele><time>2026-04-19T08:57:23Z</time></trkpt><trkpt lat="43.13609003119401" lon="10.726579895148106"><ele>90.0</ele><time>2026-04-19T08:57:24Z</time></trkpt><trkpt lat="43.136258035522324" lon="10.726794566805278"><ele>90.0</ele><time>2026-04-19T08:57:25Z</time></trkpt><trkpt lat="43.1364241322731" lon="10.727005814091997"><ele>90.0</ele><time>2026-04-19T08:57:26Z</time></trkpt><trkpt lat="43.13658914202854" lon="10.727223968314993"><ele>90.0</ele><time>2026-04-19T08:57:27Z</time></trkpt><trkpt lat="43.13675204838088" lon="10.727446275014067"><ele>90.0</ele><time>2026-04-19T08:57:28Z</time></trkpt><trkpt lat="43.13691779133399" lon="10.727673823087125"><ele>90.0</ele><time>2026-04-19T08:57:29Z</time></trkpt><trkpt lat="43.137076236994595" lon="10.72789206160617"><ele>88.66666666666667</ele><time>2026-04-19T08:57:30Z</time></trkpt><trkpt lat="43.13722862444281" lon="10.7281001025338"><ele>87.33333333333334</ele><time>2026-04-19T08:57:31Z</time></trkpt><trkpt lat="43.137367886750866" lon="10.728280802312543"><ele>86.0</ele><time>2026-04-19T08:57:32Z</time></trkpt><trkpt lat="43.13750804204298" lon="10.728440748645914"><ele>87.0</ele><time>2026-04-19T08:57:33Z</time></trkpt><trkpt lat="43.137666994751" lon="10.728563377998437"><ele>88.0</ele><time>2026-04-19T08:57:34Z</time></trkpt><trkpt lat="43.13785735156655" lon="10.728629410682231"><ele>89.0</ele><time>2026-04-19T08:57:35Z</time></trkpt><trkpt lat="43.138056390296995" lon="10.728670457580181"><ele>89.66666666666667</ele><time>2026-04-19T08:57:36Z</time></trkpt><trkpt lat="43.138259710847024" lon="10.72872791941289"><ele>90.33333333333333</ele><time>2026-04-19T08:57:37Z</time></trkpt><trkpt lat="43.13845105028375" lon="10.72883952886022"><ele>91.0</ele><time>2026-04-19T08:57:38Z</time></trkpt><trkpt lat="43.138613716971086" lon="10.728988632702919"><ele>91.0</ele><time>2026-04-19T08:57:39Z</time></trkpt><trkpt lat="43.13873335343495" lon="10.729188450279093"><ele>91.0</ele><time>2026-04-19T08:57:40Z</time></trkpt><trkpt lat="43.138863920064054" lon="10.72939524478246"><ele>91.0</ele><time>2026-04-19T08:57:41Z</time></trkpt><trkpt lat="43.13896419047445" lon="10.729622035082256"><ele>91.33333333333333</ele><time>2026-04-19T08:57:42Z</time></trkpt><trkpt lat="43.13907895619072" lon="10.729814512805895"><ele>91.66666666666667</ele><time>2026-04-19T08:57:43Z</time></trkpt><trkpt lat="43.13923206240778" lon="10.729978030078621"><ele>92.0</ele><time>2026-04-19T08:57:44Z</time></trkpt><trkpt lat="43.1394103652404" lon="10.730118033845494"><ele>91.33333333333334</ele><time>2026-04-19T08:57:45Z</time></trkpt><trkpt lat="43.13959940230025" lon="10.730245151260739"><ele>90.66666666666667</ele><time>2026-04-19T08:57:46Z</time></trkpt><trkpt lat="43.13979790115782" lon="10.730384460225668"><ele>90.0</ele><time>2026-04-19T08:57:47Z</time></trkpt><trkpt lat="43.140002266191786" lon="10.730532672559203"><ele>90.0</ele><time>2026-04-19T08:57:48Z</time></trkpt><trkpt lat="43.14020288310881" lon="10.730674269276841"><ele>90.0</ele><time>2026-04-19T08:57:49Z</time></trkpt><trkpt lat="43.140409691782956" lon="10.730820962015763"><ele>90.0</ele><time>2026-04-19T08:57:50Z</time></trkpt><trkpt lat="43.1406197738379" lon="10.730975486047944"><ele>90.0</ele><time>2026-04-19T08:57:51Z</time></trkpt><trkpt lat="43.14082731792924" lon="10.731129407209611"><ele>90.0</ele><time>2026-04-19T08:57:52Z</time></trkpt><trkpt lat="43.141032810908" lon="10.73128501985399"><ele>90.0</ele><time>2026-04-19T08:57:53Z</time></trkpt><trkpt lat="43.141246270865146" lon="10.73144886774158"><ele>90.0</ele><time>2026-04-19T08:57:54Z</time></trkpt><trkpt lat="43.14145860412071" lon="10.73160935924247"><ele>90.0</ele><time>2026-04-19T08:57:55Z</time></trkpt><trkpt lat="43.14165097367939" lon="10.731750684266286"><ele>90.33333333333333</ele><time>2026-04-19T08:57:56Z</time></trkpt><trkpt lat="43.14183118399927" lon="10.731886030347246"><ele>90.66666666666666</ele><time>2026-04-19T08:57:57Z</time></trkpt><trkpt lat="43.142013295162705" lon="10.732003695403241"><ele>91.0</ele><time>2026-04-19T08:57:58Z</time></trkpt><trkpt lat="43.14220351216248" lon="10.732084739652352"><ele>91.66666666666666</ele><time>2026-04-19T08:57:59Z</time></trkpt><trkpt lat="43.142403483073885" lon="10.732124156594018"><ele>92.33333333333333</ele><time>2026-04-19T08:58:00Z</time></trkpt><trkpt lat="43.14260532497544" lon="10.732119614104809"><ele>93.0</ele><time>2026-04-19T08:58:01Z</time></trkpt><trkpt lat="43.14280257912278" lon="10.732065393429783"><ele>93.0</ele><time>2026-04-19T08:58:02Z</time></trkpt><trkpt lat="43.14299321423319" lon="10.731966122472787"><ele>93.0</ele><time>2026-04-19T08:58:03Z</time></trkpt><trkpt lat="43.14318491828194" lon="10.731847667035417"><ele>93.0</ele><time>2026-04-19T08:58:04Z</time></trkpt><trkpt lat="43.143367577767776" lon="10.731754488615485"><ele>96.66666666666666</ele><time>2026-04-19T08:58:05Z</time></trkpt><trkpt lat="43.143586313144745" lon="10.731665820546645"><ele>100.33333333333333</ele><time>2026-04-19T08:58:06Z</time></trkpt><trkpt lat="43.143793865209666" lon="10.731632870749486"><ele>104.0</ele><time>2026-04-19T08:58:07Z</time></trkpt><trkpt lat="43.1440154281064" lon="10.73163310218973"><ele>103.0</ele><time>2026-04-19T08:58:08Z</time></trkpt><trkpt lat="43.1442418101844" lon="10.731637297596505"><ele>102.0</ele><time>2026-04-19T08:58:09Z</time></trkpt><trkpt lat="43.14446725774352" lon="10.731627057079981"><ele>102.0</ele><time>2026-04-19T08:58:10Z</time></trkpt><trkpt lat="43.14470005002502" lon="10.731593494039899"><ele>102.0</ele><time>2026-04-19T08:58:11Z</time></trkpt><trkpt lat="43.14493704679136" lon="10.731535698942233"><ele>100.5</ele><time>2026-04-19T08:58:12Z</time></trkpt><trkpt lat="43.145173621035994" lon="10.731463874663127"><ele>99.0</ele><time>2026-04-19T08:58:13Z</time></trkpt><trkpt lat="43.145409386390504" lon="10.731386455979568"><ele>99.0</ele><time>2026-04-19T08:58:14Z</time></trkpt><trkpt lat="43.14564895043862" lon="10.731309801514799"><ele>99.0</ele><time>2026-04-19T08:58:15Z</time></trkpt><trkpt lat="43.14586798485944" lon="10.731245006321618"><ele>98.66666666666666</ele><time>2026-04-19T08:58:16Z</time></trkpt><trkpt lat="43.14607608592745" lon="10.73118530539057"><ele>98.33333333333333</ele><time>2026-04-19T08:58:17Z</time></trkpt><trkpt lat="43.14626729981735" lon="10.731130454264784"><ele>98.0</ele><time>2026-04-19T08:58:18Z</time></trkpt><trkpt lat="43.14644942907135" lon="10.731068736105689"><ele>100.66666666666666</ele><time>2026-04-19T08:58:19Z</time></trkpt><trkpt lat="43.14663187755316" lon="10.730978673639559"><ele>103.33333333333334</ele><time>2026-04-19T08:58:20Z</time></trkpt><trkpt lat="43.14680506178972" lon="10.730851071702496"><ele>106.0</ele><time>2026-04-19T08:58:21Z</time></trkpt><trkpt lat="43.14696413601416" lon="10.730677725161174"><ele>106.0</ele><time>2026-04-19T08:58:22Z</time></trkpt><trkpt lat="43.147128483684796" lon="10.730491151262802"><ele>106.0</ele><time>2026-04-19T08:58:23Z</time></trkpt><trkpt lat="43.14729266789659" lon="10.730301061915709"><ele>106.0</ele><time>2026-04-19T08:58:24Z</time></trkpt><trkpt lat="43.14747044640422" lon="10.730115805587308"><ele>107.0</ele><time>2026-04-19T08:58:25Z</time></trkpt><trkpt lat="43.14765851298576" lon="10.729942538669416"><ele>108.0</ele><time>2026-04-19T08:58:26Z</time></trkpt><trkpt lat="43.14785324953727" lon="10.72977452110637"><ele>108.0</ele><time>2026-04-19T08:58:27Z</time></trkpt><trkpt lat="43.148056464971695" lon="10.729608738733909"><ele>108.0</ele><time>2026-04-19T08:58:28Z</time></trkpt><trkpt lat="43.1482667051061" lon="10.729442821150574"><ele>108.0</ele><time>2026-04-19T08:58:29Z</time></trkpt><trkpt lat="43.14847904763559" lon="10.729274874281835"><ele>108.0</ele><time>2026-04-19T08:58:30Z</time></trkpt><trkpt lat="43.148696179464345" lon="10.729103844185348"><ele>108.0</ele><time>2026-04-19T08:58:31Z</time></trkpt><trkpt lat="43.1489078063285" lon="10.72893992663331"><ele>108.0</ele><time>2026-04-19T08:58:32Z</time></trkpt><trkpt lat="43.14909715423625" lon="10.728795236527258"><ele>108.33333333333334</ele><time>2026-04-19T08:58:33Z</time></trkpt><trkpt lat="43.14926978670468" lon="10.728665321196525"><ele>108.66666666666667</ele><time>2026-04-19T08:58:34Z</time></trkpt><trkpt lat="43.14942014410479" lon="10.728535438880522"><ele>109.0</ele><time>2026-04-19T08:58:35Z</time></trkpt><trkpt lat="43.14953506955115" lon="10.728376135223128"><ele>109.0</ele><time>2026-04-19T08:58:36Z</time></trkpt><trkpt lat="43.14961920980365" lon="10.72817229323139"><ele>109.0</ele><time>2026-04-19T08:58:37Z</time></trkpt><trkpt lat="43.149665721136515" lon="10.727939022351691"><ele>109.0</ele><time>2026-04-19T08:58:38Z</time></trkpt><trkpt lat="43.14968008027039" lon="10.727681982687612"><ele>110.66666666666667</ele><time>2026-04-19T08:58:39Z</time></trkpt><trkpt lat="43.14970811496997" lon="10.72740551604446"><ele>112.33333333333334</ele><time>2026-04-19T08:58:40Z</time></trkpt><trkpt lat="43.14974001046548" lon="10.727130246386393"><ele>114.0</ele><time>2026-04-19T08:58:41Z</time></trkpt><trkpt lat="43.14977900524713" lon="10.7268481077029"><ele>116.0</ele><time>2026-04-19T08:58:42Z</time></trkpt><trkpt lat="43.14981843590543" lon="10.726573016107965"><ele>118.0</ele><time>2026-04-19T08:58:43Z</time></trkpt><trkpt lat="43.149858122932976" lon="10.72629334965703"><ele>120.0</ele><time>2026-04-19T08:58:44Z</time></trkpt><trkpt lat="43.14989647373727" lon="10.726014763353296"><ele>118.0</ele><time>2026-04-19T08:58:45Z</time></trkpt><trkpt lat="43.149935746263516" lon="10.72573612922402"><ele>116.0</ele><time>2026-04-19T08:58:46Z</time></trkpt><trkpt lat="43.14997678465815" lon="10.725467657363142"><ele>114.0</ele><time>2026-04-19T08:58:47Z</time></trkpt><trkpt lat="43.15001972572245" lon="10.725214095559405"><ele>114.0</ele><time>2026-04-19T08:58:48Z</time></trkpt><trkpt lat="43.1500735095036" lon="10.724983891997745"><ele>114.0</ele><time>2026-04-19T08:58:49Z</time></trkpt><trkpt lat="43.15015577555753" lon="10.724796577917179"><ele>114.0</ele><time>2026-04-19T08:58:50Z</time></trkpt><trkpt lat="43.15026889418587" lon="10.72465376261729"><ele>114.0</ele><time>2026-04-19T08:58:51Z</time></trkpt><trkpt lat="43.150393826429294" lon="10.724577448054896"><ele>114.0</ele><time>2026-04-19T08:58:52Z</time></trkpt><trkpt lat="43.150531019156396" lon="10.72456142409195"><ele>114.0</ele><time>2026-04-19T08:58:53Z</time></trkpt><trkpt lat="43.150689724814114" lon="10.724564834270305"><ele>114.0</ele><time>2026-04-19T08:58:54Z</time></trkpt><trkpt lat="43.15085289069749" lon="10.724542055660352"><ele>110.33333333333334</ele><time>2026-04-19T08:58:55Z</time></trkpt><trkpt lat="43.15102584123622" lon="10.724505119599336"><ele>106.66666666666667</ele><time>2026-04-19T08:58:56Z</time></trkpt><trkpt lat="43.151209550985314" lon="10.724470271082946"><ele>103.0</ele><time>2026-04-19T08:58:57Z</time></trkpt><trkpt lat="43.15140155324926" lon="10.72443158980583"><ele>103.0</ele><time>2026-04-19T08:58:58Z</time></trkpt><trkpt lat="43.151586724393496" lon="10.724401027036759"><ele>103.0</ele><time>2026-04-19T08:58:59Z</time></trkpt><trkpt lat="43.15176905718883" lon="10.724393758891503"><ele>103.0</ele><time>2026-04-19T08:59:00Z</time></trkpt><trkpt lat="43.15194045751219" lon="10.724418405461968"><ele>103.0</ele><time>2026-04-19T08:59:01Z</time></trkpt><trkpt lat="43.15208730140291" lon="10.724496185185705"><ele>103.0</ele><time>2026-04-19T08:59:02Z</time></trkpt><trkpt lat="43.15222961059304" lon="10.724537542404471"><ele>103.0</ele><time>2026-04-19T08:59:03Z</time></trkpt><trkpt lat="43.15235193152533" lon="10.724610516512454"><ele>103.0</ele><time>2026-04-19T08:59:04Z</time></trkpt><trkpt lat="43.1524527260119" lon="10.724670774037229"><ele>104.0</ele><time>2026-04-19T08:59:05Z</time></trkpt><trkpt lat="43.152535093214546" lon="10.724745606970652"><ele>105.0</ele><time>2026-04-19T08:59:06Z</time></trkpt><trkpt lat="43.15267002246276" lon="10.724648390456208"><ele>106.0</ele><time>2026-04-19T08:59:07Z</time></trkpt><trkpt lat="43.15278842700102" lon="10.724571091437753"><ele>107.0</ele><time>2026-04-19T08:59:08Z</time></trkpt><trkpt lat="43.15290748198416" lon="10.724460095539875"><ele>106.66666666666666</ele><time>2026-04-19T08:59:09Z</time></trkpt><trkpt lat="43.15303630336094" lon="10.724343306966489"><ele>106.33333333333334</ele><time>2026-04-19T08:59:10Z</time></trkpt><trkpt lat="43.15317631220931" lon="10.724211700485478"><ele>106.0</ele><time>2026-04-19T08:59:11Z</time></trkpt><trkpt lat="43.15333183791681" lon="10.72407518271342"><ele>110.0</ele><time>2026-04-19T08:59:12Z</time></trkpt><trkpt lat="43.1534960072516" lon="10.723936671807673"><ele>114.0</ele><time>2026-04-19T08:59:13Z</time></trkpt><trkpt lat="43.15364221667578" lon="10.723821824391113"><ele>118.0</ele><time>2026-04-19T08:59:14Z</time></trkpt><trkpt lat="43.15376401288577" lon="10.723735605407551"><ele>118.0</ele><time>2026-04-19T08:59:15Z</time></trkpt><trkpt lat="43.15387556411519" lon="10.72372775892925"><ele>118.0</ele><time>2026-04-19T08:59:16Z</time></trkpt><trkpt lat="43.15397124347359" lon="10.723832004751305"><ele>118.0</ele><time>2026-04-19T08:59:17Z</time></trkpt><trkpt lat="43.15410296511537" lon="10.72387889752587"><ele>118.0</ele><time>2026-04-19T08:59:18Z</time></trkpt><trkpt lat="43.1542446643871" lon="10.723955469232775"><ele>120.25</ele><time>2026-04-19T08:59:19Z</time></trkpt><trkpt lat="43.1543898920411" lon="10.724014099581176"><ele>122.5</ele><time>2026-04-19T08:59:20Z</time></trkpt><trkpt lat="43.15452182636014" lon="10.724040530691244"><ele>124.75</ele><time>2026-04-19T08:59:21Z</time></trkpt><trkpt lat="43.154652182159886" lon="10.724006106637075"><ele>127.0</ele><time>2026-04-19T08:59:22Z</time></trkpt><trkpt lat="43.15478854746709" lon="10.723902293944265"><ele>127.66666666666667</ele><time>2026-04-19T08:59:23Z</time></trkpt><trkpt lat="43.15492712517318" lon="10.723766661749005"><ele>128.33333333333334</ele><time>2026-04-19T08:59:24Z</time></trkpt><trkpt lat="43.15507395461207" lon="10.723638605381945"><ele>129.0</ele><time>2026-04-19T08:59:25Z</time></trkpt><trkpt lat="43.155237874150494" lon="10.723531656182148"><ele>132.66666666666666</ele><time>2026-04-19T08:59:26Z</time></trkpt><trkpt lat="43.15541011119583" lon="10.723453065711158"><ele>136.33333333333331</ele><time>2026-04-19T08:59:27Z</time></trkpt><trkpt lat="43.1555689002995" lon="10.72339362232074"><ele>140.0</ele><time>2026-04-19T08:59:28Z</time></trkpt><trkpt lat="43.15570400769889" lon="10.723330255346024"><ele>140.0</ele><time>2026-04-19T08:59:29Z</time></trkpt><trkpt lat="43.155805695927356" lon="10.723263636508266"><ele>140.0</ele><time>2026-04-19T08:59:30Z</time></trkpt><trkpt lat="43.15586381888828" lon="10.723157130353814"><ele>140.0</ele><time>2026-04-19T08:59:31Z</time></trkpt><trkpt lat="43.155861785024676" lon="10.72301646724213"><ele>140.0</ele><time>2026-04-19T08:59:32Z</time></trkpt><trkpt lat="43.15581050194505" lon="10.72288957143444"><ele>140.0</ele><time>2026-04-19T08:59:33Z</time></trkpt><trkpt lat="43.15567797265169" lon="10.722840728665135"><ele>140.75</ele><time>2026-04-19T08:59:34Z</time></trkpt><trkpt lat="43.15553651363553" lon="10.722847586649367"><ele>141.5</ele><time>2026-04-19T08:59:35Z</time></trkpt><trkpt lat="43.15539484255501" lon="10.722863309711174"><ele>142.25</ele><time>2026-04-19T08:59:36Z</time></trkpt><trkpt lat="43.155257934808574" lon="10.722880255001913"><ele>143.0</ele><time>2026-04-19T08:59:37Z</time></trkpt><trkpt lat="43.15512793055296" lon="10.722890448057012"><ele>143.0</ele><time>2026-04-19T08:59:38Z</time></trkpt><trkpt lat="43.15501243285138" lon="10.72287869690292"><ele>143.0</ele><time>2026-04-19T08:59:39Z</time></trkpt><trkpt lat="43.15491873230718" lon="10.722816259872843"><ele>143.0</ele><time>2026-04-19T08:59:40Z</time></trkpt><trkpt lat="43.15487301675164" lon="10.72267208862241"><ele>143.0</ele><time>2026-04-19T08:59:41Z</time></trkpt><trkpt lat="43.15483831855377" lon="10.722510839468493"><ele>145.66666666666666</ele><time>2026-04-19T08:59:42Z</time></trkpt><trkpt lat="43.15493222152789" lon="10.722350347859527"><ele>148.33333333333334</ele><time>2026-04-19T08:59:43Z</time></trkpt><trkpt lat="43.155029848186544" lon="10.722209980490387"><ele>151.0</ele><time>2026-04-19T08:59:44Z</time></trkpt><trkpt lat="43.15512448256445" lon="10.722032483348144"><ele>151.66666666666669</ele><time>2026-04-19T08:59:45Z</time></trkpt><trkpt lat="43.155243905787266" lon="10.721857474048035"><ele>152.33333333333334</ele><time>2026-04-19T08:59:46Z</time></trkpt><trkpt lat="43.155353160540734" lon="10.721676477730096"><ele>153.0</ele><time>2026-04-19T08:59:47Z</time></trkpt><trkpt lat="43.15546155750136" lon="10.721501394319262"><ele>153.0</ele><time>2026-04-19T08:59:48Z</time></trkpt><trkpt lat="43.155575430351426" lon="10.721311669380254"><ele>153.0</ele><time>2026-04-19T08:59:49Z</time></trkpt><trkpt lat="43.15568127161601" lon="10.721113614613266"><ele>153.0</ele><time>2026-04-19T08:59:50Z</time></trkpt><trkpt lat="43.15579005173699" lon="10.720901200267269"><ele>156.66666666666666</ele><time>2026-04-19T08:59:51Z</time></trkpt><trkpt lat="43.15589560106199" lon="10.720698823556992"><ele>160.33333333333331</ele><time>2026-04-19T08:59:52Z</time></trkpt><trkpt lat="43.15600033452027" lon="10.720491148911778"><ele>164.0</ele><time>2026-04-19T08:59:53Z</time></trkpt><trkpt lat="43.15610454761859" lon="10.720285681401936"><ele>165.33333333333331</ele><time>2026-04-19T08:59:54Z</time></trkpt><trkpt lat="43.156195507382634" lon="10.72009969432929"><ele>166.66666666666666</ele><time>2026-04-19T08:59:55Z</time></trkpt><trkpt lat="43.156282366673594" lon="10.719927879308472"><ele>168.0</ele><time>2026-04-19T08:59:56Z</time></trkpt><trkpt lat="43.156367897604625" lon="10.719765483180584"><ele>168.0</ele><time>2026-04-19T08:59:57Z</time></trkpt><trkpt lat="43.15649557627704" lon="10.719643432275511"><ele>168.0</ele><time>2026-04-19T08:59:58Z</time></trkpt><trkpt lat="43.1566423337215" lon="10.719535697914814"><ele>168.0</ele><time>2026-04-19T08:59:59Z</time></trkpt><trkpt lat="43.156797437834626" lon="10.719419855602785"><ele>169.33333333333334</ele><time>2026-04-19T09:00:00Z</time></trkpt><trkpt lat="43.1569597047613" lon="10.719327764168714"><ele>170.66666666666669</ele><time>2026-04-19T09:00:01Z</time></trkpt><trkpt lat="43.157126198694776" lon="10.719223717630598"><ele>172.0</ele><time>2026-04-19T09:00:02Z</time></trkpt><trkpt lat="43.15729040077803" lon="10.71912257443512"><ele>174.66666666666669</ele><time>2026-04-19T09:00:03Z</time></trkpt><trkpt lat="43.15745982604663" lon="10.719029720576673"><ele>177.33333333333334</ele><time>2026-04-19T09:00:04Z</time></trkpt><trkpt lat="43.15764849740983" lon="10.718948863184535"><ele>180.0</ele><time>2026-04-19T09:00:05Z</time></trkpt><trkpt lat="43.15784962959651" lon="10.718863870541089"><ele>180.0</ele><time>2026-04-19T09:00:06Z</time></trkpt><trkpt lat="43.15808312957249" lon="10.718769092840969"><ele>180.0</ele><time>2026-04-19T09:00:07Z</time></trkpt><trkpt lat="43.15829738319947" lon="10.718691672916744"><ele>178.33333333333334</ele><time>2026-04-19T09:00:08Z</time></trkpt><trkpt lat="43.158497548740804" lon="10.718650993936937"><ele>176.66666666666669</ele><time>2026-04-19T09:00:09Z</time></trkpt><trkpt lat="43.158687205384346" lon="10.71864517141806"><ele>175.0</ele><time>2026-04-19T09:00:10Z</time></trkpt><trkpt lat="43.15886696052105" lon="10.71864692173216"><ele>175.0</ele><time>2026-04-19T09:00:11Z</time></trkpt><trkpt lat="43.15902291728744" lon="10.718629865657919"><ele>175.0</ele><time>2026-04-19T09:00:12Z</time></trkpt><trkpt lat="43.15917425284671" lon="10.71858018944472"><ele>175.0</ele><time>2026-04-19T09:00:13Z</time></trkpt><trkpt lat="43.159311443926214" lon="10.718485076072744"><ele>177.0</ele><time>2026-04-19T09:00:14Z</time></trkpt><trkpt lat="43.15944687206814" lon="10.718360775954677"><ele>179.0</ele><time>2026-04-19T09:00:15Z</time></trkpt><trkpt lat="43.15959306353476" lon="10.718226368301746"><ele>181.0</ele><time>2026-04-19T09:00:16Z</time></trkpt><trkpt lat="43.15975401940593" lon="10.718090041284992"><ele>180.66666666666669</ele><time>2026-04-19T09:00:17Z</time></trkpt><trkpt lat="43.15993150150461" lon="10.717953852085445"><ele>180.33333333333334</ele><time>2026-04-19T09:00:18Z</time></trkpt><trkpt lat="43.1601038443036" lon="10.717815485653773"><ele>180.0</ele><time>2026-04-19T09:00:19Z</time></trkpt><trkpt lat="43.16029205021607" lon="10.717674321520956"><ele>183.33333333333334</ele><time>2026-04-19T09:00:20Z</time></trkpt><trkpt lat="43.16048369500891" lon="10.717525953882463"><ele>186.66666666666669</ele><time>2026-04-19T09:00:21Z</time></trkpt><trkpt lat="43.160649442013906" lon="10.717385158985627"><ele>190.0</ele><time>2026-04-19T09:00:22Z</time></trkpt><trkpt lat="43.16079246944167" lon="10.717269442756875"><ele>191.0</ele><time>2026-04-19T09:00:23Z</time></trkpt><trkpt lat="43.160943346664276" lon="10.717169054331082"><ele>192.0</ele><time>2026-04-19T09:00:24Z</time></trkpt><trkpt lat="43.161093422346056" lon="10.717092644133276"><ele>193.0</ele><time>2026-04-19T09:00:25Z</time></trkpt><trkpt lat="43.16124140413279" lon="10.71699799187434"><ele>195.33333333333331</ele><time>2026-04-19T09:00:26Z</time></trkpt><trkpt lat="43.16138249417147" lon="10.71685891470429"><ele>197.66666666666669</ele><time>2026-04-19T09:00:27Z</time></trkpt><trkpt lat="43.16151343402009" lon="10.716695419474723"><ele>200.0</ele><time>2026-04-19T09:00:28Z</time></trkpt><trkpt lat="43.16163090261014" lon="10.716519858766722"><ele>200.66666666666669</ele><time>2026-04-19T09:00:29Z</time></trkpt><trkpt lat="43.16175980440798" lon="10.716345521263218"><ele>201.33333333333331</ele><time>2026-04-19T09:00:30Z</time></trkpt><trkpt lat="43.161888074551776" lon="10.716199693902364"><ele>202.0</ele><time>2026-04-19T09:00:31Z</time></trkpt><trkpt lat="43.16203270023447" lon="10.71608039928082"><ele>202.66666666666666</ele><time>2026-04-19T09:00:32Z</time></trkpt><trkpt lat="43.16218832215282" lon="10.715989601466637"><ele>203.33333333333331</ele><time>2026-04-19T09:00:33Z</time></trkpt><trkpt lat="43.162353433963716" lon="10.715935508923579"><ele>204.0</ele><time>2026-04-19T09:00:34Z</time></trkpt><trkpt lat="43.162527674303576" lon="10.715940343015276"><ele>204.66666666666669</ele><time>2026-04-19T09:00:35Z</time></trkpt><trkpt lat="43.16269419281437" lon="10.715956730406203"><ele>205.33333333333334</ele><time>2026-04-19T09:00:36Z</time></trkpt><trkpt lat="43.162857669229616" lon="10.716011637546575"><ele>206.0</ele><time>2026-04-19T09:00:37Z</time></trkpt><trkpt lat="43.16303029487244" lon="10.716076098387353"><ele>209.33333333333334</ele><time>2026-04-19T09:00:38Z</time></trkpt><trkpt lat="43.16321564650956" lon="10.716138825031951"><ele>212.66666666666669</ele><time>2026-04-19T09:00:39Z</time></trkpt><trkpt lat="43.16338751880652" lon="10.716190911564983"><ele>216.0</ele><time>2026-04-19T09:00:40Z</time></trkpt><trkpt lat="43.16356530495285" lon="10.716224719504027"><ele>216.0</ele><time>2026-04-19T09:00:41Z</time></trkpt><trkpt lat="43.16374406146216" lon="10.716221586733548"><ele>216.0</ele><time>2026-04-19T09:00:42Z</time></trkpt><trkpt lat="43.16392872165468" lon="10.716197237613816"><ele>216.0</ele><time>2026-04-19T09:00:43Z</time></trkpt><trkpt lat="43.16412008772082" lon="10.716166511770773"><ele>218.0</ele><time>2026-04-19T09:00:44Z</time></trkpt><trkpt lat="43.16431345310286" lon="10.716145842069057"><ele>220.0</ele><time>2026-04-19T09:00:45Z</time></trkpt><trkpt lat="43.164506641105014" lon="10.71612612834034"><ele>222.0</ele><time>2026-04-19T09:00:46Z</time></trkpt><trkpt lat="43.16469973207094" lon="10.716100259707797"><ele>223.33333333333331</ele><time>2026-04-19T09:00:47Z</time></trkpt><trkpt lat="43.16488463817458" lon="10.716072998602108"><ele>224.66666666666666</ele><time>2026-04-19T09:00:48Z</time></trkpt><trkpt lat="43.165056727362376" lon="10.71601867219188"><ele>226.0</ele><time>2026-04-19T09:00:49Z</time></trkpt><trkpt lat="43.16523451123474" lon="10.715972480402352"><ele>227.66666666666666</ele><time>2026-04-19T09:00:50Z</time></trkpt><trkpt lat="43.165417455499195" lon="10.715925834875101"><ele>229.33333333333331</ele><time>2026-04-19T09:00:51Z</time></trkpt><trkpt lat="43.16560678866057" lon="10.715919232160559"><ele>231.0</ele><time>2026-04-19T09:00:52Z</time></trkpt><trkpt lat="43.16578928314056" lon="10.71587150569914"><ele>232.0</ele><time>2026-04-19T09:00:53Z</time></trkpt><trkpt lat="43.16596594062546" lon="10.715841224940283"><ele>233.0</ele><time>2026-04-19T09:00:54Z</time></trkpt><trkpt lat="43.16615259595755" lon="10.7158448054163"><ele>234.0</ele><time>2026-04-19T09:00:55Z</time></trkpt><trkpt lat="43.16634019224769" lon="10.715831018687304"><ele>234.0</ele><time>2026-04-19T09:00:56Z</time></trkpt><trkpt lat="43.16651306659494" lon="10.715814666760574"><ele>234.0</ele><time>2026-04-19T09:00:57Z</time></trkpt><trkpt lat="43.16667134043821" lon="10.715786274530833"><ele>234.0</ele><time>2026-04-19T09:00:58Z</time></trkpt><trkpt lat="43.16681899016125" lon="10.715778821244713"><ele>235.25</ele><time>2026-04-19T09:00:59Z</time></trkpt><trkpt lat="43.16696623990794" lon="10.715785271753909"><ele>236.5</ele><time>2026-04-19T09:01:00Z</time></trkpt><trkpt lat="43.167108913052736" lon="10.715852728571514"><ele>237.75</ele><time>2026-04-19T09:01:01Z</time></trkpt><trkpt lat="43.16725020695007" lon="10.715889746128985"><ele>239.0</ele><time>2026-04-19T09:01:02Z</time></trkpt><trkpt lat="43.167382460638116" lon="10.715936797493665"><ele>239.5</ele><time>2026-04-19T09:01:03Z</time></trkpt><trkpt lat="43.16750585674838" lon="10.715909332259345"><ele>240.0</ele><time>2026-04-19T09:01:04Z</time></trkpt><trkpt lat="43.16762540537165" lon="10.71582710764997"><ele>240.5</ele><time>2026-04-19T09:01:05Z</time></trkpt><trkpt lat="43.16774331313071" lon="10.715714240489755"><ele>241.0</ele><time>2026-04-19T09:01:06Z</time></trkpt><trkpt lat="43.167871718623154" lon="10.715590464317719"><ele>241.0</ele><time>2026-04-19T09:01:07Z</time></trkpt><trkpt lat="43.168020543407216" lon="10.715462975690771"><ele>241.0</ele><time>2026-04-19T09:01:08Z</time></trkpt><trkpt lat="43.168168921386645" lon="10.715335025776072"><ele>241.0</ele><time>2026-04-19T09:01:09Z</time></trkpt><trkpt lat="43.16831695579299" lon="10.715202747626561"><ele>240.66666666666666</ele><time>2026-04-19T09:01:10Z</time></trkpt><trkpt lat="43.16847870216403" lon="10.715066859472124"><ele>240.33333333333331</ele><time>2026-04-19T09:01:11Z</time></trkpt><trkpt lat="43.16864413021946" lon="10.714928889916642"><ele>240.0</ele><time>2026-04-19T09:01:12Z</time></trkpt><trkpt lat="43.1687976402612" lon="10.714799909694491"><ele>240.0</ele><time>2026-04-19T09:01:13Z</time></trkpt><trkpt lat="43.168932567497805" lon="10.714689178576016"><ele>240.0</ele><time>2026-04-19T09:01:14Z</time></trkpt><trkpt lat="43.1690635578228" lon="10.71458964318798"><ele>240.0</ele><time>2026-04-19T09:01:15Z</time></trkpt><trkpt lat="43.16921380176869" lon="10.71453249144115"><ele>241.66666666666669</ele><time>2026-04-19T09:01:16Z</time></trkpt><trkpt lat="43.16937197088805" lon="10.714484838376286"><ele>243.33333333333334</ele><time>2026-04-19T09:01:17Z</time></trkpt><trkpt lat="43.169540353716506" lon="10.714433871030609"><ele>245.0</ele><time>2026-04-19T09:01:18Z</time></trkpt><trkpt lat="43.1697145911689" lon="10.71441379963997"><ele>245.0</ele><time>2026-04-19T09:01:19Z</time></trkpt><trkpt lat="43.16989129801075" lon="10.714393175676982"><ele>245.0</ele><time>2026-04-19T09:01:20Z</time></trkpt><trkpt lat="43.17006786153601" lon="10.714396546344156"><ele>245.0</ele><time>2026-04-19T09:01:21Z</time></trkpt><trkpt lat="43.17024978608093" lon="10.714377029203323"><ele>245.0</ele><time>2026-04-19T09:01:22Z</time></trkpt><trkpt lat="43.17043200048219" lon="10.714380914383941"><ele>245.0</ele><time>2026-04-19T09:01:23Z</time></trkpt><trkpt lat="43.17061523095715" lon="10.714379227970154"><ele>245.0</ele><time>2026-04-19T09:01:24Z</time></trkpt><trkpt lat="43.170793133142254" lon="10.71436772685301"><ele>247.25</ele><time>2026-04-19T09:01:25Z</time></trkpt><trkpt lat="43.17093912882204" lon="10.714325653550093"><ele>249.5</ele><time>2026-04-19T09:01:26Z</time></trkpt><trkpt lat="43.17106100076165" lon="10.714268351730011"><ele>251.75</ele><time>2026-04-19T09:01:27Z</time></trkpt><trkpt lat="43.171162677696394" lon="10.714244400272774"><ele>254.0</ele><time>2026-04-19T09:01:28Z</time></trkpt><trkpt lat="43.17126364860647" lon="10.714280570947887"><ele>254.75</ele><time>2026-04-19T09:01:29Z</time></trkpt><trkpt lat="43.171326264041916" lon="10.714443246142512"><ele>255.5</ele><time>2026-04-19T09:01:30Z</time></trkpt><trkpt lat="43.171408922100056" lon="10.714603578648875"><ele>256.25</ele><time>2026-04-19T09:01:31Z</time></trkpt><trkpt lat="43.17147681956589" lon="10.714782310236128"><ele>257.0</ele><time>2026-04-19T09:01:32Z</time></trkpt><trkpt lat="43.1715079616344" lon="10.714970862734289"><ele>257.0</ele><time>2026-04-19T09:01:33Z</time></trkpt><trkpt lat="43.17149000895971" lon="10.715163377165632"><ele>257.0</ele><time>2026-04-19T09:01:34Z</time></trkpt><trkpt lat="43.17142647788034" lon="10.715382705272866"><ele>257.0</ele><time>2026-04-19T09:01:35Z</time></trkpt><trkpt lat="43.171351209353006" lon="10.715626606472838"><ele>258.25</ele><time>2026-04-19T09:01:36Z</time></trkpt><trkpt lat="43.171307963892744" lon="10.715845659357205"><ele>259.5</ele><time>2026-04-19T09:01:37Z</time></trkpt><trkpt lat="43.171297728904705" lon="10.716023027436796"><ele>260.75</ele><time>2026-04-19T09:01:38Z</time></trkpt><trkpt lat="43.171338170322024" lon="10.716206858007746"><ele>262.0</ele><time>2026-04-19T09:01:39Z</time></trkpt><trkpt lat="43.171351148477505" lon="10.716395229359062"><ele>264.5</ele><time>2026-04-19T09:01:40Z</time></trkpt><trkpt lat="43.17131600047176" lon="10.716551281384522"><ele>267.0</ele><time>2026-04-19T09:01:41Z</time></trkpt><trkpt lat="43.17123379515692" lon="10.716670274467315"><ele>269.5</ele><time>2026-04-19T09:01:42Z</time></trkpt><trkpt lat="43.171133039033556" lon="10.716812429378287"><ele>272.0</ele><time>2026-04-19T09:01:43Z</time></trkpt><trkpt lat="43.1710553437135" lon="10.716984744146545"><ele>274.0</ele><time>2026-04-19T09:01:44Z</time></trkpt><trkpt lat="43.17100477466797" lon="10.71716179140748"><ele>276.0</ele><time>2026-04-19T09:01:45Z</time></trkpt><trkpt lat="43.17097498835781" lon="10.717330453568687"><ele>278.0</ele><time>2026-04-19T09:01:46Z</time></trkpt><trkpt lat="43.170960738316865" lon="10.71747372093487"><ele>280.0</ele><time>2026-04-19T09:01:47Z</time></trkpt><trkpt lat="43.171054844284846" lon="10.717592550292427"><ele>280.0</ele><time>2026-04-19T09:01:48Z</time></trkpt><trkpt lat="43.17115131195155" lon="10.717649842612973"><ele>280.0</ele><time>2026-04-19T09:01:49Z</time></trkpt><trkpt lat="43.171275567970255" lon="10.717619373444272"><ele>280.0</ele><time>2026-04-19T09:01:50Z</time></trkpt><trkpt lat="43.17140060871903" lon="10.717533651916987"><ele>280.0</ele><time>2026-04-19T09:01:51Z</time></trkpt><trkpt lat="43.171533079786045" lon="10.717412073574488"><ele>280.3333333333333</ele><time>2026-04-19T09:01:52Z</time></trkpt><trkpt lat="43.171680104668916" lon="10.717283574433248"><ele>280.6666666666667</ele><time>2026-04-19T09:01:53Z</time></trkpt><trkpt lat="43.17182260328276" lon="10.71714542395954"><ele>281.0</ele><time>2026-04-19T09:01:54Z</time></trkpt><trkpt lat="43.17194471674811" lon="10.716983463141336"><ele>283.33333333333337</ele><time>2026-04-19T09:01:55Z</time></trkpt><trkpt lat="43.172051150770876" lon="10.716797694894343"><ele>285.6666666666667</ele><time>2026-04-19T09:01:56Z</time></trkpt><trkpt lat="43.17216756416052" lon="10.716620907171782"><ele>288.0</ele><time>2026-04-19T09:01:57Z</time></trkpt><trkpt lat="43.17229350839661" lon="10.7164681525407"><ele>289.0</ele><time>2026-04-19T09:01:58Z</time></trkpt><trkpt lat="43.17242567500886" lon="10.716321439196026"><ele>290.0</ele><time>2026-04-19T09:01:59Z</time></trkpt><trkpt lat="43.17256422271237" lon="10.716172295885102"><ele>291.0</ele><time>2026-04-19T09:02:00Z</time></trkpt><trkpt lat="43.17272050970562" lon="10.7160710687329"><ele>292.6666666666667</ele><time>2026-04-19T09:02:01Z</time></trkpt><trkpt lat="43.172877377308296" lon="10.715961553719529"><ele>294.33333333333337</ele><time>2026-04-19T09:02:02Z</time></trkpt><trkpt lat="43.173029109438644" lon="10.715850389132513"><ele>296.0</ele><time>2026-04-19T09:02:03Z</time></trkpt><trkpt lat="43.17319759894897" lon="10.715767302635712"><ele>298.33333333333337</ele><time>2026-04-19T09:02:04Z</time></trkpt><trkpt lat="43.17335607563657" lon="10.715681906654167"><ele>300.6666666666667</ele><time>2026-04-19T09:02:05Z</time></trkpt><trkpt lat="43.173501823567264" lon="10.715592310877645"><ele>303.0</ele><time>2026-04-19T09:02:06Z</time></trkpt><trkpt lat="43.173641876865986" lon="10.715503296258133"><ele>303.0</ele><time>2026-04-19T09:02:07Z</time></trkpt><trkpt lat="43.17378082004542" lon="10.715409666288556"><ele>303.0</ele><time>2026-04-19T09:02:08Z</time></trkpt><trkpt lat="43.173917838925604" lon="10.715312652604045"><ele>303.0</ele><time>2026-04-19T09:02:09Z</time></trkpt><trkpt lat="43.17404511124727" lon="10.71521809885282"><ele>305.0</ele><time>2026-04-19T09:02:10Z</time></trkpt><trkpt lat="43.17416918448179" lon="10.71514166722091"><ele>307.0</ele><time>2026-04-19T09:02:11Z</time></trkpt><trkpt lat="43.17427094167565" lon="10.715113657160334"><ele>309.0</ele><time>2026-04-19T09:02:12Z</time></trkpt><trkpt lat="43.17438581736389" lon="10.715167291828886"><ele>311.0</ele><time>2026-04-19T09:02:13Z</time></trkpt><trkpt lat="43.17446457369281" lon="10.715293388167716"><ele>312.5</ele><time>2026-04-19T09:02:14Z</time></trkpt><trkpt lat="43.17450007900634" lon="10.715427232693742"><ele>314.0</ele><time>2026-04-19T09:02:15Z</time></trkpt><trkpt lat="43.174490635712104" lon="10.715586676597402"><ele>315.5</ele><time>2026-04-19T09:02:16Z</time></trkpt><trkpt lat="43.174457016161035" lon="10.715764249746655"><ele>317.0</ele><time>2026-04-19T09:02:17Z</time></trkpt><trkpt lat="43.174426008800985" lon="10.715960082733224"><ele>317.5</ele><time>2026-04-19T09:02:18Z</time></trkpt><trkpt lat="43.174413759091344" lon="10.71615372121545"><ele>318.0</ele><time>2026-04-19T09:02:19Z</time></trkpt><trkpt lat="43.17440501652272" lon="10.716331183289109"><ele>318.5</ele><time>2026-04-19T09:02:20Z</time></trkpt><trkpt lat="43.17442104039365" lon="10.71650126672594"><ele>319.0</ele><time>2026-04-19T09:02:21Z</time></trkpt><trkpt lat="43.174464920982885" lon="10.716671179212844"><ele>319.0</ele><time>2026-04-19T09:02:22Z</time></trkpt><trkpt lat="43.17453986622436" lon="10.716805561783138"><ele>319.0</ele><time>2026-04-19T09:02:23Z</time></trkpt><trkpt lat="43.17463601754513" lon="10.716872320583366"><ele>319.0</ele><time>2026-04-19T09:02:24Z</time></trkpt><trkpt lat="43.174824603344" lon="10.716757814653803"><ele>319.0</ele><time>2026-04-19T09:02:26Z</time></trkpt><trkpt lat="43.174896206694264" lon="10.716620078981444"><ele>322.25</ele><time>2026-04-19T09:02:27Z</time></trkpt><trkpt lat="43.17496762316272" lon="10.716473713235102"><ele>325.5</ele><time>2026-04-19T09:02:28Z</time></trkpt><trkpt lat="43.175056954352556" lon="10.716325662424053"><ele>328.75</ele><time>2026-04-19T09:02:29Z</time></trkpt><trkpt lat="43.17514973421429" lon="10.71619203872284"><ele>332.0</ele><time>2026-04-19T09:02:30Z</time></trkpt><trkpt lat="43.175232078840146" lon="10.71606348188007"><ele>332.0</ele><time>2026-04-19T09:02:31Z</time></trkpt><trkpt lat="43.17531305505658" lon="10.715959970731815"><ele>332.0</ele><time>2026-04-19T09:02:32Z</time></trkpt><trkpt lat="43.17540441563519" lon="10.715894397457756"><ele>332.0</ele><time>2026-04-19T09:02:33Z</time></trkpt><trkpt lat="43.17551047161032" lon="10.715857276312258"><ele>332.0</ele><time>2026-04-19T09:02:34Z</time></trkpt><trkpt lat="43.17561828108801" lon="10.71582476024785"><ele>332.0</ele><time>2026-04-19T09:02:35Z</time></trkpt><trkpt lat="43.17571199156767" lon="10.715769629844752"><ele>334.33333333333337</ele><time>2026-04-19T09:02:36Z</time></trkpt><trkpt lat="43.175782796324256" lon="10.715698245870716"><ele>336.6666666666667</ele><time>2026-04-19T09:02:37Z</time></trkpt><trkpt lat="43.17584847290575" lon="10.715652742846684"><ele>339.0</ele><time>2026-04-19T09:02:38Z</time></trkpt><trkpt lat="43.17591003002412" lon="10.71572211412304"><ele>341.3333333333333</ele><time>2026-04-19T09:02:39Z</time></trkpt><trkpt lat="43.1759905992177" lon="10.715785845266181"><ele>343.66666666666663</ele><time>2026-04-19T09:02:40Z</time></trkpt><trkpt lat="43.176082299105055" lon="10.715857654857148"><ele>346.0</ele><time>2026-04-19T09:02:41Z</time></trkpt><trkpt lat="43.17617382246586" lon="10.715911245754207"><ele>346.0</ele><time>2026-04-19T09:02:42Z</time></trkpt><trkpt lat="43.176281045703234" lon="10.7159056014231"><ele>346.0</ele><time>2026-04-19T09:02:43Z</time></trkpt><trkpt lat="43.17639822293795" lon="10.715868279211906"><ele>346.0</ele><time>2026-04-19T09:02:44Z</time></trkpt><trkpt lat="43.1765243469838" lon="10.715833080455031"><ele>346.0</ele><time>2026-04-19T09:02:45Z</time></trkpt><trkpt lat="43.17665612647346" lon="10.715801753563861"><ele>347.25</ele><time>2026-04-19T09:02:46Z</time></trkpt><trkpt lat="43.17678120817761" lon="10.715783815674293"><ele>348.5</ele><time>2026-04-19T09:02:47Z</time></trkpt><trkpt lat="43.17690907284773" lon="10.715773090226941"><ele>349.75</ele><time>2026-04-19T09:02:48Z</time></trkpt><trkpt lat="43.17702303550667" lon="10.715734513197605"><ele>351.0</ele><time>2026-04-19T09:02:49Z</time></trkpt><trkpt lat="43.177130292985325" lon="10.71564802009789"><ele>351.0</ele><time>2026-04-19T09:02:50Z</time></trkpt><trkpt lat="43.177212202110255" lon="10.715517015294294"><ele>351.0</ele><time>2026-04-19T09:02:51Z</time></trkpt><trkpt lat="43.17727890443544" lon="10.715371202808813"><ele>351.0</ele><time>2026-04-19T09:02:52Z</time></trkpt><trkpt lat="43.17733582579097" lon="10.715265217874197"><ele>351.0</ele><time>2026-04-19T09:02:53Z</time></trkpt><trkpt lat="43.17738169498283" lon="10.715199625948125"><ele>351.0</ele><time>2026-04-19T09:02:54Z</time></trkpt><trkpt lat="43.17742921636227" lon="10.715121888831765"><ele>351.0</ele><time>2026-04-19T09:03:06Z</time></trkpt><trkpt lat="43.177268840440085" lon="10.71508002592917"><ele>351.0</ele><time>2026-04-19T09:03:09Z</time></trkpt><trkpt lat="43.17719436044646" lon="10.715137457667243"><ele>351.0</ele><time>2026-04-19T09:03:10Z</time></trkpt><trkpt lat="43.17712674513755" lon="10.715202686951974"><ele>351.0</ele><time>2026-04-19T09:03:11Z</time></trkpt><trkpt lat="43.17707096511882" lon="10.715247433577643"><ele>351.0</ele><time>2026-04-19T09:03:12Z</time></trkpt><trkpt lat="43.177008029080774" lon="10.715169171475578"><ele>353.3333333333333</ele><time>2026-04-19T09:03:14Z</time></trkpt><trkpt lat="43.17708233633018" lon="10.715055829647264"><ele>355.6666666666667</ele><time>2026-04-19T09:03:16Z</time></trkpt><trkpt lat="43.177124047995434" lon="10.714979812646998"><ele>358.0</ele><time>2026-04-19T09:03:17Z</time></trkpt><trkpt lat="43.17718388692793" lon="10.714908833273787"><ele>360.33333333333337</ele><time>2026-04-19T09:03:18Z</time></trkpt><trkpt lat="43.17723518802514" lon="10.714823714466213"><ele>362.6666666666667</ele><time>2026-04-19T09:03:19Z</time></trkpt><trkpt lat="43.177284164758845" lon="10.71475257560134"><ele>365.0</ele><time>2026-04-19T09:03:20Z</time></trkpt><trkpt lat="43.177325342907864" lon="10.714672946517458"><ele>365.2</ele><time>2026-04-19T09:03:21Z</time></trkpt><trkpt lat="43.17738982271452" lon="10.714601490769988"><ele>365.4</ele><time>2026-04-19T09:03:22Z</time></trkpt><trkpt lat="43.17745291181856" lon="10.71452617218724"><ele>365.6</ele><time>2026-04-19T09:03:23Z</time></trkpt><trkpt lat="43.17753668518429" lon="10.714466211323295"><ele>365.8</ele><time>2026-04-19T09:03:24Z</time></trkpt><trkpt lat="43.17761597673543" lon="10.71438340864669"><ele>366.0</ele><time>2026-04-19T09:03:25Z</time></trkpt><trkpt lat="43.177710438120194" lon="10.71432048777827"><ele>365.20000000000005</ele><time>2026-04-19T09:03:26Z</time></trkpt><trkpt lat="43.177799436139914" lon="10.714254020471735"><ele>364.40000000000003</ele><time>2026-04-19T09:03:27Z</time></trkpt><trkpt lat="43.17788793437132" lon="10.714178877168795"><ele>363.6</ele><time>2026-04-19T09:03:28Z</time></trkpt><trkpt lat="43.17797627852089" lon="10.714082872460308"><ele>362.8</ele><time>2026-04-19T09:03:29Z</time></trkpt><trkpt lat="43.178046516422604" lon="10.713971052414355"><ele>362.0</ele><time>2026-04-19T09:03:30Z</time></trkpt><trkpt lat="43.17810568612471" lon="10.713838492426582"><ele>362.0</ele><time>2026-04-19T09:03:31Z</time></trkpt><trkpt lat="43.17814605193126" lon="10.713684419430868"><ele>362.0</ele><time>2026-04-19T09:03:32Z</time></trkpt><trkpt lat="43.178179904291255" lon="10.713539406590744"><ele>362.0</ele><time>2026-04-19T09:03:33Z</time></trkpt><trkpt lat="43.17821300784644" lon="10.713432642503173"><ele>362.0</ele><time>2026-04-19T09:03:34Z</time></trkpt><trkpt lat="43.178255327222494" lon="10.713334963388453"><ele>362.0</ele><time>2026-04-19T09:03:35Z</time></trkpt><trkpt lat="43.1783115171216" lon="10.713249059457912"><ele>362.83333333333337</ele><time>2026-04-19T09:03:36Z</time></trkpt><trkpt lat="43.17835852167585" lon="10.713160463537939"><ele>363.6666666666667</ele><time>2026-04-19T09:03:37Z</time></trkpt><trkpt lat="43.17838676693738" lon="10.71306065219864"><ele>364.5</ele><time>2026-04-19T09:03:38Z</time></trkpt><trkpt lat="43.17842322647506" lon="10.712963144401455"><ele>365.3333333333333</ele><time>2026-04-19T09:03:39Z</time></trkpt><trkpt lat="43.178461097546496" lon="10.712868339993209"><ele>366.16666666666663</ele><time>2026-04-19T09:03:40Z</time></trkpt><trkpt lat="43.17849403152017" lon="10.712780303655318"><ele>367.0</ele><time>2026-04-19T09:03:41Z</time></trkpt><trkpt lat="43.178545371004674" lon="10.712617059275887"><ele>367.0</ele><time>2026-04-19T09:03:43Z</time></trkpt><trkpt lat="43.17857473240288" lon="10.71252237281573"><ele>367.0</ele><time>2026-04-19T09:03:44Z</time></trkpt><trkpt lat="43.17859770687056" lon="10.712421139058511"><ele>367.0</ele><time>2026-04-19T09:03:45Z</time></trkpt><trkpt lat="43.178674590064546" lon="10.712296486331722"><ele>367.0</ele><time>2026-04-19T09:03:47Z</time></trkpt><trkpt lat="43.178741163879955" lon="10.712248078193769"><ele>367.0</ele><time>2026-04-19T09:03:48Z</time></trkpt><trkpt lat="43.178824389570636" lon="10.712198380039741"><ele>367.0</ele><time>2026-04-19T09:03:49Z</time></trkpt><trkpt lat="43.17892545665607" lon="10.712143788609989"><ele>368.0</ele><time>2026-04-19T09:03:50Z</time></trkpt><trkpt lat="43.17903480111522" lon="10.712078473385208"><ele>369.0</ele><time>2026-04-19T09:03:51Z</time></trkpt><trkpt lat="43.179155675118416" lon="10.712010587845226"><ele>370.0</ele><time>2026-04-19T09:03:52Z</time></trkpt><trkpt lat="43.17926266982587" lon="10.711950386762664"><ele>371.0</ele><time>2026-04-19T09:03:53Z</time></trkpt><trkpt lat="43.179351675691684" lon="10.711890558673343"><ele>371.0</ele><time>2026-04-19T09:03:54Z</time></trkpt><trkpt lat="43.179417915796975" lon="10.711828551039147"><ele>371.0</ele><time>2026-04-19T09:03:55Z</time></trkpt><trkpt lat="43.179505928404346" lon="10.711807035168162"><ele>371.0</ele><time>2026-04-19T09:03:57Z</time></trkpt><trkpt lat="43.179528933873144" lon="10.711889618571767"><ele>371.0</ele><time>2026-04-19T09:03:58Z</time></trkpt><trkpt lat="43.17957983919691" lon="10.711970952670958"><ele>371.0</ele><time>2026-04-19T09:03:59Z</time></trkpt><trkpt lat="43.179645776562765" lon="10.712082170962033"><ele>371.0</ele><time>2026-04-19T09:04:01Z</time></trkpt><trkpt lat="43.179664222299465" lon="10.712171204633462"><ele>371.0</ele><time>2026-04-19T09:04:34Z</time></trkpt><trkpt lat="43.179621450407474" lon="10.712046889657998"><ele>371.0</ele><time>2026-04-19T09:05:19Z</time></trkpt><trkpt lat="43.17957164408086" lon="10.711931990992507"><ele>371.0</ele><time>2026-04-19T09:05:21Z</time></trkpt><trkpt lat="43.179489916966276" lon="10.711827279339126"><ele>371.0</ele><time>2026-04-19T09:05:23Z</time></trkpt><trkpt lat="43.1794317475108" lon="10.71173433909638"><ele>371.0</ele><time>2026-04-19T09:05:24Z</time></trkpt><trkpt lat="43.17938863452232" lon="10.711665455308495"><ele>368.0</ele><time>2026-04-19T09:05:25Z</time></trkpt><trkpt lat="43.179345767504834" lon="10.711600595129186"><ele>365.0</ele><time>2026-04-19T09:05:29Z</time></trkpt><trkpt lat="43.17940207979062" lon="10.71182181894636"><ele>362.0</ele><time>2026-04-19T09:05:44Z</time></trkpt><trkpt lat="43.17927670751733" lon="10.711554051176888"><ele>362.0</ele><time>2026-04-19T09:05:45Z</time></trkpt><trkpt lat="43.1792081289275" lon="10.711717789745986"><ele>362.0</ele><time>2026-04-19T09:05:46Z</time></trkpt><trkpt lat="43.17915206851022" lon="10.711790633420593"><ele>362.0</ele><time>2026-04-19T09:05:47Z</time></trkpt><trkpt lat="43.17908141165258" lon="10.71185469675443"><ele>362.0</ele><time>2026-04-19T09:05:48Z</time></trkpt><trkpt lat="43.179002014623265" lon="10.711902248964561"><ele>362.0</ele><time>2026-04-19T09:05:49Z</time></trkpt><trkpt lat="43.17891916748765" lon="10.71194165523645"><ele>363.0</ele><time>2026-04-19T09:05:50Z</time></trkpt><trkpt lat="43.17882952354217" lon="10.711985383431825"><ele>364.0</ele><time>2026-04-19T09:05:51Z</time></trkpt><trkpt lat="43.17873812507833" lon="10.712037512920919"><ele>365.0</ele><time>2026-04-19T09:05:52Z</time></trkpt><trkpt lat="43.178645839384544" lon="10.71208534526988"><ele>366.0</ele><time>2026-04-19T09:05:53Z</time></trkpt><trkpt lat="43.17854266136652" lon="10.712115468893565"><ele>367.0</ele><time>2026-04-19T09:05:54Z</time></trkpt><trkpt lat="43.178439425535124" lon="10.712123169087159"><ele>367.0</ele><time>2026-04-19T09:05:55Z</time></trkpt><trkpt lat="43.178328105331275" lon="10.712122898010463"><ele>367.0</ele><time>2026-04-19T09:05:56Z</time></trkpt><trkpt lat="43.17822280618786" lon="10.71214904494133"><ele>367.0</ele><time>2026-04-19T09:05:57Z</time></trkpt><trkpt lat="43.17813750977262" lon="10.712218413986445"><ele>367.0</ele><time>2026-04-19T09:05:58Z</time></trkpt><trkpt lat="43.17808611354146" lon="10.712343474127877"><ele>367.0</ele><time>2026-04-19T09:05:59Z</time></trkpt><trkpt lat="43.17807042446892" lon="10.712487432176289"><ele>367.8</ele><time>2026-04-19T09:06:00Z</time></trkpt><trkpt lat="43.17810324172132" lon="10.712621479741582"><ele>368.6</ele><time>2026-04-19T09:06:01Z</time></trkpt><trkpt lat="43.178161808735226" lon="10.7127282537658"><ele>369.40000000000003</ele><time>2026-04-19T09:06:02Z</time></trkpt><trkpt lat="43.17821477473769" lon="10.712837272302211"><ele>370.20000000000005</ele><time>2026-04-19T09:06:03Z</time></trkpt><trkpt lat="43.17825240465434" lon="10.712951007889126"><ele>371.0</ele><time>2026-04-19T09:06:04Z</time></trkpt><trkpt lat="43.17825289181111" lon="10.71306743449074"><ele>371.0</ele><time>2026-04-19T09:06:05Z</time></trkpt><trkpt lat="43.178230826005475" lon="10.713193096235551"><ele>371.0</ele><time>2026-04-19T09:06:06Z</time></trkpt><trkpt lat="43.17820318837963" lon="10.713316045010554"><ele>371.0</ele><time>2026-04-19T09:06:07Z</time></trkpt><trkpt lat="43.17817414172806" lon="10.713438488304911"><ele>371.0</ele><time>2026-04-19T09:06:08Z</time></trkpt><trkpt lat="43.17814267290811" lon="10.713566898345631"><ele>371.0</ele><time>2026-04-19T09:06:09Z</time></trkpt><trkpt lat="43.178111739451836" lon="10.713683243947163"><ele>369.20000000000005</ele><time>2026-04-19T09:06:10Z</time></trkpt><trkpt lat="43.17807939905317" lon="10.713792510183655"><ele>367.40000000000003</ele><time>2026-04-19T09:06:11Z</time></trkpt><trkpt lat="43.178040274258755" lon="10.713901444953562"><ele>365.6</ele><time>2026-04-19T09:06:12Z</time></trkpt><trkpt lat="43.17799754095543" lon="10.71400105655725"><ele>363.8</ele><time>2026-04-19T09:06:13Z</time></trkpt><trkpt lat="43.17794495498689" lon="10.714090719501707"><ele>362.0</ele><time>2026-04-19T09:06:14Z</time></trkpt><trkpt lat="43.17779850299571" lon="10.7142246473302"><ele>362.0</ele><time>2026-04-19T09:06:16Z</time></trkpt><trkpt lat="43.17772519088388" lon="10.714270321240438"><ele>362.0</ele><time>2026-04-19T09:06:17Z</time></trkpt><trkpt lat="43.17764925026543" lon="10.714331163140198"><ele>362.0</ele><time>2026-04-19T09:06:18Z</time></trkpt><trkpt lat="43.177589495811105" lon="10.714374063902504"><ele>362.0</ele><time>2026-04-19T09:06:19Z</time></trkpt><trkpt lat="43.177526078140914" lon="10.714435060872427"><ele>362.0</ele><time>2026-04-19T09:06:21Z</time></trkpt><trkpt lat="43.17762238415099" lon="10.714492481854972"><ele>362.0</ele><time>2026-04-19T09:06:24Z</time></trkpt><trkpt lat="43.17768644837788" lon="10.71447213295241"><ele>362.0</ele><time>2026-04-19T09:06:25Z</time></trkpt><trkpt lat="43.17775078135306" lon="10.714447848657295"><ele>362.0</ele><time>2026-04-19T09:06:26Z</time></trkpt><trkpt lat="43.17781529943854" lon="10.7144376543247"><ele>362.0</ele><time>2026-04-19T09:06:27Z</time></trkpt><trkpt lat="43.177883507623925" lon="10.71443354884414"><ele>362.0</ele><time>2026-04-19T09:06:28Z</time></trkpt><trkpt lat="43.17796315979535" lon="10.714426256731324"><ele>362.0</ele><time>2026-04-19T09:06:29Z</time></trkpt><trkpt lat="43.17804670932809" lon="10.714393070404817"><ele>362.0</ele><time>2026-04-19T09:06:30Z</time></trkpt><trkpt lat="43.178119929045636" lon="10.714335586980875"><ele>365.0</ele><time>2026-04-19T09:06:31Z</time></trkpt><trkpt lat="43.17820597980443" lon="10.71426028659551"><ele>368.0</ele><time>2026-04-19T09:06:32Z</time></trkpt><trkpt lat="43.17829279225173" lon="10.714186649658583"><ele>371.0</ele><time>2026-04-19T09:06:33Z</time></trkpt><trkpt lat="43.17838030124765" lon="10.714112194572524"><ele>374.0</ele><time>2026-04-19T09:06:34Z</time></trkpt><trkpt lat="43.17846962286425" lon="10.714035522864645"><ele>377.0</ele><time>2026-04-19T09:06:35Z</time></trkpt><trkpt lat="43.17856629681192" lon="10.713966716003116"><ele>377.0</ele><time>2026-04-19T09:06:36Z</time></trkpt><trkpt lat="43.178667584108226" lon="10.713902286089152"><ele>377.0</ele><time>2026-04-19T09:06:37Z</time></trkpt><trkpt lat="43.178771902233485" lon="10.713847446938322"><ele>377.0</ele><time>2026-04-19T09:06:38Z</time></trkpt><trkpt lat="43.178881429665665" lon="10.713802577831542"><ele>377.0</ele><time>2026-04-19T09:06:39Z</time></trkpt><trkpt lat="43.17900608498317" lon="10.713770904498"><ele>381.5</ele><time>2026-04-19T09:06:40Z</time></trkpt><trkpt lat="43.17912920789183" lon="10.713749460244843"><ele>386.0</ele><time>2026-04-19T09:06:41Z</time></trkpt><trkpt lat="43.17925480795962" lon="10.713727166618076"><ele>390.5</ele><time>2026-04-19T09:06:42Z</time></trkpt><trkpt lat="43.1793754959446" lon="10.713683072791792"><ele>395.0</ele><time>2026-04-19T09:06:43Z</time></trkpt><trkpt lat="43.17949612123465" lon="10.71360981770082"><ele>394.25</ele><time>2026-04-19T09:06:44Z</time></trkpt><trkpt lat="43.17962382775575" lon="10.713521682671514"><ele>393.5</ele><time>2026-04-19T09:06:45Z</time></trkpt><trkpt lat="43.17975638440313" lon="10.713439764614034"><ele>392.75</ele><time>2026-04-19T09:06:46Z</time></trkpt><trkpt lat="43.179895237517314" lon="10.713376414550991"><ele>392.0</ele><time>2026-04-19T09:06:47Z</time></trkpt><trkpt lat="43.180040736888884" lon="10.713371062680892"><ele>392.0</ele><time>2026-04-19T09:06:48Z</time></trkpt><trkpt lat="43.18016825408991" lon="10.713368193896327"><ele>392.0</ele><time>2026-04-19T09:06:49Z</time></trkpt><trkpt lat="43.180292870489474" lon="10.713371524608199"><ele>392.0</ele><time>2026-04-19T09:06:50Z</time></trkpt><trkpt lat="43.180424146653706" lon="10.713375036601198"><ele>392.0</ele><time>2026-04-19T09:06:51Z</time></trkpt><trkpt lat="43.1805714718567" lon="10.713360241754549"><ele>395.5</ele><time>2026-04-19T09:06:52Z</time></trkpt><trkpt lat="43.180716883469685" lon="10.713378529940925"><ele>399.0</ele><time>2026-04-19T09:06:53Z</time></trkpt><trkpt lat="43.180832891325785" lon="10.713423026266952"><ele>402.5</ele><time>2026-04-19T09:06:54.001Z</time></trkpt><trkpt lat="43.18092168631826" lon="10.71347731218013"><ele>406.0</ele><time>2026-04-19T09:06:55.001Z</time></trkpt><trkpt lat="43.18100689040444" lon="10.713537374717692"><ele>407.4</ele><time>2026-04-19T09:06:56.001Z</time></trkpt><trkpt lat="43.18110763804299" lon="10.713593064326163"><ele>408.8</ele><time>2026-04-19T09:06:57.001Z</time></trkpt><trkpt lat="43.18120340959209" lon="10.713654573640802"><ele>410.2</ele><time>2026-04-19T09:06:58.001Z</time></trkpt><trkpt lat="43.18131221863775" lon="10.713662028736278"><ele>411.59999999999997</ele><time>2026-04-19T09:06:59.001Z</time></trkpt><trkpt lat="43.181436674148706" lon="10.713651438094134"><ele>413.0</ele><time>2026-04-19T09:07:00Z</time></trkpt><trkpt lat="43.181572250858515" lon="10.713636898226628"><ele>413.0</ele><time>2026-04-19T09:07:01Z</time></trkpt><trkpt lat="43.18171730102739" lon="10.71363965425163"><ele>413.0</ele><time>2026-04-19T09:07:02Z</time></trkpt><trkpt lat="43.18187042521482" lon="10.713650850867587"><ele>413.0</ele><time>2026-04-19T09:07:03Z</time></trkpt><trkpt lat="43.182023910220984" lon="10.713661710104914"><ele>413.0</ele><time>2026-04-19T09:07:04Z</time></trkpt><trkpt lat="43.18217312603759" lon="10.713666173134015"><ele>413.0</ele><time>2026-04-19T09:07:05Z</time></trkpt><trkpt lat="43.182284855500846" lon="10.713667244238582"><ele>413.0</ele><time>2026-04-19T09:07:06Z</time></trkpt><trkpt lat="43.18238948273026" lon="10.713667435772498"><ele>413.0</ele><time>2026-04-19T09:07:07Z</time></trkpt><trkpt lat="43.18251029004719" lon="10.713694952167234"><ele>414.25</ele><time>2026-04-19T09:07:08Z</time></trkpt><trkpt lat="43.18260085940993" lon="10.713728496938487"><ele>415.5</ele><time>2026-04-19T09:07:09Z</time></trkpt><trkpt lat="43.18268686926082" lon="10.713790602414841"><ele>416.75</ele><time>2026-04-19T09:07:10Z</time></trkpt><trkpt lat="43.18279613360819" lon="10.713903791932172"><ele>418.0</ele><time>2026-04-19T09:07:11Z</time></trkpt><trkpt lat="43.18290648337484" lon="10.71402640268234"><ele>418.0</ele><time>2026-04-19T09:07:12Z</time></trkpt><trkpt lat="43.18302892228282" lon="10.714112921341737"><ele>418.0</ele><time>2026-04-19T09:07:13Z</time></trkpt><trkpt lat="43.18315950955857" lon="10.714182964359928"><ele>418.0</ele><time>2026-04-19T09:07:14Z</time></trkpt><trkpt lat="43.183304089632514" lon="10.714228333599733"><ele>418.0</ele><time>2026-04-19T09:07:15Z</time></trkpt><trkpt lat="43.183453635355704" lon="10.714254134147732"><ele>420.0</ele><time>2026-04-19T09:07:16Z</time></trkpt><trkpt lat="43.18358736787693" lon="10.71431661683306"><ele>422.0</ele><time>2026-04-19T09:07:17Z</time></trkpt><trkpt lat="43.18370232451026" lon="10.714365432056901"><ele>424.0</ele><time>2026-04-19T09:07:18Z</time></trkpt><trkpt lat="43.183806669902594" lon="10.714385058398308"><ele>426.0</ele><time>2026-04-19T09:07:19Z</time></trkpt><trkpt lat="43.183892050074185" lon="10.714414963909814"><ele>426.0</ele><time>2026-04-19T09:07:20Z</time></trkpt><trkpt lat="43.183968568616216" lon="10.714407115890886"><ele>426.0</ele><time>2026-04-19T09:07:21Z</time></trkpt><trkpt lat="43.18407261169052" lon="10.71437811719177"><ele>426.0</ele><time>2026-04-19T09:07:23Z</time></trkpt><trkpt lat="43.184187589338855" lon="10.71435054608076"><ele>426.0</ele><time>2026-04-19T09:07:25Z</time></trkpt><trkpt lat="43.18430349071461" lon="10.714278127358364"><ele>426.0</ele><time>2026-04-19T09:07:27Z</time></trkpt><trkpt lat="43.184373616350165" lon="10.714241039480159"><ele>429.20000000000005</ele><time>2026-04-19T09:07:28Z</time></trkpt><trkpt lat="43.18446163663251" lon="10.714213174739372"><ele>432.40000000000003</ele><time>2026-04-19T09:07:29Z</time></trkpt><trkpt lat="43.18453733600064" lon="10.714182322085287"><ele>435.6</ele><time>2026-04-19T09:07:30Z</time></trkpt><trkpt lat="43.184645816789576" lon="10.714178900441578"><ele>438.8</ele><time>2026-04-19T09:07:32Z</time></trkpt><trkpt lat="43.184739088211764" lon="10.714172653380842"><ele>442.0</ele><time>2026-04-19T09:07:34Z</time></trkpt><trkpt lat="43.1848205703477" lon="10.714186424050162"><ele>441.1666666666667</ele><time>2026-04-19T09:07:36Z</time></trkpt><trkpt lat="43.18493117679974" lon="10.714203421279036"><ele>440.33333333333337</ele><time>2026-04-19T09:07:38Z</time></trkpt><trkpt lat="43.1850051240357" lon="10.7142496586452"><ele>439.5</ele><time>2026-04-19T09:07:39Z</time></trkpt><trkpt lat="43.18507880664833" lon="10.714278645206795"><ele>438.66666666666663</ele><time>2026-04-19T09:07:40Z</time></trkpt><trkpt lat="43.18514291931433" lon="10.714303866976028"><ele>437.8333333333333</ele><time>2026-04-19T09:07:41Z</time></trkpt><trkpt lat="43.18521187046236" lon="10.714328422002074"><ele>437.0</ele><time>2026-04-19T09:07:42Z</time></trkpt><trkpt lat="43.18529295283754" lon="10.714352742931949"><ele>436.99999999999994</ele><time>2026-04-19T09:07:43Z</time></trkpt><trkpt lat="43.18539119590873" lon="10.714361329095706"><ele>437.0</ele><time>2026-04-19T09:07:44Z</time></trkpt><trkpt lat="43.18546282634755" lon="10.714377058071774"><ele>437.0</ele><time>2026-04-19T09:07:45Z</time></trkpt><trkpt lat="43.185529778172345" lon="10.714389558641464"><ele>437.0</ele><time>2026-04-19T09:07:46Z</time></trkpt><trkpt lat="43.18559935646321" lon="10.714388092758837"><ele>436.99999999999994</ele><time>2026-04-19T09:07:47Z</time></trkpt><trkpt lat="43.185700558731746" lon="10.714429785786336"><ele>437.0</ele><time>2026-04-19T09:07:49Z</time></trkpt><trkpt lat="43.18580273058177" lon="10.71447737972923"><ele>434.99999999999994</ele><time>2026-04-19T09:07:51Z</time></trkpt><trkpt lat="43.185867566119406" lon="10.71450435558241"><ele>433.0</ele><time>2026-04-19T09:07:52Z</time></trkpt><trkpt lat="43.18592582406126" lon="10.71456592238138"><ele>431.0</ele><time>2026-04-19T09:07:53Z</time></trkpt><trkpt lat="43.18598479254553" lon="10.714637771810214"><ele>429.0</ele><time>2026-04-19T09:07:54Z</time></trkpt><trkpt lat="43.18603579597441" lon="10.714731727068465"><ele>426.99999999999994</ele><time>2026-04-19T09:07:55Z</time></trkpt><trkpt lat="43.18609696788402" lon="10.714816656323903"><ele>425.0</ele><time>2026-04-19T09:07:56Z</time></trkpt><trkpt lat="43.18615676911114" lon="10.714918392953926"><ele>424.99999999999994</ele><time>2026-04-19T09:07:57Z</time></trkpt><trkpt lat="43.18621204150489" lon="10.715003543160607"><ele>425.0</ele><time>2026-04-19T09:07:58Z</time></trkpt><trkpt lat="43.18624055782506" lon="10.71508477649302"><ele>425.0</ele><time>2026-04-19T09:07:59Z</time></trkpt><trkpt lat="43.18637765032306" lon="10.71512115670687"><ele>425.0</ele><time>2026-04-19T09:08:01Z</time></trkpt><trkpt lat="43.186441485643364" lon="10.71514151418372"><ele>424.99999999999994</ele><time>2026-04-19T09:08:02Z</time></trkpt><trkpt lat="43.18650762000894" lon="10.715174252876992"><ele>425.0</ele><time>2026-04-19T09:08:03Z</time></trkpt><trkpt lat="43.186583749139054" lon="10.715200837200307"><ele>424.66666666666663</ele><time>2026-04-19T09:08:04Z</time></trkpt><trkpt lat="43.18666451738897" lon="10.715206543702"><ele>424.3333333333333</ele><time>2026-04-19T09:08:05Z</time></trkpt><trkpt lat="43.18672886133915" lon="10.715216263656224"><ele>424.0</ele><time>2026-04-19T09:08:06Z</time></trkpt><trkpt lat="43.186811958246246" lon="10.715243430548165"><ele>423.66666666666663</ele><time>2026-04-19T09:08:08Z</time></trkpt><trkpt lat="43.18688109940546" lon="10.715275937602463"><ele>423.3333333333333</ele><time>2026-04-19T09:08:10Z</time></trkpt><trkpt lat="43.18692996786191" lon="10.715347525984232"><ele>423.0</ele><time>2026-04-19T09:08:12.001Z</time></trkpt><trkpt lat="43.18697659650751" lon="10.715430153083014"><ele>422.5</ele><time>2026-04-19T09:08:14.001Z</time></trkpt><trkpt lat="43.18700495721762" lon="10.715539876953603"><ele>422.0</ele><time>2026-04-19T09:08:16.001Z</time></trkpt><trkpt lat="43.18704254630627" lon="10.715658208444108"><ele>421.5</ele><time>2026-04-19T09:08:18.001Z</time></trkpt><trkpt lat="43.18707719205691" lon="10.715755797610134"><ele>421.0</ele><time>2026-04-19T09:08:20.001Z</time></trkpt><trkpt lat="43.187111481701656" lon="10.715839518609632"><ele>420.5</ele><time>2026-04-19T09:08:22.001Z</time></trkpt><trkpt lat="43.187142069950156" lon="10.715934975369604"><ele>420.0</ele><time>2026-04-19T09:08:24.001Z</time></trkpt><trkpt lat="43.18719429792952" lon="10.716009842227672"><ele>418.0</ele><time>2026-04-19T09:08:26.001Z</time></trkpt><trkpt lat="43.187253860894245" lon="10.71608539439192"><ele>416.0</ele><time>2026-04-19T09:08:28.001Z</time></trkpt><trkpt lat="43.18733347218192" lon="10.716184953919074"><ele>414.0</ele><time>2026-04-19T09:08:30.001Z</time></trkpt><trkpt lat="43.18737977289687" lon="10.716243556423258"><ele>412.0</ele><time>2026-04-19T09:08:31.001Z</time></trkpt><trkpt lat="43.187430804423954" lon="10.71630874281239"><ele>410.0</ele><time>2026-04-19T09:08:32.001Z</time></trkpt><trkpt lat="43.187510349053234" lon="10.716428357630493"><ele>408.0</ele><time>2026-04-19T09:08:34.001Z</time></trkpt><trkpt lat="43.187585958550386" lon="10.716538729732235"><ele>408.0</ele><time>2026-04-19T09:08:36.001Z</time></trkpt><trkpt lat="43.18765120959769" lon="10.716650044872608"><ele>408.0</ele><time>2026-04-19T09:08:38.001Z</time></trkpt><trkpt lat="43.187728440548845" lon="10.716736864702527"><ele>408.0</ele><time>2026-04-19T09:08:40.001Z</time></trkpt><trkpt lat="43.18782210036051" lon="10.716846790814587"><ele>408.0</ele><time>2026-04-19T09:08:42.001Z</time></trkpt><trkpt lat="43.187887452080275" lon="10.716968180172943"><ele>408.0</ele><time>2026-04-19T09:08:44.001Z</time></trkpt><trkpt lat="43.18797213286364" lon="10.71705169946567"><ele>406.75</ele><time>2026-04-19T09:08:46.001Z</time></trkpt><trkpt lat="43.18806124708313" lon="10.717171163704021"><ele>405.5</ele><time>2026-04-19T09:08:48.001Z</time></trkpt><trkpt lat="43.18813723115332" lon="10.717286610288133"><ele>404.25</ele><time>2026-04-19T09:08:50.001Z</time></trkpt><trkpt lat="43.18820734528837" lon="10.71739868993004"><ele>403.0</ele><time>2026-04-19T09:08:52.001Z</time></trkpt><trkpt lat="43.18830083154581" lon="10.717489693725161"><ele>403.00000000000006</ele><time>2026-04-19T09:08:54.001Z</time></trkpt><trkpt lat="43.18834786154518" lon="10.717556325158554"><ele>403.0</ele><time>2026-04-19T09:08:55.001Z</time></trkpt><trkpt lat="43.18839438828597" lon="10.717628271874716"><ele>403.0</ele><time>2026-04-19T09:08:56.001Z</time></trkpt><trkpt lat="43.18843819027012" lon="10.717692221669873"><ele>403.0</ele><time>2026-04-19T09:08:57.001Z</time></trkpt><trkpt lat="43.18850206781169" lon="10.71780728468023"><ele>403.00000000000006</ele><time>2026-04-19T09:08:59.001Z</time></trkpt><trkpt lat="43.18855473706399" lon="10.717911204673262"><ele>403.0</ele><time>2026-04-19T09:09:01.001Z</time></trkpt><trkpt lat="43.188610739252" lon="10.718020818907153"><ele>402.0</ele><time>2026-04-19T09:09:03.001Z</time></trkpt><trkpt lat="43.18866560610322" lon="10.718120744634318"><ele>401.0</ele><time>2026-04-19T09:09:05.001Z</time></trkpt><trkpt lat="43.188716924973654" lon="10.718237908812522"><ele>400.0</ele><time>2026-04-19T09:09:07Z</time></trkpt><trkpt lat="43.188791229877715" lon="10.718335737861619"><ele>399.0</ele><time>2026-04-19T09:09:09Z</time></trkpt><trkpt lat="43.18887184748694" lon="10.718440730177406"><ele>398.0</ele><time>2026-04-19T09:09:11Z</time></trkpt><trkpt lat="43.188939899118076" lon="10.718548786875852"><ele>397.0</ele><time>2026-04-19T09:09:13Z</time></trkpt><trkpt lat="43.189014704325" lon="10.718669489889493"><ele>396.0</ele><time>2026-04-19T09:09:15Z</time></trkpt><trkpt lat="43.1890999187502" lon="10.718785153472247"><ele>395.0</ele><time>2026-04-19T09:09:17Z</time></trkpt><trkpt lat="43.189186432579156" lon="10.718892175519391"><ele>394.0</ele><time>2026-04-19T09:09:19Z</time></trkpt><trkpt lat="43.18925470864746" lon="10.719000696298933"><ele>394.0</ele><time>2026-04-19T09:09:21Z</time></trkpt><trkpt lat="43.189306517333925" lon="10.719085391602302"><ele>394.0</ele><time>2026-04-19T09:09:23Z</time></trkpt><trkpt lat="43.18936584382041" lon="10.719179355373628"><ele>394.0</ele><time>2026-04-19T09:09:25.001Z</time></trkpt><trkpt lat="43.1894341196626" lon="10.719291886020544"><ele>394.0</ele><time>2026-04-19T09:09:27.001Z</time></trkpt><trkpt lat="43.189498502046746" lon="10.719390332663226"><ele>394.0</ele><time>2026-04-19T09:09:29.001Z</time></trkpt><trkpt lat="43.189561789581525" lon="10.719478429344784"><ele>392.2</ele><time>2026-04-19T09:09:31.001Z</time></trkpt><trkpt lat="43.18963502600353" lon="10.719571882566575"><ele>390.4</ele><time>2026-04-19T09:09:33Z</time></trkpt><trkpt lat="43.189717388033664" lon="10.719665727613858"><ele>388.6</ele><time>2026-04-19T09:09:35Z</time></trkpt><trkpt lat="43.18979478057724" lon="10.719742747301158"><ele>386.8</ele><time>2026-04-19T09:09:37Z</time></trkpt><trkpt lat="43.18985401116848" lon="10.719814107830672"><ele>385.0</ele><time>2026-04-19T09:09:39Z</time></trkpt><trkpt lat="43.18991225318897" lon="10.719873897711004"><ele>384.6666666666667</ele><time>2026-04-19T09:09:41Z</time></trkpt><trkpt lat="43.18997178509153" lon="10.71992362470935"><ele>384.33333333333337</ele><time>2026-04-19T09:09:43Z</time></trkpt><trkpt lat="43.19003391620602" lon="10.719965896244704"><ele>384.0</ele><time>2026-04-19T09:09:45Z</time></trkpt><trkpt lat="43.19009685985016" lon="10.720004877718669"><ele>383.6666666666667</ele><time>2026-04-19T09:09:47Z</time></trkpt><trkpt lat="43.190154997400896" lon="10.720058823374565"><ele>383.33333333333337</ele><time>2026-04-19T09:09:49Z</time></trkpt><trkpt lat="43.190199714785855" lon="10.720167834377609"><ele>383.0</ele><time>2026-04-19T09:09:51Z</time></trkpt><trkpt lat="43.190262693365305" lon="10.720239073761869"><ele>382.5</ele><time>2026-04-19T09:09:53Z</time></trkpt><trkpt lat="43.19031836471095" lon="10.720302716189417"><ele>382.0</ele><time>2026-04-19T09:09:55Z</time></trkpt><trkpt lat="43.19035134930874" lon="10.720392242676425"><ele>381.5</ele><time>2026-04-19T09:09:57Z</time></trkpt><trkpt lat="43.19035707113501" lon="10.720542329790915"><ele>381.0</ele><time>2026-04-19T09:10:00Z</time></trkpt><trkpt lat="43.190372466814175" lon="10.72064548054298"><ele>380.5</ele><time>2026-04-19T09:10:02Z</time></trkpt><trkpt lat="43.19039473814754" lon="10.720734345295387"><ele>380.0</ele><time>2026-04-19T09:10:04Z</time></trkpt><trkpt lat="43.19040664250283" lon="10.720829466344197"><ele>380.0</ele><time>2026-04-19T09:10:06Z</time></trkpt><trkpt lat="43.190407469030816" lon="10.720928297170397"><ele>380.0</ele><time>2026-04-19T09:19:54Z</time></trkpt><trkpt lat="43.19040565795851" lon="10.720802059880167"><ele>380.0</ele><time>2026-04-19T09:25:36Z</time></trkpt><trkpt lat="43.1903908770737" lon="10.72070365581593"><ele>380.0</ele><time>2026-04-19T09:25:39Z</time></trkpt><trkpt lat="43.190370043891534" lon="10.720595384308705"><ele>380.0</ele><time>2026-04-19T09:25:41Z</time></trkpt><trkpt lat="43.190356013481505" lon="10.720487809007135"><ele>380.0</ele><time>2026-04-19T09:25:43Z</time></trkpt><trkpt lat="43.19035265095435" lon="10.720380125205732"><ele>380.0</ele><time>2026-04-19T09:25:45Z</time></trkpt><trkpt lat="43.190296965530074" lon="10.720258442286383"><ele>380.0</ele><time>2026-04-19T09:25:48Z</time></trkpt><trkpt lat="43.190230903938094" lon="10.720197215404973"><ele>380.0</ele><time>2026-04-19T09:25:50Z</time></trkpt><trkpt lat="43.19016350866237" lon="10.72011184089113"><ele>380.0</ele><time>2026-04-19T09:25:52Z</time></trkpt><trkpt lat="43.190092633064985" lon="10.720031318211571"><ele>380.0</ele><time>2026-04-19T09:25:54Z</time></trkpt><trkpt lat="43.19000891339956" lon="10.71995425190591"><ele>380.6</ele><time>2026-04-19T09:25:56Z</time></trkpt><trkpt lat="43.18992960503671" lon="10.71990105961152"><ele>381.2</ele><time>2026-04-19T09:25:58Z</time></trkpt><trkpt lat="43.189878278058075" lon="10.719851016207663"><ele>381.79999999999995</ele><time>2026-04-19T09:25:59Z</time></trkpt><trkpt lat="43.18979471449725" lon="10.719762842422622"><ele>382.4</ele><time>2026-04-19T09:26:01Z</time></trkpt><trkpt lat="43.18971303078171" lon="10.719662323742028"><ele>383.0</ele><time>2026-04-19T09:26:03Z</time></trkpt><trkpt lat="43.189624294455676" lon="10.719570607851075"><ele>383.4</ele><time>2026-04-19T09:26:05Z</time></trkpt><trkpt lat="43.18957242333973" lon="10.71949917735869"><ele>383.79999999999995</ele><time>2026-04-19T09:26:06Z</time></trkpt><trkpt lat="43.189492207177" lon="10.719392943102365"><ele>384.2</ele><time>2026-04-19T09:26:08Z</time></trkpt><trkpt lat="43.189417780848466" lon="10.719275788848117"><ele>384.6</ele><time>2026-04-19T09:26:10Z</time></trkpt><trkpt lat="43.18935889439839" lon="10.719165139079834"><ele>385.0</ele><time>2026-04-19T09:26:12Z</time></trkpt><trkpt lat="43.1892833689048" lon="10.719037605592057"><ele>385.4</ele><time>2026-04-19T09:26:14Z</time></trkpt><trkpt lat="43.189218956062234" lon="10.718947331495793"><ele>385.8</ele><time>2026-04-19T09:26:16Z</time></trkpt><trkpt lat="43.18914032783334" lon="10.718848975607866"><ele>386.20000000000005</ele><time>2026-04-19T09:26:18Z</time></trkpt><trkpt lat="43.18904824712336" lon="10.71875542576874"><ele>386.6</ele><time>2026-04-19T09:26:20Z</time></trkpt><trkpt lat="43.18899785456727" lon="10.718688332778594"><ele>387.0</ele><time>2026-04-19T09:26:22Z</time></trkpt><trkpt lat="43.18893899041244" lon="10.718575901057884"><ele>388.8333333333333</ele><time>2026-04-19T09:26:46Z</time></trkpt><trkpt lat="43.188885438745025" lon="10.718456024746716"><ele>390.66666666666663</ele><time>2026-04-19T09:26:48Z</time></trkpt><trkpt lat="43.18883291576407" lon="10.71838267184931"><ele>392.5</ele><time>2026-04-19T09:26:49Z</time></trkpt><trkpt lat="43.1887868771727" lon="10.718314326252013"><ele>394.3333333333333</ele><time>2026-04-19T09:26:50Z</time></trkpt><trkpt lat="43.18873099367389" lon="10.718243853391119"><ele>396.16666666666663</ele><time>2026-04-19T09:26:51Z</time></trkpt><trkpt lat="43.18867840271846" lon="10.718173395703579"><ele>398.0</ele><time>2026-04-19T09:26:52Z</time></trkpt><trkpt lat="43.188643003026414" lon="10.718096673969436"><ele>397.99999999999994</ele><time>2026-04-19T09:26:53Z</time></trkpt><trkpt lat="43.18861464504545" lon="10.718016613238701"><ele>398.0</ele><time>2026-04-19T09:26:54Z</time></trkpt><trkpt lat="43.18857374640602" lon="10.71794781087864"><ele>398.0</ele><time>2026-04-19T09:26:55Z</time></trkpt><trkpt lat="43.188515815225486" lon="10.717806953526708"><ele>398.0</ele><time>2026-04-19T09:26:57Z</time></trkpt><trkpt lat="43.18847715260954" lon="10.717736418381364"><ele>397.99999999999994</ele><time>2026-04-19T09:26:58Z</time></trkpt><trkpt lat="43.18842106416729" lon="10.717661401912865"><ele>398.0</ele><time>2026-04-19T09:26:59Z</time></trkpt><trkpt lat="43.188369528768334" lon="10.717584315901734"><ele>397.71428571428567</ele><time>2026-04-19T09:27:00Z</time></trkpt><trkpt lat="43.18831586311928" lon="10.717512429674729"><ele>397.42857142857144</ele><time>2026-04-19T09:27:01Z</time></trkpt><trkpt lat="43.18826765510332" lon="10.717437638477634"><ele>397.1428571428571</ele><time>2026-04-19T09:27:02Z</time></trkpt><trkpt lat="43.18821010494509" lon="10.717387437467094"><ele>396.85714285714283</ele><time>2026-04-19T09:27:03Z</time></trkpt><trkpt lat="43.188157176114565" lon="10.717325068479925"><ele>396.57142857142856</ele><time>2026-04-19T09:27:04Z</time></trkpt><trkpt lat="43.1881059136583" lon="10.717249760123122"><ele>396.2857142857143</ele><time>2026-04-19T09:27:05Z</time></trkpt><trkpt lat="43.18805868830972" lon="10.717163548609157"><ele>396.0</ele><time>2026-04-19T09:27:06Z</time></trkpt><trkpt lat="43.18801026129857" lon="10.717091226394222"><ele>396.0</ele><time>2026-04-19T09:27:07Z</time></trkpt><trkpt lat="43.18796162996276" lon="10.717018796956022"><ele>396.0</ele><time>2026-04-19T09:27:08Z</time></trkpt><trkpt lat="43.18790856607425" lon="10.716954057262294"><ele>396.0</ele><time>2026-04-19T09:27:09Z</time></trkpt><trkpt lat="43.18785137125424" lon="10.716886123804546"><ele>396.0</ele><time>2026-04-19T09:27:10Z</time></trkpt><trkpt lat="43.187792558341606" lon="10.716804136155128"><ele>396.0</ele><time>2026-04-19T09:27:11Z</time></trkpt><trkpt lat="43.18774081456452" lon="10.716734768043738"><ele>396.0</ele><time>2026-04-19T09:27:12Z</time></trkpt><trkpt lat="43.18768518066516" lon="10.716670303365193"><ele>396.0</ele><time>2026-04-19T09:27:13Z</time></trkpt><trkpt lat="43.18763222266648" lon="10.716607008717746"><ele>397.3333333333333</ele><time>2026-04-19T09:27:14Z</time></trkpt><trkpt lat="43.18758368152979" lon="10.716538832900142"><ele>398.66666666666663</ele><time>2026-04-19T09:27:15Z</time></trkpt><trkpt lat="43.187532699863915" lon="10.716448333166714"><ele>400.0</ele><time>2026-04-19T09:27:16Z</time></trkpt><trkpt lat="43.18747481999897" lon="10.716366883085357"><ele>401.3333333333333</ele><time>2026-04-19T09:27:17Z</time></trkpt><trkpt lat="43.187418407595125" lon="10.716285689807727"><ele>402.66666666666663</ele><time>2026-04-19T09:27:18Z</time></trkpt><trkpt lat="43.18735332520977" lon="10.71620248920971"><ele>404.0</ele><time>2026-04-19T09:27:19Z</time></trkpt><trkpt lat="43.187294903782" lon="10.716134985279185"><ele>406.66666666666663</ele><time>2026-04-19T09:27:20Z</time></trkpt><trkpt lat="43.18724136053358" lon="10.716064976535673"><ele>409.3333333333333</ele><time>2026-04-19T09:27:21Z</time></trkpt><trkpt lat="43.18719050355916" lon="10.715992104250608"><ele>412.0</ele><time>2026-04-19T09:27:22Z</time></trkpt><trkpt lat="43.18714747514175" lon="10.71590245038053"><ele>414.66666666666663</ele><time>2026-04-19T09:27:23Z</time></trkpt><trkpt lat="43.1871077428919" lon="10.715815904969778"><ele>417.3333333333333</ele><time>2026-04-19T09:27:24Z</time></trkpt><trkpt lat="43.18707108410828" lon="10.71573956596278"><ele>420.0</ele><time>2026-04-19T09:27:25Z</time></trkpt><trkpt lat="43.18703711310919" lon="10.715584042193925"><ele>420.0</ele><time>2026-04-19T09:27:27Z</time></trkpt><trkpt lat="43.187002946211756" lon="10.715485656014918"><ele>420.0</ele><time>2026-04-19T09:27:28Z</time></trkpt><trkpt lat="43.18696487975454" lon="10.715411146039049"><ele>420.0</ele><time>2026-04-19T09:27:29Z</time></trkpt><trkpt lat="43.18693207704034" lon="10.715334048545227"><ele>420.0</ele><time>2026-04-19T09:27:30Z</time></trkpt><trkpt lat="43.18686401083358" lon="10.715262518828117"><ele>420.0</ele><time>2026-04-19T09:27:32Z</time></trkpt><trkpt lat="43.18677897437739" lon="10.715233705121284"><ele>420.0</ele><time>2026-04-19T09:27:34Z</time></trkpt><trkpt lat="43.186658407232095" lon="10.71520518722021"><ele>420.42857142857144</ele><time>2026-04-19T09:27:36Z</time></trkpt><trkpt lat="43.186591033140665" lon="10.715184857756714"><ele>420.8571428571429</ele><time>2026-04-19T09:27:37Z</time></trkpt><trkpt lat="43.18651826938667" lon="10.71516360577924"><ele>421.2857142857143</ele><time>2026-04-19T09:27:38Z</time></trkpt><trkpt lat="43.18645279951392" lon="10.715138569129165"><ele>421.7142857142857</ele><time>2026-04-19T09:27:39Z</time></trkpt><trkpt lat="43.18639148840254" lon="10.715102214275166"><ele>422.14285714285717</ele><time>2026-04-19T09:27:40Z</time></trkpt><trkpt lat="43.18632907114023" lon="10.715082182198227"><ele>422.57142857142856</ele><time>2026-04-19T09:27:41Z</time></trkpt><trkpt lat="43.18627072607558" lon="10.715046630271873"><ele>423.0</ele><time>2026-04-19T09:27:42Z</time></trkpt><trkpt lat="43.18617384824748" lon="10.714930579001306"><ele>423.3333333333333</ele><time>2026-04-19T09:27:44Z</time></trkpt><trkpt lat="43.18615328423285" lon="10.71484606787761"><ele>423.66666666666663</ele><time>2026-04-19T09:27:45Z</time></trkpt><trkpt lat="43.18611211320924" lon="10.714769668592327"><ele>424.0</ele><time>2026-04-19T09:27:46Z</time></trkpt><trkpt lat="43.186064754394906" lon="10.714687544945777"><ele>424.3333333333333</ele><time>2026-04-19T09:27:47Z</time></trkpt><trkpt lat="43.186014899974964" lon="10.714613483044284"><ele>424.66666666666663</ele><time>2026-04-19T09:27:48Z</time></trkpt><trkpt lat="43.185925314260416" lon="10.714506774951495"><ele>425.0</ele><time>2026-04-19T09:27:50Z</time></trkpt><trkpt lat="43.185873450780434" lon="10.714453455885742"><ele>424.99999999999994</ele><time>2026-04-19T09:27:51Z</time></trkpt><trkpt lat="43.18580807117048" lon="10.714413700201593"><ele>425.0</ele><time>2026-04-19T09:27:52Z</time></trkpt><trkpt lat="43.185746371422255" lon="10.714388409941925"><ele>425.0</ele><time>2026-04-19T09:27:53Z</time></trkpt><trkpt lat="43.18568269750225" lon="10.714388876800058"><ele>425.0</ele><time>2026-04-19T09:27:54Z</time></trkpt><trkpt lat="43.185561674886365" lon="10.714374775070587"><ele>424.99999999999994</ele><time>2026-04-19T09:27:56Z</time></trkpt><trkpt lat="43.185441437846904" lon="10.714335471024324"><ele>425.0</ele><time>2026-04-19T09:27:58Z</time></trkpt><trkpt lat="43.185374315612755" lon="10.714323508805919"><ele>427.4</ele><time>2026-04-19T09:27:59Z</time></trkpt><trkpt lat="43.18530477897847" lon="10.714331802204939"><ele>429.8</ele><time>2026-04-19T09:28:00Z</time></trkpt><trkpt lat="43.18518245280914" lon="10.714283453108878"><ele>432.20000000000005</ele><time>2026-04-19T09:28:02Z</time></trkpt><trkpt lat="43.185115796392424" lon="10.71426618947244"><ele>434.6</ele><time>2026-04-19T09:28:03Z</time></trkpt><trkpt lat="43.18506059398624" lon="10.714224123657763"><ele>437.0</ele><time>2026-04-19T09:28:04Z</time></trkpt><trkpt lat="43.18494009792878" lon="10.714177464035135"><ele>436.99999999999994</ele><time>2026-04-19T09:28:06Z</time></trkpt><trkpt lat="43.18486573771149" lon="10.714150225653166"><ele>437.0</ele><time>2026-04-19T09:28:07Z</time></trkpt><trkpt lat="43.184796518103106" lon="10.714135068035436"><ele>437.0</ele><time>2026-04-19T09:28:08Z</time></trkpt><trkpt lat="43.18472311200216" lon="10.71412645001925"><ele>437.0</ele><time>2026-04-19T09:28:09Z</time></trkpt><trkpt lat="43.18464216579673" lon="10.714134054342708"><ele>436.99999999999994</ele><time>2026-04-19T09:28:10Z</time></trkpt><trkpt lat="43.1845536191148" lon="10.71415177276531"><ele>437.0</ele><time>2026-04-19T09:28:11Z</time></trkpt><trkpt lat="43.18444668451982" lon="10.714181182311185"><ele>442.0</ele><time>2026-04-19T09:28:12Z</time></trkpt><trkpt lat="43.18437467695451" lon="10.714205400121752"><ele>442.0</ele><time>2026-04-19T09:28:13Z</time></trkpt><trkpt lat="43.18431179065904" lon="10.714229496533674"><ele>442.0</ele><time>2026-04-19T09:28:14Z</time></trkpt><trkpt lat="43.184200328701934" lon="10.714293121728392"><ele>442.0</ele><time>2026-04-19T09:28:16Z</time></trkpt><trkpt lat="43.18410881172454" lon="10.71435442646806"><ele>442.0</ele><time>2026-04-19T09:28:18Z</time></trkpt><trkpt lat="43.184045865648464" lon="10.714396087869567"><ele>442.0</ele><time>2026-04-19T09:28:20Z</time></trkpt></trkseg></trk></gpx>